[[{"header":{"parameterUnit":"m.s-1","parameterCategory":1,"la1":30.6,"la2":28.766,"lo1":-90.7593,"lo2":-88.6598,"dy":0.0162,"dx":0.0183,"nx":116,"ny":114,"refTime":"2024-04-12T18:00:00:Z","depth":0,"parameterNumber":2,"parameterNumberName":"U-component_of_WINDS"},"data":[0.0,0.0,0.0,0.0,0.0,0.0,0.0,0.0,0.0,0.0,0.0,0.0,0.0,0.0,0.0,0.0,0.0,0.0,0.0,0.0,0.0,0.0,0.0,0.0,0.0,0.0,0.0,0.0,0.0,0.0,0.0,0.0,0.0,0.0,0.0,0.0,0.0,0.0,0.0,0.0,0.0,0.0,0.0,0.0,0.0,0.0,0.0,0.0,0.0,0.0,0.0,0.0,0.0,0.0,0.0,0.0,0.0,0.0,0.0,0.0,0.0,0.0,0.0,0.0,0.0,0.0,0.0,0.0,0.0,0.0,0.0,0.0,0.0,0.0,0.0,0.0,0.0,0.0,0.0,0.0,0.0,0.0,0.0,0.0,0.0,0.0,0.0,0.0,0.0,0.0,0.0,0.0,0.0,0.0,0.0,0.0,0.0,0.0,0.0,0.0,0.0,0.0,0.0,0.0,0.0,0.0,0.0,0.0,0.0,0.0,0.0,0.0,0.0,0.0,0.0,0.0,0.0,0.0,0.0,0.0,0.0,0.0,0.0,0.0,0.0,0.0,0.0,0.0,0.0,0.0,0.0,0.0,0.0,0.0,0.0,0.0,0.0,0.0,0.0,0.0,0.0,0.0,0.0,0.0,0.0,0.0,0.0,0.0,0.0,0.0,0.0,0.0,0.0,0.0,0.0,0.0,0.0,0.0,0.0,0.0,0.0,0.0,0.0,0.0,0.0,0.0,0.0,0.0,0.0,0.0,0.0,0.0,0.0,0.0,0.0,0.0,0.0,0.0,0.0,0.0,0.0,0.0,0.0,0.0,0.0,0.0,0.0,0.0,0.0,0.0,0.0,0.0,0.0,0.0,0.0,0.0,0.0,0.0,0.0,0.0,0.0,0.0,0.0,0.0,0.0,0.0,0.0,0.0,0.0,0.0,0.0,0.0,0.0,0.0,0.0,0.0,0.0,0.0,0.0,0.0,0.0,0.0,0.0,0.0,0.0,0.0,0.0,0.0,0.0,0.0,0.0,0.0,0.0,0.0,0.0,0.0,0.0,0.0,0.0,0.0,0.0,0.0,0.0,0.0,0.0,0.0,0.0,0.0,0.0,0.0,0.0,0.0,0.0,0.0,0.0,0.0,0.0,0.0,0.0,0.0,0.0,0.0,0.0,0.0,0.0,0.0,0.0,0.0,0.0,0.0,0.0,0.0,0.0,0.0,0.0,0.0,0.0,0.0,0.0,0.0,0.0,0.0,0.0,0.0,0.0,0.0,0.0,0.0,0.0,0.0,0.0,0.0,0.0,0.0,0.0,0.0,0.0,0.0,0.0,0.0,0.0,0.0,0.0,0.0,0.0,0.0,0.0,0.0,0.0,0.0,0.0,0.0,0.0,0.0,0.0,0.0,0.0,0.0,0.0,0.0,0.0,0.0,0.0,0.0,0.0,0.0,0.0,0.0,0.0,0.0,0.0,0.0,0.0,0.0,0.0,0.0,0.0,0.0,0.0,0.0,0.0,0.0,0.0,0.0,0.0,0.0,0.0,0.0,0.0,0.0,0.0,0.0,0.0,0.0,0.0,0.0,0.0,0.0,0.0,0.0,0.0,0.0,0.0,0.0,0.0,0.0,0.0,0.0,0.0,0.0,0.0,0.0,0.0,0.0,0.0,0.0,0.0,0.0,0.0,0.0,0.0,0.0,0.0,0.0,0.0,0.0,0.0,0.0,0.0,0.0,0.0,0.0,0.0,0.0,0.0,0.0,0.0,0.0,0.0,0.0,0.0,0.0,0.0,0.0,0.0,0.0,0.0,0.0,0.0,0.0,0.0,0.0,0.0,0.0,0.0,0.0,0.0,0.0,0.0,0.0,0.0,0.0,0.0,0.0,0.0,0.0,0.0,0.0,0.0,0.0,0.0,0.0,0.0,0.0,0.0,0.0,0.0,0.0,0.0,0.0,0.0,0.0,0.0,0.0,0.0,0.0,0.0,0.0,0.0,0.0,0.0,0.0,0.0,0.0,0.0,0.0,0.0,0.0,0.0,0.0,0.0,0.0,0.0,0.0,0.0,0.0,0.0,0.0,0.0,0.0,0.0,0.0,0.0,0.0,0.0,0.0,0.0,0.0,0.0,0.0,0.0,0.0,0.0,0.0,0.0,0.0,0.0,0.0,0.0,0.0,0.0,0.0,0.0,0.0,0.0,0.0,0.0,0.0,0.0,0.0,0.0,0.0,0.0,0.0,0.0,0.0,0.0,0.0,0.0,0.0,0.0,0.0,0.0,0.0,0.0,0.0,0.0,0.0,0.0,0.0,0.0,0.0,0.0,0.0,0.0,0.0,0.0,0.0,0.0,0.0,0.0,0.0,0.0,0.0,0.0,0.0,0.0,0.0,0.0,0.0,0.0,0.0,0.0,0.0,0.0,0.0,0.0,0.0,0.0,0.0,0.0,0.0,0.0,0.0,0.0,0.0,0.0,0.0,0.0,0.0,0.0,0.0,0.0,0.0,0.0,0.0,0.0,0.0,0.0,0.0,0.0,0.0,0.0,0.0,0.0,0.0,0.0,0.0,0.0,0.0,0.0,0.0,0.0,0.0,0.0,0.0,0.0,0.0,0.0,0.0,0.0,0.0,0.0,0.0,0.0,0.0,0.0,0.0,0.0,0.0,0.0,0.0,0.0,0.0,0.0,0.0,0.0,0.0,0.0,0.0,0.0,0.0,0.0,0.0,0.0,0.0,0.0,0.0,0.0,0.0,0.0,0.0,0.0,0.0,0.0,0.0,0.0,0.0,0.0,0.0,0.0,0.0,0.0,0.0,0.0,0.0,0.0,0.0,0.0,0.0,0.0,0.0,0.0,0.0,0.0,0.0,0.0,0.0,0.0,0.0,0.0,0.0,0.0,0.0,0.0,0.0,0.0,0.0,0.0,0.0,0.0,0.0,0.0,0.0,0.0,0.0,0.0,0.0,0.0,0.0,0.0,0.0,0.0,0.0,0.0,0.0,0.0,0.0,0.0,0.0,0.0,0.0,0.0,0.0,0.0,0.0,0.0,0.0,0.0,0.0,0.0,0.0,0.0,0.0,0.0,0.0,0.0,0.0,0.0,0.0,0.0,0.0,0.0,0.0,0.0,0.0,0.0,0.0,0.0,0.0,0.0,0.0,0.0,0.0,0.0,0.0,0.0,0.0,0.0,0.0,0.0,0.0,0.0,0.0,0.0,0.0,0.0,0.0,0.0,0.0,0.0,0.0,0.0,0.0,0.0,0.0,0.0,0.0,0.0,0.0,0.0,0.0,0.0,0.0,0.0,0.0,0.0,0.0,0.0,0.0,0.0,0.0,0.0,0.0,0.0,0.0,0.0,0.0,0.0,0.0,0.0,0.0,0.0,0.0,0.0,0.0,0.0,0.0,0.0,0.0,0.0,0.0,0.0,0.0,0.0,0.0,0.0,0.0,0.0,0.0,0.0,0.0,0.0,0.0,0.0,0.0,0.0,0.0,0.0,0.0,0.0,0.0,0.0,0.0,0.0,0.0,0.0,0.0,0.0,0.0,0.0,0.0,0.0,0.0,0.0,0.0,0.0,0.0,0.0,0.0,0.0,0.0,0.0,0.0,0.0,0.0,0.0,0.0,0.0,0.0,0.0,0.0,0.0,0.0,0.0,0.0,0.0,0.0,0.0,0.0,0.0,0.0,0.0,0.0,0.0,0.0,0.0,0.0,0.0,0.0,0.0,0.0,0.0,0.0,0.0,0.0,0.0,0.0,0.0,0.0,0.0,0.0,0.0,0.0,0.0,0.0,0.0,0.0,0.0,0.0,0.0,0.0,0.0,0.0,0.0,0.0,0.0,0.0,0.0,0.0,0.0,0.0,0.0,0.0,0.0,0.0,0.0,0.0,0.0,0.0,0.0,0.0,0.0,0.0,0.0,0.0,0.0,0.0,0.0,0.0,0.0,0.0,0.0,0.0,0.0,0.0,0.0,0.0,0.0,0.0,0.0,0.0,0.0,0.0,0.0,0.0,0.0,0.0,0.0,0.0,0.0,0.0,0.0,0.0,0.0,0.0,0.0,0.0,0.0,0.0,0.0,0.0,0.0,0.0,0.0,0.0,0.0,0.0,0.0,0.0,0.0,0.0,0.0,0.0,0.0,0.0,0.0,0.0,0.0,0.0,0.0,0.0,0.0,0.0,0.0,0.0,0.0,0.0,0.0,0.0,0.0,0.0,0.0,0.0,0.0,0.0,0.0,0.0,0.0,0.0,0.0,0.0,0.0,0.0,0.0,0.0,0.0,0.0,0.0,0.0,0.0,0.0,0.0,0.0,0.0,0.0,0.0,0.0,0.0,0.0,0.0,0.0,0.0,0.0,0.0,0.0,0.0,0.0,0.0,0.0,0.0,0.0,0.0,0.0,0.0,0.0,0.0,0.0,0.0,0.0,0.0,0.0,0.0,0.0,0.0,0.0,0.0,0.0,0.0,0.0,0.0,0.0,0.0,0.0,0.0,0.0,0.0,0.0,0.0,0.0,0.0,0.0,0.0,0.0,0.0,0.0,0.0,0.0,0.0,0.0,0.0,0.0,0.0,0.0,0.0,0.0,0.0,0.0,0.0,0.0,0.0,0.0,0.0,0.0,0.0,0.0,0.0,0.0,0.0,0.0,0.0,0.0,0.0,0.0,0.0,0.0,0.0,0.0,0.0,0.0,0.0,0.0,0.0,0.0,0.0,0.0,0.0,0.0,0.0,0.0,0.0,0.0,0.0,0.0,0.0,0.0,0.0,0.0,0.0,0.0,0.0,0.0,0.0,0.0,0.0,0.0,0.0,0.0,0.0,0.0,0.0,0.0,0.0,0.0,0.0,0.0,0.0,0.0,0.0,0.0,0.0,0.0,0.0,0.0,0.0,0.0,0.0,0.0,0.0,0.0,0.0,0.0,0.0,0.0,0.0,0.0,0.0,0.0,0.0,0.0,0.0,0.0,0.0,0.0,0.0,0.0,0.0,0.0,0.0,0.0,0.0,0.0,0.0,0.0,0.0,0.0,0.0,0.0,0.0,0.0,0.0,0.0,0.0,0.0,0.0,0.0,0.0,0.0,0.0,0.0,0.0,0.0,0.0,0.0,0.0,0.0,0.0,0.0,0.0,0.0,0.0,0.0,0.0,0.0,0.0,0.0,0.0,0.0,0.0,0.0,0.0,0.0,0.0,0.0,0.0,0.0,0.0,0.0,0.0,0.0,0.0,0.0,0.0,0.0,0.0,0.0,0.0,0.0,0.0,0.0,0.0,0.0,0.0,0.0,0.0,0.0,0.0,0.0,0.0,0.0,0.0,0.0,0.0,0.0,0.0,0.0,0.0,0.0,0.0,0.0,0.0,0.0,0.0,0.0,0.0,0.0,0.0,0.0,0.0,0.0,0.0,0.0,0.0,0.0,0.0,0.0,0.0,0.0,0.0,0.0,0.0,0.0,0.0,0.0,0.0,0.0,0.0,0.0,0.0,0.0,0.0,0.0,0.0,0.0,0.0,0.0,0.0,0.0,0.0,0.0,0.0,0.0,0.0,0.0,0.0,0.0,0.0,0.0,0.0,0.0,0.0,0.0,0.0,0.0,0.0,0.0,0.0,0.0,0.0,0.0,0.0,0.0,0.0,0.0,0.0,0.0,0.0,0.0,0.0,0.0,0.0,0.0,0.0,0.0,0.0,0.0,0.0,0.0,0.0,0.0,0.0,0.0,0.0,0.0,0.0,0.0,0.0,0.0,0.0,0.0,0.0,0.0,0.0,0.0,0.0,0.0,0.0,0.0,0.0,0.0,0.0,0.0,0.0,0.0,0.0,0.0,0.0,0.0,0.0,0.0,0.0,0.0,0.0,0.0,0.0,0.0,0.0,0.0,0.0,0.0,0.0,0.0,0.0,0.0,0.0,0.0,0.0,0.0,0.0,0.0,0.0,0.0,0.0,0.0,0.0,0.0,0.0,0.0,0.0,0.0,0.0,0.0,0.0,0.0,0.0,0.0,0.0,0.0,0.0,0.0,0.0,0.0,0.0,0.0,0.0,0.0,0.0,0.0,0.0,0.0,0.0,0.0,0.0,0.0,0.0,0.0,0.0,0.0,0.0,0.0,-6.0941,-6.1825,0.0,0.0,0.0,0.0,0.0,0.0,0.0,0.0,0.0,0.0,0.0,0.0,0.0,0.0,0.0,0.0,0.0,0.0,0.0,0.0,0.0,0.0,0.0,-5.1394,-5.1294,-5.1025,-5.1002,-5.0905,-5.0712,0.0,0.0,0.0,0.0,0.0,-5.0643,-5.0643,-5.0815,-5.1176,-5.1176,-5.1606,-5.2428,-5.2963,-5.3673,-5.4506,0.0,0.0,0.0,0.0,0.0,0.0,0.0,0.0,0.0,0.0,0.0,0.0,0.0,0.0,0.0,0.0,0.0,0.0,0.0,0.0,0.0,0.0,0.0,0.0,0.0,0.0,0.0,0.0,0.0,0.0,0.0,0.0,0.0,0.0,0.0,0.0,0.0,0.0,0.0,0.0,0.0,0.0,0.0,0.0,0.0,0.0,0.0,0.0,0.0,0.0,0.0,0.0,0.0,0.0,0.0,0.0,0.0,0.0,0.0,0.0,0.0,0.0,0.0,0.0,0.0,0.0,0.0,0.0,0.0,0.0,-5.9414,-5.998,0.0,0.0,0.0,0.0,0.0,0.0,0.0,0.0,0.0,0.0,0.0,0.0,0.0,0.0,0.0,0.0,0.0,0.0,0.0,0.0,0.0,-5.1394,-5.1394,-5.1388,-5.1278,-5.1025,-5.0984,-5.0903,-5.0712,-5.0712,0.0,0.0,0.0,-5.0663,-5.0613,-5.0603,-5.0572,-5.05,-5.0478,-5.0823,-5.1532,-5.1532,-5.1897,-5.2537,-5.2866,0.0,0.0,0.0,0.0,0.0,0.0,0.0,0.0,0.0,0.0,0.0,0.0,0.0,0.0,0.0,0.0,0.0,0.0,0.0,0.0,0.0,0.0,0.0,0.0,0.0,0.0,0.0,0.0,0.0,0.0,0.0,0.0,0.0,0.0,0.0,0.0,0.0,0.0,0.0,0.0,0.0,0.0,0.0,0.0,0.0,0.0,0.0,0.0,0.0,0.0,0.0,0.0,0.0,0.0,0.0,0.0,0.0,0.0,0.0,0.0,0.0,0.0,0.0,-5.7091,-5.7115,-5.7211,-5.7097,-5.7103,-5.7217,-5.724,-5.7541,-5.7997,-5.785,0.0,0.0,0.0,0.0,0.0,0.0,0.0,0.0,0.0,0.0,0.0,0.0,0.0,0.0,0.0,0.0,0.0,0.0,0.0,-5.1394,-5.1394,-5.1294,-5.1178,-5.1014,-5.0958,-5.0847,-5.0702,-5.0712,-5.0712,-5.0712,-5.0712,-5.0702,-5.0702,-5.0623,-5.0572,-5.05,-5.0382,-5.0382,-5.0497,-5.0497,-5.0554,-5.0707,-5.2296,-5.3015,-5.3018,0.0,0.0,0.0,0.0,0.0,0.0,0.0,0.0,0.0,0.0,0.0,0.0,0.0,0.0,0.0,0.0,0.0,0.0,0.0,0.0,0.0,0.0,0.0,0.0,0.0,0.0,0.0,0.0,0.0,0.0,0.0,0.0,0.0,0.0,0.0,0.0,0.0,0.0,0.0,0.0,0.0,-5.7033,-5.7559,0.0,0.0,0.0,0.0,0.0,0.0,0.0,0.0,0.0,0.0,0.0,0.0,0.0,-5.5546,-5.5522,-5.5522,-5.5522,-5.5522,-5.5045,-5.483,-5.483,-5.4301,-5.4073,-5.41,-5.4205,0.0,-5.7941,-5.7262,0.0,0.0,0.0,0.0,0.0,0.0,0.0,0.0,0.0,0.0,0.0,0.0,0.0,0.0,0.0,0.0,0.0,0.0,0.0,0.0,0.0,-5.1241,-5.1123,-5.0952,-5.0913,-5.0841,-5.0702,-5.0712,-5.0712,-5.0712,-5.0712,-5.0663,-5.0603,-5.0553,-5.0489,-5.0382,-5.0325,-5.0302,-5.0302,-5.0302,-5.0302,-5.0321,-5.1125,-5.1473,-5.1511,-5.2009,0.0,0.0,0.0,0.0,0.0,0.0,0.0,0.0,0.0,0.0,0.0,0.0,0.0,0.0,0.0,0.0,0.0,0.0,0.0,0.0,0.0,0.0,0.0,0.0,0.0,0.0,0.0,0.0,0.0,0.0,0.0,0.0,0.0,0.0,0.0,0.0,0.0,0.0,0.0,-5.5418,-5.5418,-5.6067,-5.5553,-5.5213,0.0,0.0,0.0,0.0,0.0,0.0,0.0,0.0,0.0,-5.4118,-5.4118,-5.411,-5.4033,-5.4033,-5.4033,-5.4007,-5.378,-5.3727,-5.3762,-5.3504,-5.3422,-5.3513,-5.3567,-5.4303,-5.548,-5.5625,-5.5882,-5.6166,0.0,0.0,0.0,0.0,-5.5614,-5.5559,0.0,0.0,0.0,0.0,0.0,0.0,0.0,0.0,0.0,0.0,0.0,0.0,-5.1211,-5.1163,-5.1078,-5.0917,-5.0874,-5.081,-5.0721,-5.0712,-5.0712,-5.0712,-5.0712,-5.0643,-5.0521,-5.0489,-5.0424,-5.0302,-5.0302,-5.0302,-5.0302,-5.0302,-5.0302,-5.0302,-5.0302,-5.0302,-5.034,-5.099,-5.1276,-5.1334,0.0,0.0,0.0,0.0,0.0,0.0,0.0,0.0,0.0,0.0,0.0,0.0,0.0,0.0,0.0,0.0,0.0,0.0,0.0,0.0,0.0,0.0,0.0,0.0,0.0,0.0,0.0,0.0,0.0,0.0,0.0,0.0,0.0,0.0,0.0,0.0,0.0,-5.3947,-5.3789,-5.4442,-5.3974,-5.3651,0.0,0.0,0.0,0.0,0.0,0.0,-5.2794,-5.2794,-5.274,-5.2649,-5.2621,-5.2584,-5.2473,-5.2473,-5.2473,-5.2473,-5.2351,-5.2351,-5.2418,-5.2278,-5.226,-5.2355,-5.2383,-5.2411,-5.2484,-5.3673,-5.4307,-5.4501,-5.4504,-5.4642,-5.4871,-5.4802,-5.4773,-5.4722,0.0,0.0,0.0,0.0,0.0,0.0,0.0,0.0,0.0,0.0,0.0,-5.1357,-5.1211,-5.1079,-5.0979,-5.091,-5.0775,-5.0702,-5.0693,-5.0712,-5.0712,-5.0712,-5.0712,-5.0663,-5.0593,-5.0468,-5.0359,-5.0302,-5.0302,-5.0302,-5.0302,-5.0302,-5.0302,-5.0302,-5.0302,-5.0302,-5.0302,-5.0359,-5.0378,-5.0378,-5.0417,0.0,0.0,0.0,0.0,0.0,0.0,0.0,0.0,0.0,0.0,0.0,0.0,0.0,0.0,0.0,0.0,0.0,0.0,0.0,0.0,0.0,0.0,0.0,0.0,0.0,0.0,0.0,0.0,0.0,0.0,0.0,0.0,0.0,0.0,0.0,0.0,0.0,0.0,-5.3127,-5.2504,0.0,0.0,0.0,0.0,-5.1017,-5.091,-5.083,-5.083,-5.083,-5.083,-5.083,-5.083,-5.083,-5.083,-5.083,-5.083,-5.0803,-5.0302,-5.0051,-5.0051,-4.9466,-4.9226,-4.924,-4.9362,-4.9422,-4.9577,-5.1593,-5.2936,-5.3602,-5.2106,-5.2093,-5.2903,-5.2647,-5.2557,-5.2626,0.0,0.0,0.0,0.0,0.0,-5.1397,-5.1396,-5.1405,-5.1394,-5.1394,-5.1394,-5.1322,-5.1108,-5.1031,-5.0933,-5.0784,-5.0731,-5.0712,-5.0712,-5.0712,-5.0712,-5.0712,-5.0653,-5.0593,-5.0468,-5.0371,-5.0325,-5.0302,-5.0302,-5.0302,-5.0302,-5.0302,-5.0302,-5.0302,-5.0302,-5.0302,-5.0302,-5.0302,-5.0302,-5.0302,-5.0302,-5.0493,0.0,0.0,0.0,0.0,0.0,0.0,0.0,0.0,0.0,0.0,0.0,0.0,0.0,0.0,0.0,0.0,0.0,0.0,0.0,0.0,0.0,0.0,0.0,0.0,0.0,0.0,0.0,0.0,0.0,0.0,0.0,0.0,0.0,0.0,0.0,0.0,0.0,-5.1495,-5.1008,0.0,-5.0682,-5.0383,-5.0056,-4.9698,-4.9639,-4.961,-4.961,-4.961,-4.961,-4.961,-4.961,-4.961,-4.961,-4.961,-4.961,-4.961,-4.9406,-4.9303,-4.9303,-4.9077,-4.9001,-4.9001,-4.9063,-4.9063,-4.9141,-4.9872,-5.0708,-5.148,-5.1264,-5.1384,-5.1701,-5.1612,-5.1276,-5.0872,0.0,0.0,0.0,0.0,0.0,-5.1401,-5.1401,-5.1391,-5.14,-5.14,-5.1396,-5.1294,-5.1031,-5.1002,-5.0912,-5.0721,-5.0712,-5.0712,-5.0712,-5.0712,-5.0683,-5.0663,-5.0582,-5.0489,-5.0401,-5.0325,-5.0302,-5.0302,-5.0302,-5.0302,-5.0302,-5.0302,-5.0302,-5.0302,-5.0302,-5.0302,-5.0302,-5.0302,-5.0302,-5.0302,-5.0302,-5.0302,-5.0302,0.0,0.0,0.0,0.0,0.0,0.0,0.0,0.0,0.0,0.0,0.0,0.0,0.0,0.0,0.0,0.0,0.0,0.0,0.0,0.0,0.0,0.0,0.0,0.0,0.0,0.0,0.0,0.0,0.0,0.0,0.0,0.0,0.0,0.0,-4.9815,-4.9744,-5.0079,-4.9815,-4.9585,-4.9585,-4.9585,-4.9424,-4.9032,-4.9001,-4.9001,-4.9001,-4.9001,-4.9001,-4.9001,-4.9001,-4.9001,-4.9001,-4.9001,-4.9001,-4.9001,-4.9001,-4.9001,-4.9001,-4.9001,-4.9001,-4.9001,-4.9001,-4.9001,-4.9001,-4.9001,-4.9346,-4.9913,-5.0286,-5.035,-5.0204,-5.0391,-5.0004,-4.9378,0.0,0.0,0.0,0.0,0.0,-5.1405,-5.1405,-5.1398,-5.1409,-5.1409,-5.1402,-5.1294,-5.1031,-5.1002,-5.0912,-5.0721,-5.0712,-5.0712,-5.0712,-5.0712,-5.0663,-5.0603,-5.0468,-5.0401,-5.0401,-5.0325,-5.0302,-5.0302,-5.0302,-5.0302,-5.0302,-5.0302,-5.0302,-5.0302,-5.0302,-5.0302,-5.0302,-5.0302,-5.0302,-5.0302,-5.0302,-5.0302,-5.0302,0.0,0.0,0.0,0.0,0.0,0.0,0.0,0.0,0.0,0.0,0.0,0.0,0.0,0.0,0.0,0.0,0.0,0.0,0.0,0.0,0.0,0.0,0.0,0.0,0.0,0.0,0.0,0.0,0.0,0.0,0.0,0.0,0.0,-4.9001,-4.9001,-4.9001,-4.9001,-4.9001,-4.9001,-4.9001,-4.9001,-4.9001,-4.9001,-4.9001,-4.9018,-4.9035,-4.9035,-4.9052,-4.9069,-4.9069,-4.9069,-4.9035,-4.9035,-4.9018,-4.9001,-4.9001,-4.9001,-4.9001,-4.9001,-4.9001,-4.9001,-4.9001,-4.9001,-4.9001,-4.9001,-4.9001,-4.9001,-4.9138,-4.8865,-4.8499,-4.8993,-4.8675,-4.8032,0.0,0.0,0.0,-5.1406,-5.1406,-5.1405,-5.1405,-5.1398,-5.1409,-5.1409,-5.1402,-5.1294,-5.1031,-5.1002,-5.0912,-5.0721,-5.0712,-5.0712,-5.0712,-5.0712,-5.0643,-5.0532,-5.0446,-5.039,-5.0325,-5.0314,-5.0302,-5.0302,-5.0302,-5.0302,-5.0302,-5.0302,-5.0302,-5.0302,-5.0302,-5.0302,-5.0302,-5.0302,-5.0302,-5.0302,-5.0302,-5.0302,-5.0302,0.0,0.0,0.0,0.0,0.0,0.0,0.0,0.0,0.0,0.0,0.0,0.0,0.0,0.0,0.0,0.0,0.0,0.0,0.0,0.0,0.0,0.0,0.0,0.0,0.0,0.0,0.0,0.0,0.0,0.0,0.0,-4.9001,-4.9001,-4.9001,-4.9001,-4.9001,-4.9001,-4.9001,-4.9001,-4.9001,-4.9001,-4.9001,-4.9001,-4.9001,-4.9238,-4.9763,-4.9796,-5.0033,-5.0591,-5.0608,-5.0355,-4.9796,-4.9796,-4.9526,-4.9001,-4.9001,-4.9001,-4.9001,-4.9001,-4.9001,-4.9001,-4.9001,-4.9001,-4.9001,-4.9001,-4.9001,-4.9001,-4.9032,-4.8975,-4.8782,-4.8401,-4.7437,-4.6316,0.0,0.0,0.0,-5.1406,-5.1406,-5.1406,-5.1406,-5.1402,-5.1397,-5.1394,-5.1407,-5.1302,-5.1031,-5.1002,-5.0912,-5.0721,-5.0712,-5.0712,-5.0712,-5.0643,-5.0573,-5.0511,-5.0412,-5.0337,-5.0302,-5.0302,-5.0302,-5.0302,-5.0302,-5.0302,-5.0302,-5.0302,-5.0302,-5.0302,-5.0302,-5.0302,-5.0302,-5.0302,-5.0302,-5.0302,-5.0302,-5.0302,-5.0302,-5.0302,-5.0302,-5.0302,-5.0302,-4.987,-4.9299,-4.9299,0.0,0.0,0.0,0.0,0.0,0.0,0.0,0.0,0.0,0.0,0.0,0.0,0.0,0.0,0.0,0.0,0.0,0.0,0.0,0.0,0.0,0.0,0.0,0.0,-4.9001,-4.9001,-4.9001,-4.9001,-4.9001,-4.9001,-4.9001,-4.9001,-4.9001,-4.9272,-4.9458,-4.9458,-4.9746,-5.0118,-5.0541,-5.0557,-5.076,-5.12,-5.1185,-5.0997,-5.0557,-5.0253,-4.9864,-4.9458,-4.9154,-4.9001,-4.9001,-4.9001,-4.9001,-4.9001,-4.9001,-4.9001,-4.9001,-4.9001,-4.9001,-4.9001,0.0,0.0,0.0,0.0,-4.6244,-4.5207,0.0,0.0,0.0,-5.1406,-5.1406,-5.1406,-5.1406,-5.1406,-5.1404,-5.1399,-5.1394,-5.1294,-5.1036,-5.1014,-5.0933,-5.0731,-5.0712,-5.0712,-5.0693,-5.0573,-5.0511,-5.05,-5.0371,-5.0302,-5.0302,-5.0302,-5.0302,-5.0302,-5.0302,-5.0302,-5.0302,-5.0302,-5.0302,-5.0302,-5.0302,-5.0302,-5.0302,-5.0302,-5.0302,-5.0302,-5.0302,-5.0302,-5.0302,-5.0302,-5.0302,-5.0302,-5.0302,-4.987,-4.9299,-4.9299,0.0,0.0,0.0,0.0,0.0,0.0,0.0,0.0,0.0,0.0,0.0,0.0,0.0,0.0,0.0,0.0,0.0,0.0,0.0,0.0,0.0,0.0,0.0,0.0,-4.9001,-4.9001,-4.9001,-4.9001,-4.9001,-4.9001,-4.9069,-4.912,-4.912,-4.9779,-5.0219,-5.0219,-5.0828,-5.1251,-5.1303,-5.1303,0.0,0.0,0.0,-5.1437,-5.1303,-5.0676,-5.0253,-5.0084,-4.9441,-4.9086,-4.9001,-4.9001,-4.9001,-4.9001,-4.9001,-4.9001,-4.9001,-4.9001,-4.9001,-4.9001,-4.9001,-4.8511,-4.7601,-4.6312,-4.5297,-4.4615,0.0,0.0,0.0,-5.1406,-5.1406,-5.1406,-5.1406,-5.1406,-5.1404,-5.1399,-5.1394,-5.1294,-5.1036,-5.1108,-5.1033,-5.074,-5.0801,-5.0819,-5.0702,-5.0623,-5.0562,-5.05,-5.0416,-5.0367,-5.0302,-5.0302,-5.0302,-5.0302,-5.0302,-5.0302,-5.0302,-5.0302,-5.0302,-5.0302,-5.0302,-5.0302,-5.0302,-5.0302,-5.0302,-5.0302,-5.0302,-5.0302,-5.0302,-5.0302,-5.0302,-5.0302,-5.0302,-4.987,-4.9299,-4.9299,-4.8847,-4.8323,-4.841,-4.8784,0.0,0.0,0.0,0.0,0.0,0.0,0.0,0.0,0.0,0.0,0.0,0.0,0.0,0.0,0.0,0.0,0.0,0.0,0.0,-4.9001,-4.9001,-4.9001,-4.9001,-4.9001,-4.9001,-4.9001,-4.9526,-4.9881,-4.9881,-5.0557,-5.0997,-5.0997,-5.1133,-5.1471,-5.2063,-5.2097,-5.2384,-5.3044,-5.3061,-5.2756,-5.2097,-5.1944,-5.1285,-5.0084,-4.9949,0.0,-4.9001,-4.9001,-4.9001,-4.9001,-4.9001,-4.9001,-4.9001,-4.9001,-4.9001,-4.9001,-4.9001,-4.8189,-4.6972,-4.6684,-4.572,-4.4615,0.0,0.0,0.0,-5.1406,-5.1406,-5.1406,-5.1406,-5.1406,-5.1405,-5.1402,-5.1398,-5.1312,-5.1111,-5.1163,-5.1103,-5.0879,-5.0875,-5.0841,-5.0702,-5.0633,-5.0593,-5.0542,-5.0489,-5.0424,-5.0348,-5.0348,-5.0325,-5.0302,-5.0302,-5.0302,-5.0302,-5.0302,-5.0302,-5.0302,-5.0302,-5.0302,-5.0302,-5.0302,-5.0302,-5.0302,-5.0302,-5.0302,-5.0302,-5.0302,-5.0302,-5.0302,-5.0302,-4.987,-4.9299,-4.9299,-4.8847,-4.8287,-4.8226,-4.8364,-4.8664,0.0,0.0,0.0,0.0,0.0,0.0,0.0,0.0,0.0,0.0,0.0,0.0,0.0,0.0,-4.9001,-4.9001,0.0,-4.9001,-4.9001,-4.9001,-4.9001,-4.9001,-4.9323,-4.9543,-4.9543,-4.9864,-5.0236,-5.0608,-5.1319,-5.1758,-5.1758,-5.2131,-5.252,-5.2892,-5.2909,-5.3078,-5.3501,-5.3501,-5.3315,-5.2909,-5.2503,-5.1742,-5.0659,-5.027,-4.9712,-4.9001,-4.9001,-4.9001,-4.9001,-4.9001,-4.9001,-4.9001,-4.9001,-4.9001,-4.9001,-4.9001,-4.8105,-4.6786,-4.6786,-4.5855,-4.4615,0.0,0.0,0.0,-5.1406,-5.1406,-5.1406,-5.1406,-5.1406,-5.1406,-5.1405,-5.1402,-5.1348,-5.1206,-5.1213,-5.1176,-5.1053,-5.0958,-5.0858,-5.074,-5.0663,-5.0613,-5.0603,-5.0542,-5.0489,-5.0424,-5.0412,-5.0359,-5.0314,-5.0302,-5.0302,-5.0302,-5.0302,-5.0302,-5.0302,-5.0302,-5.0302,-5.0302,-5.0302,-5.0302,-5.0302,-5.0302,-5.0302,-5.0302,-5.0302,-5.0302,-5.0302,-5.0302,-4.987,-4.9299,-4.9299,-4.8847,-4.8287,-4.8226,-4.811,-4.8099,-4.8707,-4.8343,0.0,0.0,0.0,0.0,0.0,0.0,0.0,0.0,-4.89,-4.9001,-4.9001,-4.9001,-4.9001,-4.9001,-4.9001,-4.9001,-4.9001,-4.9001,-4.9052,-4.9187,-4.9729,-5.0202,-5.0473,-5.0524,-5.076,-5.1369,-5.2097,-5.2536,-5.2536,-5.3129,-5.3501,-5.3501,-5.3501,-5.3501,-5.3501,-5.3501,-5.3501,-5.3501,-5.2858,-5.2097,-5.1185,-5.0608,-4.9847,-4.9001,-4.9001,-4.9001,-4.9001,-4.9001,-4.9001,-4.9001,-4.9001,-4.9001,-4.9001,-4.9001,-4.8105,-4.6786,-4.6786,-4.5855,-4.4615,0.0,0.0,0.0,0.0,0.0,-5.1406,-5.1406,-5.1406,-5.1406,-5.1405,-5.1404,-5.1355,-5.1206,-5.1301,-5.1321,-5.1195,-5.1017,-5.0887,-5.0882,-5.0767,-5.0653,-5.0603,-5.0593,-5.0562,-5.0489,-5.0435,-5.0401,-5.039,-5.0325,-5.0302,-5.0302,-5.0302,-5.0302,-5.0302,-5.0302,-5.0302,-5.0302,-5.0302,-5.0302,-5.0302,-5.0302,-5.0302,-5.0302,-5.0302,-5.0302,-5.0302,-5.0302,-4.987,-4.9299,-4.9299,-4.8847,-4.8287,-4.8226,-4.811,-4.799,-4.8031,-4.7555,-4.7078,-4.7294,-4.7133,-4.6891,-4.6933,-4.7479,-4.8007,0.0,-4.8545,-4.9001,-4.9001,-4.9001,-4.9001,-4.9001,-4.9001,-4.9001,-4.9001,-4.9001,-4.9221,-4.9864,-5.0033,-5.0574,-5.1894,-5.2046,-5.2097,-5.2181,-5.2909,-5.3365,-5.3365,-5.345,-5.3501,-5.3501,-5.3501,-5.3501,-5.3501,-5.3501,-5.3501,-5.3501,-5.3416,-5.2655,-5.1185,-5.1133,-5.0355,-4.9001,-4.9001,-4.9001,-4.9001,-4.9001,-4.9001,-4.9001,-4.9001,-4.9001,-4.9001,-4.9001,-4.8105,-4.6786,-4.6786,-4.5855,-4.4615,0.0,0.0,0.0,0.0,0.0,-5.1406,-5.1406,-5.1406,-5.1406,-5.1406,-5.1405,-5.1382,-5.1327,-5.1367,-5.1351,-5.1211,-5.105,-5.0951,-5.0902,-5.0766,-5.0702,-5.0653,-5.0653,-5.0623,-5.0572,-5.0521,-5.0489,-5.0457,-5.0416,-5.0412,-5.0367,-5.0367,-5.0337,-5.0302,-5.0302,-5.0302,-5.0302,-5.0302,-5.0302,-5.0302,-5.0302,-5.0302,-5.0302,-5.0302,-5.0302,-5.0259,-5.0076,-4.9702,0.0,-4.908,-4.8693,-4.8287,-4.8267,-4.8189,-4.811,-4.8087,-4.7809,-4.7407,-4.6825,-4.6408,-4.616,-4.616,-4.7056,-4.7889,-4.7889,-4.8477,-4.9001,-4.9001,-4.9001,-4.9001,-4.9001,-4.9001,-4.9001,-4.9001,-4.9001,-4.9255,-4.9982,-5.0473,-5.1133,-5.2181,-5.2706,-5.301,-5.301,-5.3298,-5.3501,-5.3501,-5.3501,-5.3501,-5.3501,-5.3501,-5.3501,-5.3501,-5.3501,-5.3501,-5.3501,-5.3501,-5.2739,-5.1185,-5.1185,-5.0439,-4.9001,-4.9001,-4.9001,-4.9001,-4.9001,-4.9001,-4.9001,-4.9001,-4.9001,-4.9001,-4.9001,-4.8105,-4.6786,-4.6786,-4.5855,-4.4615,0.0,0.0,0.0,0.0,0.0,-5.1406,-5.1406,-5.1406,-5.1406,-5.1406,-5.1406,-5.1405,-5.1404,-5.1396,-5.1355,-5.1258,-5.1137,-5.1022,-5.093,-5.0816,-5.075,-5.0693,-5.0712,-5.0692,-5.0623,-5.0603,-5.0582,-5.0521,-5.0511,-5.0478,-5.0435,-5.0412,-5.0359,-5.0325,-5.0302,-5.0302,-5.0302,-5.0302,-5.0302,-5.0302,-5.0302,-5.0302,-5.0302,-5.0302,-5.0302,-5.0267,-4.9929,-4.9584,-4.9237,-4.8917,-4.8568,-4.8306,-4.8306,-4.8247,-4.8187,-4.8187,-4.7872,-4.7313,-4.6341,-4.5751,-4.5449,-4.5652,-4.6667,-4.7665,-4.7838,-4.8477,-4.9001,-4.9001,-4.9001,-4.9001,-4.9001,-4.9001,-4.9001,-4.9001,-4.9001,-4.934,-5.027,-5.0879,-5.1572,-5.252,-5.3145,-5.3501,-5.3501,-5.3501,-5.3501,-5.3501,-5.3501,-5.3501,-5.3501,-5.3501,-5.3501,-5.3501,-5.3501,-5.3501,-5.3501,-5.3281,-5.252,-5.1185,-5.0997,-5.0236,-4.9001,-4.9001,-4.9001,-4.9001,-4.9001,-4.9001,-4.9001,-4.9001,-4.9001,-4.9001,-4.9001,-4.8105,-4.6786,-4.6786,-4.5855,-4.4615,0.0,0.0,0.0,0.0,0.0,-5.1406,-5.1406,-5.1406,-5.1406,-5.1406,-5.1406,-5.1406,-5.1399,-5.1394,-5.1405,-5.1394,-5.1262,-5.1137,-5.1008,-5.093,-5.0852,-5.0721,-5.0712,-5.0712,-5.0702,-5.0633,-5.0603,-5.0593,-5.0532,-5.05,-5.05,-5.0435,-5.0401,-5.0401,-5.0325,-5.0302,-5.0302,-5.0302,-5.0302,-5.0302,-5.0302,-5.0302,-5.0302,-5.0302,-5.0302,-5.0267,-4.9929,-4.9584,-4.9237,-4.8917,-4.8568,-4.8306,-4.8306,-4.8247,-4.8187,-4.8187,-4.7313,-4.622,-4.5673,-4.5079,-4.4818,-4.5517,-4.6261,-4.7022,-4.772,-4.8477,-4.9001,-4.9001,-4.9001,-4.9001,-4.9001,-4.9001,-4.9001,-4.9001,-4.9001,-4.9509,-5.0948,-5.12,-5.1775,-5.3281,-5.3501,-5.3501,-5.3501,-5.3501,-5.3501,-5.3501,-5.3501,-5.3501,-5.3501,-5.3501,-5.3501,-5.3501,-5.3501,-5.3501,-5.3501,-5.2739,-5.1961,-5.12,-5.0473,-4.9729,-4.9001,-4.9001,-4.9001,-4.9001,-4.9001,-4.9001,-4.9001,-4.9001,-4.9001,-4.9001,-4.9001,-4.8105,-4.6786,-4.6786,-4.5855,-4.4615,0.0,0.0,0.0,0.0,0.0,0.0,-5.1406,-5.1406,-5.1406,-5.1406,-5.1406,0.0,0.0,0.0,0.0,0.0,-5.1271,-5.1191,-5.1137,-5.1033,-5.0937,-5.0833,-5.0825,-5.0784,-5.0693,-5.0692,-5.0682,-5.0682,-5.0643,-5.0613,-5.0572,-5.0532,-5.0478,-5.0401,-5.039,-5.0337,-5.0302,-5.0337,-5.0337,-5.0302,-5.0337,-5.0337,-5.0302,-5.0302,-5.0325,-5.0325,0.0,-4.9613,-4.9237,-4.8917,-4.8568,-4.8306,-4.8306,-4.8287,-4.8267,-4.8267,-4.7363,-4.6329,-4.6161,-4.5709,-4.5382,-4.5652,-4.6633,-4.7597,-4.7821,-4.8477,-4.9001,-4.9001,-4.9001,-4.9001,-4.9001,-4.9001,-4.9001,-4.9001,-4.9407,-5.0067,-5.1065,-5.164,-5.2334,-5.3382,-5.3501,-5.3501,-5.3501,-5.3501,-5.3501,-5.3501,-5.3501,-5.3501,-5.3501,-5.3501,-5.3501,-5.3501,-5.3501,-5.3501,-5.3501,-5.2706,-5.1944,-5.12,-4.9965,-4.9238,-4.9001,-4.9001,-4.9001,-4.9001,-4.9001,-4.9001,-4.9001,-4.9001,-4.9001,-4.9001,-4.9001,-4.8409,-4.7479,-4.6972,-4.6177,-4.5263,0.0,0.0,0.0,0.0,0.0,0.0,0.0,0.0,0.0,0.0,0.0,0.0,0.0,0.0,0.0,0.0,0.0,-5.1252,-5.1206,-5.1126,-5.1036,-5.0945,-5.0944,-5.0905,-5.0814,-5.0814,-5.0814,-5.0814,-5.0773,-5.0739,-5.0702,-5.0624,-5.0542,-5.0468,-5.0446,-5.0424,-5.0371,-5.0424,-5.0424,-5.0371,-5.0424,-5.0424,-5.0371,-5.0371,-5.0412,0.0,-5.0186,-4.9865,-4.9479,-4.8999,-4.8676,-4.8458,-4.8344,-4.8306,-4.8267,-4.8113,-4.7281,-4.6412,-4.6526,-4.6132,-4.5838,-4.6363,-4.7179,-4.7956,-4.824,-4.8663,-4.9001,-4.9001,-4.9001,-4.9001,-4.9001,-4.9001,-4.9001,-4.9001,-4.961,-5.0355,-5.1116,-5.1843,-5.2604,-5.3399,-5.3501,-5.3501,-5.3501,-5.3501,-5.3501,-5.3501,-5.3501,-5.3501,-5.3501,-5.3501,-5.3501,-5.3501,-5.3501,-5.3501,-5.3501,-5.2452,-5.1403,-5.0405,-4.9458,-4.9001,-4.9001,-4.9001,-4.9001,-4.9001,-4.9001,-4.9001,-4.9001,-4.9001,-4.9001,-4.9001,-4.9001,-4.8562,-4.7804,-4.7073,-4.6329,-4.5602,0.0,0.0,0.0,0.0,0.0,0.0,0.0,0.0,0.0,0.0,0.0,0.0,0.0,0.0,0.0,0.0,0.0,0.0,-5.1227,-5.121,-5.1148,-5.101,-5.1017,-5.1014,-5.1008,-5.1008,-5.1008,-5.1002,-5.0937,-5.091,-5.0902,-5.0711,-5.0623,-5.0613,-5.0532,-5.0511,-5.05,-5.0511,-5.0511,-5.05,-5.0511,-5.05,-5.05,-5.05,-5.05,-5.0511,-5.0511,-5.031,-4.9911,-4.9171,-4.8864,-4.8711,-4.8402,-4.8306,-4.821,-4.7775,-4.7066,-4.6512,-4.6784,-4.6347,-4.6138,-4.7564,-4.7922,-4.8125,-4.8849,-4.9001,-4.9001,-4.9001,-4.9001,-4.9001,-4.9001,-4.9001,-4.9001,-4.9001,-4.961,-5.0355,-5.1116,-5.1843,-5.2604,-5.3399,-5.3501,-5.3501,-5.3501,-5.3501,-5.3501,-5.3501,-5.3501,-5.3501,-5.3501,-5.3501,-5.3501,-5.3501,-5.3501,-5.3484,-5.345,-5.1928,-5.0439,-4.9001,-4.9001,-4.9001,-4.9001,-4.9001,-4.9001,-4.9001,-4.9001,-4.9001,-4.9001,-4.9001,-4.9001,-4.9001,-4.9001,-4.8578,-4.7838,-4.709,-4.6363,-4.5652,0.0,0.0,0.0,0.0,0.0,0.0,0.0,0.0,0.0,0.0,0.0,0.0,0.0,0.0,0.0,0.0,0.0,0.0,-5.1349,-5.1348,-5.1288,-5.1151,-5.114,-5.1101,-5.1003,-5.1003,-5.0992,-5.1002,-5.0972,-5.0979,-5.0972,-5.0875,-5.0808,-5.0745,-5.0634,-5.0562,-5.0511,-5.0542,-5.0562,-5.0511,-5.0542,-5.0542,-5.05,-5.05,-5.0532,-5.0563,-5.0563,-5.0521,-5.0333,-4.9551,-4.8898,-4.842,-4.8325,-4.8306,-4.8287,-4.8152,-4.7656,-4.7178,-4.7331,-4.7317,-4.7294,-4.7785,-4.8294,-4.8781,-4.8968,-4.9001,-4.9001,-4.9001,-4.9001,-4.9001,-4.9001,-4.9001,-4.9001,-4.9001,-4.961,-5.0355,-5.1116,-5.1843,-5.2604,-5.3399,-5.3501,-5.3501,-5.3501,-5.3501,-5.3501,-5.3501,-5.3501,-5.3501,-5.3501,-5.3501,-5.3501,-5.3501,-5.3501,-5.3213,-5.2604,-5.1133,-4.9915,-4.9001,-4.9001,-4.9001,-4.9001,-4.9001,-4.9001,-4.9001,-4.9001,-4.9001,-4.9001,-4.9001,-4.9001,-4.9001,-4.9001,-4.89,-4.8562,-4.7259,-4.6667,-4.6329,0.0,0.0,0.0,0.0,0.0,0.0,0.0,0.0,0.0,0.0,0.0,0.0,0.0,0.0,0.0,0.0,0.0,0.0,0.0,-5.1402,-5.1377,-5.1281,-5.1291,-5.1249,-5.1183,-5.1172,-5.118,-5.1187,-5.1123,-5.1084,-5.1098,-5.0998,-5.0908,-5.0847,-5.0764,-5.0673,-5.0584,-5.0623,-5.0623,0.0,0.0,-5.0623,-5.0593,-5.0593,-5.0613,-5.0643,-5.0643,-5.0418,-5.005,-4.9594,-4.8913,-4.8306,-4.8306,-4.8306,-4.8267,-4.8055,-4.797,-4.7935,-4.7879,-4.8024,-4.8262,-4.8443,-4.8728,-4.9001,-4.9001,-4.9001,-4.9001,-4.9001,-4.9001,-4.9001,-4.9001,-4.9001,-4.9001,-4.9001,-4.961,-5.0355,-5.1116,-5.1843,-5.2604,0.0,-5.3501,0.0,-5.3501,-5.3501,-5.3501,-5.3501,-5.3501,-5.3501,-5.3501,-5.3501,-5.3501,-5.3501,-5.3501,-5.2959,-5.1843,-5.0676,-4.9729,-4.9001,-4.9001,-4.9001,-4.9001,-4.9001,-4.9001,-4.9001,-4.9001,-4.9001,-4.9001,-4.9001,-4.9001,-4.9001,-4.9001,-4.9001,-4.8866,-4.7716,-4.7073,-4.6633,0.0,0.0,0.0,0.0,0.0,0.0,0.0,0.0,0.0,0.0,-5.1406,-5.1406,0.0,0.0,0.0,0.0,0.0,0.0,0.0,0.0,-5.1405,-5.1405,-5.1397,-5.139,-5.1409,-5.1402,-5.1396,-5.1394,-5.1288,-5.1238,-5.1214,-5.1069,-5.0966,-5.0905,-5.0898,-5.081,-5.0712,-5.0712,-5.0712,-5.0712,-5.0712,-5.0712,-5.0712,0.0,-5.0712,-5.0712,-5.0712,-5.0225,-4.9561,-4.9518,-4.8982,-4.8306,-4.8306,-4.8306,-4.8229,-4.7943,-4.8285,-4.8704,-4.8574,-4.8863,-4.9184,-4.932,-4.9243,-4.9107,-4.9032,-4.9001,-4.9001,-4.9001,-4.9001,-4.9001,-4.9001,-4.9001,-4.9001,-4.9001,-4.9543,-5.0253,-5.1067,-5.1758,-5.2486,-5.3399,-5.3501,-5.3501,-5.3501,-5.3501,-5.3501,-5.3501,-5.3501,-5.3501,-5.3501,-5.3501,-5.345,-5.3348,-5.3264,-5.252,-5.1082,-5.0321,-4.9627,-4.9001,-4.9001,-4.9001,-4.9001,-4.9001,-4.9001,-4.9001,-4.9001,-4.9001,-4.9001,-4.9001,-4.9001,-4.9001,-4.9001,-4.9001,-4.8917,-4.8159,-4.7513,-4.6819,0.0,0.0,0.0,0.0,0.0,0.0,0.0,0.0,0.0,0.0,-5.1406,-5.1406,0.0,0.0,0.0,0.0,0.0,0.0,0.0,0.0,0.0,-5.1405,-5.14,-5.1395,-5.1409,-5.1408,-5.1403,-5.1394,-5.1386,-5.1362,-5.136,-5.1103,-5.099,-5.0985,-5.0805,-5.0721,-5.0712,-5.0712,-5.0712,-5.0712,-5.0712,-5.0712,-5.0712,-5.0712,0.0,0.0,-5.0712,-5.0399,-4.9949,-4.9603,-4.8982,-4.8306,-4.8306,-4.8306,-4.8434,-4.9072,-4.9345,-4.9567,-5.0248,-5.0492,-5.047,-5.0178,-4.9982,-4.9722,-4.9273,-4.9094,-4.9001,-4.9001,-4.9001,-4.9001,-4.9001,-4.9001,-4.9001,-4.9001,-4.912,-4.9661,-5.0999,-5.1319,-5.1928,0.0,-5.3501,-5.3501,-5.3501,-5.3501,-5.3501,-5.3501,-5.3501,-5.3501,-5.3501,-5.3501,-5.3196,-5.2536,-5.1928,-5.1183,-5.0287,-4.956,-4.9137,-4.9001,-4.9001,-4.9001,-4.9001,-4.9001,-4.9001,-4.9001,-4.9001,-4.9001,-4.9001,-4.9001,-4.9001,-4.9001,-4.9001,-4.9001,-4.8917,-4.8159,-4.7804,-4.753,0.0,0.0,0.0,0.0,0.0,0.0,0.0,-5.1406,-5.1406,-5.1406,-5.1406,-5.1406,-5.1406,-5.1406,-5.1406,0.0,0.0,0.0,0.0,0.0,0.0,0.0,0.0,0.0,-5.1409,-5.1405,-5.14,-5.1394,0.0,-5.1362,-5.1294,-5.1159,-5.105,-5.0939,-5.0839,-5.0767,-5.0712,-5.0712,-5.0712,-5.0712,-5.0712,-5.0712,-5.0712,0.0,0.0,0.0,0.0,-5.0432,-5.0043,-4.9673,-4.9139,-4.8568,-4.8364,-4.8306,-4.8471,-4.9353,-4.9904,-5.0352,-5.0913,-5.1288,-5.1395,-5.0937,-5.0407,-4.9965,-4.9797,0.0,0.0,-4.9107,-4.9107,-4.9077,-4.9001,-4.9001,-4.9001,-4.9001,-4.9001,-4.939,-5.0473,-5.098,-5.164,-5.2739,-5.3247,-5.3501,-5.3501,-5.3501,-5.3501,-5.3501,-5.3501,-5.3501,-5.3501,-5.3501,-5.3129,-5.2334,-5.1589,-5.0862,-5.0101,-4.9373,-4.9001,-4.9001,-4.9001,-4.9001,-4.9001,-4.9001,-4.9001,-4.9001,-4.9001,-4.9001,-4.9001,-4.9001,-4.9001,-4.9001,-4.9001,-4.9001,-4.8968,-4.8612,-4.824,-4.7736,0.0,0.0,0.0,0.0,0.0,0.0,-5.1406,-5.1406,-5.1406,-5.1406,-5.1406,-5.1406,-5.1406,-5.1406,-5.1406,0.0,0.0,0.0,0.0,0.0,0.0,0.0,0.0,0.0,0.0,0.0,0.0,-5.1394,-5.1364,0.0,0.0,0.0,0.0,0.0,-5.0874,-5.0801,-5.0712,-5.0712,-5.0712,0.0,0.0,-5.0712,0.0,0.0,0.0,0.0,0.0,-5.0493,-5.0171,-4.9821,-4.9544,-4.9258,-4.8863,-4.853,-4.8545,-4.9776,-5.0435,-5.0922,-5.1475,-5.1951,-5.2201,-5.1679,-5.092,-5.0324,-5.048,-4.9873,-4.929,-4.9406,-4.9303,-4.9168,-4.9063,-4.9032,-4.9001,-4.9001,-4.9001,-4.9255,-4.9982,-5.0727,-5.1488,-5.2215,-5.301,0.0,-5.3501,-5.3501,-5.3501,-5.3501,-5.3501,-5.3501,-5.3501,-5.3348,-5.2892,-5.2097,-5.1352,-5.0608,-4.9864,-4.9289,-4.9001,-4.9001,-4.9001,-4.9001,-4.9001,-4.9001,-4.9001,-4.9001,-4.9001,-4.9001,-4.9001,-4.9001,-4.9001,-4.9001,-4.9001,-4.9001,-4.9001,-4.9001,-4.8646,-4.8037,0.0,0.0,0.0,0.0,0.0,0.0,-5.1406,-5.1406,-5.1406,-5.1406,-5.1406,-5.1406,-5.1406,-5.1406,-5.1406,0.0,0.0,0.0,0.0,0.0,0.0,0.0,0.0,0.0,0.0,0.0,0.0,-5.1394,-5.1284,0.0,0.0,0.0,0.0,0.0,0.0,-5.0712,-5.0712,-5.0712,0.0,0.0,0.0,0.0,0.0,0.0,0.0,0.0,0.0,-5.0673,-5.0575,-5.0183,-5.0358,-5.0658,-5.0254,-4.9269,-4.8765,-5.1077,-5.1316,-5.1112,-5.2611,-5.3048,-5.2977,-5.2431,-5.1746,-5.1181,-5.1207,0.0,-4.9602,-5.0113,-4.9686,-4.9199,-4.9199,-4.9094,-4.9001,-4.9001,-4.9001,-4.9255,-4.9982,-5.0727,-5.1488,-5.2215,0.0,0.0,-5.3501,-5.3501,-5.3501,-5.3501,-5.3501,-5.3501,-5.3501,-5.2807,-5.208,-5.1303,-5.0591,-4.9847,-4.912,-4.9035,-4.9001,-4.9001,-4.9001,-4.9001,-4.9001,-4.9001,-4.9001,-4.9001,-4.9001,-4.9001,-4.9001,-4.9001,-4.9001,-4.9001,-4.9001,-4.9001,-4.9001,-4.9001,-4.8968,-4.8798,0.0,0.0,0.0,0.0,0.0,0.0,-5.2969,-5.2519,-5.2187,-5.2187,-5.1738,-5.1406,-5.1406,-5.1406,-5.1406,-5.1406,-5.1406,0.0,0.0,0.0,0.0,0.0,0.0,0.0,0.0,0.0,-5.1362,-5.1288,-5.1238,0.0,0.0,0.0,0.0,0.0,0.0,-5.0712,-5.0712,-5.0712,0.0,0.0,0.0,0.0,0.0,0.0,0.0,0.0,0.0,0.0,-5.0634,-5.0283,-5.0133,0.0,-5.0874,-5.0245,0.0,0.0,-5.1799,-5.1775,-5.2894,-5.3185,-5.3143,-5.2934,-5.233,-5.1808,-5.1934,0.0,-5.0142,-5.0377,-4.993,-4.9441,-4.9229,-4.9168,-4.9077,-4.9001,-4.9001,0.0,-4.9407,-5.0473,-5.1319,-5.1606,-5.2756,-5.3501,0.0,-5.3501,-5.3501,-5.3501,-5.3501,-5.3298,-5.2807,-5.2469,-5.1961,-5.1202,-5.0473,-4.9746,-4.9018,-4.9001,-4.9001,-4.9001,-4.9001,-4.9001,-4.9001,-4.9001,-4.9001,-4.9001,-4.9001,-4.9001,-4.9001,-4.9001,-4.9001,-4.9001,-4.9001,-4.9001,-4.9001,-4.9001,-4.9001,-4.89,0.0,0.0,0.0,0.0,0.0,-5.4004,-5.4004,-5.3476,-5.3086,-5.3086,-5.2558,-5.2168,-5.2168,-5.2168,-5.207,-5.1816,-5.1543,0.0,0.0,0.0,0.0,0.0,0.0,0.0,0.0,0.0,-5.1294,-5.1203,-5.1147,-5.1035,0.0,0.0,-5.0784,-5.0712,0.0,0.0,0.0,0.0,0.0,0.0,0.0,0.0,0.0,0.0,0.0,0.0,0.0,0.0,0.0,0.0,0.0,0.0,0.0,0.0,0.0,0.0,-5.2247,-5.2201,-5.2986,-5.3185,-5.3185,-5.3185,-5.2702,-5.2284,-5.2568,0.0,-5.0642,-5.0786,-5.0187,-4.956,-4.932,-4.9199,-4.9107,-4.9001,0.0,-4.9001,-4.9001,-5.0084,-5.0963,-5.1183,0.0,-5.3247,-5.3484,-5.3501,-5.3501,-5.3501,-5.3281,-5.2909,-5.2334,-5.1894,-5.142,-5.0896,-5.0152,-4.9526,-4.9018,-4.9001,-4.9001,-4.9001,-4.9001,-4.9001,-4.9001,-4.9001,-4.9001,-4.9001,-4.9001,-4.9001,-4.9001,-4.9001,-4.9001,-4.9001,-4.9001,-4.9001,-4.9001,-4.9001,-4.9001,-4.8934,0.0,0.0,0.0,0.0,0.0,-5.4004,-5.4004,-5.3984,-5.3984,-5.3984,-5.3984,-5.3965,-5.3965,-5.3965,-5.3633,-5.2754,-5.1894,0.0,0.0,0.0,0.0,0.0,0.0,0.0,0.0,0.0,-5.1203,-5.1203,-5.1005,-5.0894,-5.0887,-5.0767,-5.0693,-5.0712,0.0,0.0,0.0,0.0,0.0,0.0,0.0,0.0,-5.0712,0.0,0.0,0.0,0.0,0.0,0.0,0.0,0.0,0.0,0.0,-5.1861,-5.2915,0.0,-5.271,-5.2248,-5.3007,-5.3185,-5.3185,-5.3185,-5.2783,-5.254,-5.306,-5.1964,-5.0964,-5.1493,-5.0467,-4.9518,-4.9518,-4.9216,-4.9001,-4.9001,-4.9001,0.0,-4.9001,-4.9644,-5.0371,0.0,-5.186,-5.2638,-5.3416,-5.3501,-5.3501,-5.3501,-5.2756,-5.2317,-5.23,-5.0913,-5.0101,-5.0101,-4.9407,-4.9018,-4.9001,-4.9001,-4.9001,-4.9001,-4.9001,-4.9001,-4.9001,-4.9001,-4.9001,-4.9001,-4.9001,-4.9001,-4.9001,-4.9001,-4.9001,-4.9001,-4.9001,-4.9001,-4.9001,-4.9001,-4.9001,-4.9001,0.0,0.0,0.0,0.0,0.0,0.0,-5.5781,-5.5273,-5.4883,-5.4883,-5.4375,-5.4004,-5.4004,-5.3958,-5.3836,-5.3612,-5.2793,0.0,0.0,0.0,0.0,0.0,0.0,0.0,0.0,-5.1098,-5.1045,-5.0998,-5.092,-5.085,-5.0767,-5.0721,-5.0712,-5.0712,-5.0712,-5.0712,0.0,0.0,0.0,0.0,0.0,-5.0712,-5.0712,0.0,0.0,0.0,0.0,0.0,0.0,0.0,0.0,0.0,0.0,0.0,0.0,-5.2418,-5.2793,-5.2966,-5.3154,-5.3185,-5.3185,-5.3185,-5.306,-5.2995,-5.3164,-5.2522,-5.1842,-5.1626,-5.084,-5.0045,-4.959,-4.929,-4.9124,-4.9001,-4.9001,0.0,0.0,0.0,0.0,-5.0422,-5.1116,-5.1657,-5.1911,-5.1944,-5.1944,-5.1944,-5.1708,-5.1336,-5.0811,-5.0338,-5.0084,-5.0084,-4.9373,-4.9001,-4.9001,-4.9001,-4.9001,-4.9001,-4.9001,-4.9001,-4.9001,-4.9001,-4.9001,-4.9001,-4.9001,-4.9001,-4.9001,-4.9001,-4.9001,-4.9001,-4.9001,-4.9001,-4.9001,-4.9001,-4.9001,-4.9001,0.0,0.0,0.0,0.0,0.0,0.0,-5.6601,-5.6133,-5.5781,-5.5758,-5.5287,-5.4913,-5.4864,-5.4814,-5.4672,-5.4475,-5.3932,0.0,0.0,0.0,0.0,0.0,0.0,0.0,-5.115,-5.1094,-5.1033,-5.0937,-5.0905,-5.0825,-5.0712,-5.0712,-5.0712,-5.0712,-5.0712,-5.0712,0.0,0.0,0.0,0.0,-5.0712,-5.0712,-5.0712,0.0,0.0,0.0,0.0,0.0,0.0,0.0,0.0,0.0,0.0,0.0,0.0,0.0,-5.1967,-5.2565,-5.3106,-5.3227,-5.3185,-5.3185,-5.3185,-5.3185,-5.3185,-5.2783,-5.2268,-5.1701,-5.0973,-5.0254,-4.9619,-4.929,-4.9094,-4.9001,-4.9001,-4.9001,0.0,0.0,-4.9779,-5.005,-5.0696,-5.112,-5.112,-5.112,-5.112,-5.112,-5.0914,-5.0591,-5.0118,-4.983,-4.9678,-4.9678,-4.9238,-4.9001,-4.9001,-4.9001,-4.9001,-4.9001,-4.9001,-4.9001,-4.9001,-4.9001,-4.9001,-4.9001,-4.9001,-4.9001,0.0,-4.9001,-4.9001,-4.9001,-4.9001,-4.9001,-4.9001,-4.9001,-4.9001,-4.9001,0.0,0.0,0.0,0.0,0.0,0.0,0.0,-5.6601,-5.658,-5.6513,-5.6511,-5.6455,-5.6336,-5.626,-5.5961,-5.5346,-5.5211,0.0,0.0,0.0,0.0,0.0,0.0,0.0,-5.1559,-5.1362,-5.1196,-5.1087,-5.0954,-5.0808,-5.0712,-5.0712,-5.0712,-5.0712,-5.0712,-5.0712,-5.0712,-5.0712,-5.0712,-5.0712,-5.0712,-5.0712,0.0,0.0,0.0,0.0,0.0,0.0,0.0,0.0,0.0,0.0,0.0,0.0,0.0,0.0,0.0,0.0,0.0,-5.3125,-5.3115,-5.3115,-5.317,-5.3185,-5.3185,-5.2806,0.0,-5.1768,-5.0973,-5.0181,-4.9661,-4.9246,-4.9001,-4.9001,-4.9001,-4.9001,-4.9001,-4.9001,-4.9255,-4.9932,-5.0514,-5.0855,-5.0855,-5.0855,-5.0855,-5.0855,-5.0359,-5.0016,-5.0016,-4.9373,-4.9001,-4.9001,-4.9001,-4.9001,-4.9001,-4.9001,-4.9001,-4.9001,-4.9001,-4.9001,-4.9001,-4.9001,-4.9001,-4.9001,-4.9001,-4.9001,-4.9001,-4.9001,-4.9001,-4.9001,-4.9001,-4.9001,-4.9001,-4.9001,-4.9001,-4.9001,0.0,0.0,0.0,0.0,0.0,0.0,0.0,0.0,0.0,0.0,-5.6546,-5.6554,-5.6528,-5.6428,-5.6289,0.0,0.0,0.0,0.0,0.0,0.0,0.0,0.0,0.0,-5.3083,-5.2298,-5.1862,-5.1845,-5.1108,-5.074,-5.0712,-5.0712,-5.0712,-5.0712,-5.0712,-5.0712,-5.0712,-5.0712,-5.0712,-5.0712,-5.0712,-5.0712,0.0,0.0,0.0,0.0,-5.0712,-5.0712,0.0,0.0,0.0,0.0,0.0,0.0,0.0,0.0,-5.0102,-5.0322,-5.1337,0.0,-5.227,-5.227,-5.2747,-5.3185,0.0,-5.3103,0.0,0.0,0.0,0.0,0.0,0.0,-4.9001,-4.9001,-4.9001,-4.9001,-4.9001,-4.9001,-4.9069,-4.9238,-4.9376,-4.9463,-4.9463,-4.9463,-4.9463,-4.9463,-4.9325,-4.9255,-4.9255,-4.9086,-4.9001,-4.9001,-4.9001,-4.9001,-4.9001,-4.9001,-4.9001,-4.9001,-4.9001,-4.9001,-4.9001,-4.9001,-4.9001,-4.9001,-4.9001,-4.9001,-4.9001,-4.9001,-4.9001,-4.9001,-4.9001,-4.9001,-4.9001,-4.9001,-4.9001,-4.9001,0.0,0.0,0.0,0.0,0.0,0.0,0.0,0.0,0.0,0.0,-5.6438,-5.6405,-5.6367,-5.6211,-5.6155,0.0,0.0,0.0,0.0,0.0,0.0,0.0,0.0,-5.3675,-5.3591,-5.3074,-5.2763,-5.2705,-5.2187,-5.1702,-5.1241,-5.1241,-5.1048,-5.0712,-5.0712,-5.0712,-5.0712,-5.0712,-5.0712,-5.0712,-5.0712,0.0,0.0,0.0,0.0,0.0,-5.0712,-5.0712,0.0,-5.0712,-5.0712,-5.0594,0.0,0.0,0.0,0.0,-4.9398,-4.9344,-4.9824,-5.0685,-5.1444,-5.1444,-5.205,-5.2656,-5.2656,0.0,0.0,0.0,0.0,0.0,0.0,-4.9598,-4.9001,-4.9001,-4.9001,-4.9001,-4.9001,-4.9001,-4.9001,-4.9001,-4.8956,-4.8925,-4.8925,-4.8925,-4.8925,-4.8925,-4.8987,-4.9001,-4.9001,-4.9001,-4.9001,-4.9001,-4.9001,-4.9001,-4.9001,-4.9001,-4.9001,-4.9001,-4.9001,-4.9001,-4.9001,-4.9001,-4.9001,-4.9001,-4.9001,-4.9001,-4.9001,-4.9001,-4.9001,-4.9001,-4.9001,-4.9001,-4.9001,-4.9001,-4.9001,-4.9001,0.0,0.0,0.0,0.0,0.0,0.0,0.0,0.0,0.0,0.0,0.0,0.0,0.0,0.0,0.0,0.0,0.0,0.0,0.0,0.0,0.0,0.0,-5.3899,-5.3987,-5.3987,-5.3845,-5.3698,-5.3605,-5.3436,-5.2924,-5.2096,-5.1962,-5.1471,-5.0712,-5.0712,-5.0712,-5.0712,-5.0712,-5.0712,-5.0712,-5.0712,0.0,0.0,0.0,0.0,0.0,0.0,0.0,0.0,-5.0712,-5.0712,-5.0594,-4.9987,0.0,0.0,0.0,0.0,0.0,-4.8605,-4.9581,-5.0618,-5.0618,-5.1224,-5.1848,-5.1958,0.0,0.0,0.0,0.0,0.0,0.0,-4.9639,-4.9001,-4.9001,-4.9001,-4.9001,-4.9001,-4.9001,-4.9001,-4.9001,-4.8894,-4.8832,-4.8832,-4.8832,-4.8832,-4.8832,-4.8956,-4.9001,-4.9001,-4.9001,-4.9001,-4.9001,-4.9001,-4.9001,-4.9001,-4.9001,-4.9001,-4.9001,-4.9001,-4.9001,-4.9001,-4.9001,-4.9001,-4.9001,-4.9001,-4.9001,-4.9001,-4.9001,-4.9001,-4.9001,-4.9001,-4.9001,-4.9001,-4.9001,-4.9001,-4.9001,0.0,0.0,0.0,0.0,0.0,0.0,0.0,0.0,0.0,0.0,0.0,0.0,0.0,0.0,0.0,0.0,0.0,0.0,0.0,0.0,0.0,-5.5351,-5.5571,-5.5728,-5.5728,-5.4951,-5.4517,-5.4492,-5.3648,-5.3156,-5.2991,-5.225,-5.1471,-5.0712,-5.0712,-5.0712,-5.0712,-5.0712,-5.0712,-5.0712,-5.0712,0.0,0.0,0.0,0.0,0.0,0.0,0.0,0.0,-5.0712,-5.0712,-5.0594,-4.9987,0.0,0.0,0.0,0.0,0.0,-4.8532,-4.9137,-4.9794,-4.9794,-5.038,-5.1151,-5.183,-5.2087,0.0,0.0,0.0,0.0,0.0,-4.9896,-4.9001,-4.9001,-4.9001,-4.9001,-4.9001,-4.9001,-4.9001,-4.9001,-4.897,-4.897,-4.897,-4.897,-4.897,-4.897,-4.9001,-4.9001,-4.9001,-4.9001,-4.9001,-4.9001,-4.9001,-4.9001,-4.9001,-4.9001,-4.9001,-4.9001,-4.9001,-4.9001,-4.9001,-4.9001,-4.9001,-4.9001,-4.9001,-4.9001,-4.9001,-4.9001,-4.9001,-4.9001,-4.9001,-4.9001,-4.9001,-4.9001,-4.9001,-4.9001,0.0,0.0,0.0,0.0,0.0,0.0,0.0,0.0,0.0,0.0,0.0,0.0,0.0,0.0,0.0,0.0,0.0,0.0,0.0,0.0,-5.5703,-5.5703,-5.5817,-5.5879,-5.5879,-5.546,-5.5239,-5.5239,-5.4774,-5.4337,-5.3876,-5.2519,-5.1471,-5.0712,-5.0712,-5.0712,-5.0712,-5.0712,-5.0712,-5.0712,0.0,0.0,0.0,0.0,0.0,0.0,0.0,0.0,0.0,0.0,-5.0712,-5.0594,-4.9987,0.0,0.0,0.0,0.0,0.0,-4.8513,-4.8695,-4.9003,-4.9482,-5.0547,-5.1555,-5.1903,-5.2344,-5.2663,0.0,0.0,0.0,0.0,-4.9739,-4.9001,-4.9001,-4.9001,-4.9001,-4.9001,-4.9001,-4.9001,-4.9001,-4.9001,-4.9001,-4.9001,-4.9001,-4.897,-4.8894,-4.8894,-4.8894,-4.8894,-4.8894,-4.8925,-4.9001,-4.9001,-4.9001,-4.9001,-4.9001,-4.9001,-4.9001,-4.9001,-4.9001,-4.9001,-4.9001,-4.9001,-4.9001,-4.9001,-4.9001,-4.9001,-4.9001,-4.9001,-4.9001,-4.9001,-4.9001,-4.9001,-4.9001,-4.9001,-4.9001,0.0,0.0,0.0,0.0,0.0,0.0,0.0,0.0,0.0,0.0,0.0,0.0,0.0,0.0,0.0,0.0,0.0,0.0,0.0,-5.5703,-5.5703,-5.5703,-5.5703,-5.5703,-5.5703,-5.5703,-5.5703,-5.5703,-5.5703,-5.5184,-5.4164,-5.2837,-5.1664,-5.0712,-5.0712,-5.0683,-5.0692,-5.0683,-5.0673,-5.0653,0.0,0.0,0.0,0.0,0.0,0.0,0.0,0.0,0.0,0.0,0.0,0.0,0.0,0.0,0.0,-4.901,-4.8715,-4.8587,-4.8513,-4.8695,-4.9058,-4.9701,-5.0675,-5.1536,-5.1903,-5.2472,-5.2862,-5.2617,-5.1795,0.0,0.0,-4.9669,-4.9001,-4.9001,-4.9001,-4.9001,-4.9001,-4.9001,-4.9001,-4.9001,-4.9001,-4.9001,-4.9001,-4.897,-4.8925,-4.8818,-4.8738,-4.8738,-4.8818,-4.8818,-4.8863,-4.9001,-4.9001,-4.9001,-4.9001,-4.9001,-4.9001,-4.9001,-4.9001,-4.9001,-4.9001,-4.9001,-4.9001,-4.9001,-4.9001,-4.9001,-4.9001,-4.9001,-4.9001,-4.9001,-4.9001,-4.9001,-4.9001,-4.9001,-4.9001,-4.9001,0.0,0.0,0.0,0.0,0.0,0.0,0.0,0.0,0.0,0.0,0.0,0.0,0.0,0.0,0.0,0.0,0.0,0.0,0.0,-5.5703,-5.5703,-5.5703,-5.5703,-5.5703,-5.5703,-5.5703,-5.5703,-5.5703,-5.5703,-5.4876,-5.3299,-5.3164,-5.2241,-5.0712,-5.0712,-5.0682,-5.0613,-5.0663,-5.0633,-5.0521,-5.0653,0.0,0.0,0.0,0.0,0.0,0.0,0.0,0.0,0.0,0.0,0.0,0.0,0.0,-4.9679,-4.901,-4.8715,-4.8587,-4.8513,-4.954,-5.0637,-5.071,-5.0233,-5.0161,-5.1667,-5.2032,-5.2289,-5.3017,-5.2036,-5.1086,-5.1034,-4.9907,-4.9001,-4.9001,-4.9001,-4.9001,-4.9001,-4.9001,-4.9001,-4.9001,-4.9001,-4.9001,-4.9001,-4.8894,-4.8818,-4.8818,-4.8627,-4.8595,-4.8769,-4.8818,-4.8863,-4.9001,-4.9001,-4.9001,-4.9001,-4.9001,-4.9001,-4.9001,-4.9001,-4.9001,-4.9001,-4.9001,-4.9001,-4.9001,-4.9001,-4.9001,-4.9001,-4.9001,-4.9001,-4.9001,-4.9001,-4.9001,-4.9001,-4.9001,-4.9001,-4.9001,0.0,0.0,0.0,0.0,0.0,0.0,0.0,0.0,0.0,0.0,0.0,0.0,0.0,0.0,0.0,0.0,0.0,0.0,0.0,-5.5703,-5.5703,-5.5703,-5.5703,-5.5703,-5.5703,-5.5703,-5.5703,-5.5703,-5.5703,-5.4838,-5.3203,-5.3203,-5.2318,-5.0712,-5.0653,-5.0623,-5.0603,-5.0573,-5.0542,-5.0511,-5.0553,-5.0451,0.0,0.0,0.0,0.0,0.0,0.0,0.0,0.0,-5.0712,-5.0594,-4.9987,-4.9803,-4.9646,-4.8905,-4.8642,-4.8698,-4.9082,-4.9612,-5.0288,-5.1298,-5.1316,-5.1371,-5.2491,-5.2747,-5.2736,-5.2707,-5.1843,-5.0823,-4.9982,-4.9376,-4.9001,-4.9001,-4.9001,-4.9001,-4.9001,-4.9001,-4.897,-4.8894,-4.8956,-4.8987,-4.8894,-4.8832,-4.8738,-4.8627,-4.8436,-4.8388,-4.8595,-4.8627,-4.8721,-4.9001,-4.9001,-4.9001,-4.9001,-4.9001,-4.9001,-4.9001,-4.9001,-4.9001,-4.9001,-4.9001,-4.9001,-4.9001,-4.9001,-4.9001,-4.9001,-4.9001,-4.9001,-4.9001,-4.9001,-4.9001,-4.9001,-4.9001,-4.9001,-4.9001,0.0,0.0,0.0,0.0,0.0,0.0,0.0,0.0,0.0,0.0,0.0,0.0,0.0,0.0,0.0,0.0,0.0,0.0,-5.5703,-5.5703,-5.5703,-5.5703,-5.5703,-5.5703,-5.5703,-5.5703,-5.5703,-5.5703,-5.5703,-5.4838,-5.3203,-5.3203,-5.2288,-5.0682,-5.0613,-5.0582,-5.0521,-5.0396,-5.031,-5.0275,-5.0209,-5.0062,0.0,0.0,0.0,0.0,0.0,0.0,0.0,0.0,-5.0358,-5.0329,-5.0107,-5.0048,-4.9969,-4.9559,-4.9418,-4.9473,-4.9891,-5.0181,-5.062,-5.172,-5.2179,-5.2527,-5.3057,-5.3185,-5.3082,-5.2676,-5.177,-5.0626,-4.9243,-4.9001,-4.9001,-4.9001,-4.9001,-4.9001,-4.9001,-4.9001,-4.8987,-4.8863,-4.8894,-4.8894,-4.8818,-4.8738,-4.8627,-4.842,-4.8292,-4.8292,-4.8483,-4.8515,-4.8642,-4.9001,-4.9001,-4.9001,-4.9001,-4.9001,-4.9001,-4.9001,-4.9001,-4.9001,-4.9001,-4.9001,-4.9001,-4.9001,-4.9001,-4.9001,-4.9001,-4.9001,-4.9001,-4.9001,-4.9001,-4.9001,-4.9001,-4.9001,-4.9001,-4.9001,0.0,0.0,0.0,0.0,0.0,0.0,0.0,0.0,-5.5703,-5.5703,-5.5703,0.0,0.0,0.0,0.0,0.0,0.0,0.0,-5.5703,-5.5703,-5.5703,-5.5703,-5.5703,-5.5703,-5.5703,-5.5703,-5.5703,-5.5703,-5.5684,-5.4838,-5.3203,-5.3203,-5.2268,-5.0593,-5.0593,-5.0511,-5.0371,-5.0118,-4.9917,-4.9771,-4.958,-4.9464,-4.9405,0.0,0.0,0.0,0.0,0.0,0.0,0.0,-4.9599,-4.9726,-5.0397,-5.0603,-5.0691,-5.1083,-5.1137,-5.106,-5.0943,-5.1452,-5.1995,-5.1995,-5.2619,-5.3185,-5.3185,-5.3185,-5.3164,-5.302,-5.1868,-5.0507,-4.9243,-4.9001,-4.9001,-4.9001,-4.9001,-4.9001,-4.9001,-4.9001,-4.9001,-4.9001,-4.8894,-4.8818,-4.8818,-4.8627,-4.842,-4.8227,-4.8195,-4.8292,-4.8483,-4.8515,-4.8642,-4.9001,-4.9001,-4.9001,-4.9001,-4.9001,-4.9001,-4.9001,-4.9001,-4.9001,-4.9001,-4.9001,-4.9001,-4.9001,-4.9001,-4.9001,-4.9001,-4.9001,-4.9001,-4.9001,-4.9001,-4.9001,-4.9001,-4.9001,-4.9001,-4.9001,0.0,0.0,0.0,0.0,0.0,0.0,0.0,0.0,-5.5703,-5.5703,-5.5703,0.0,0.0,0.0,0.0,0.0,0.0,0.0,-5.5703,-5.5703,-5.5703,-5.5703,-5.5703,-5.5703,-5.5703,-5.5703,-5.5703,-5.5703,-5.5126,-5.4299,-5.3203,-5.2527,-5.1519,-5.0237,-5.0142,-4.9943,-4.9683,-4.9551,-4.9479,-4.9435,-4.9375,-4.9256,-4.9134,0.0,0.0,0.0,0.0,0.0,0.0,0.0,0.0,0.0,-5.1047,-5.123,-5.12,-5.1045,-5.0983,-5.1053,-5.1544,-5.1832,-5.2142,-5.2711,-5.3023,-5.3185,-5.3185,-5.3185,-5.3039,-5.2431,-5.1622,-5.0761,-4.9815,-4.929,-4.9001,-4.9001,-4.9001,-4.9001,-4.9001,-4.9001,-4.8987,-4.8863,-4.8894,-4.8846,-4.8627,-4.8658,-4.8564,-4.8227,-4.8195,-4.8292,-4.8483,-4.8515,-4.8642,-4.9001,-4.9001,-4.9001,-4.9001,-4.9001,-4.9001,-4.9001,-4.9001,-4.9001,-4.9001,-4.9001,-4.9001,-4.9001,-4.9001,-4.9001,-4.9001,-4.9001,-4.9001,-4.9001,-4.9001,-4.9001,-4.9001,-4.9001,-4.9001,-4.9001,0.0,0.0,0.0,0.0,0.0,0.0,0.0,0.0,-5.5703,-5.5703,-5.5703,-5.5703,0.0,0.0,0.0,0.0,0.0,0.0,-5.5703,-5.5703,-5.5703,-5.5703,-5.5703,-5.5703,-5.5703,-5.5703,-5.5703,-5.5703,-5.4895,-5.4038,-5.3152,-5.2083,-5.1044,-5.0006,-4.9811,-4.9566,-4.9345,-4.9177,-4.9097,-4.9097,-4.8949,-4.8833,-4.873,0.0,0.0,0.0,0.0,0.0,0.0,0.0,0.0,0.0,-5.16,-5.1824,-5.1825,-5.1851,-5.1844,-5.1934,-5.2346,-5.2472,-5.2601,-5.3096,-5.3185,-5.3185,-5.3185,-5.3121,-5.2828,-5.2132,-5.1447,-5.0751,-5.0045,-4.9424,-4.9001,-4.9001,-4.9001,-4.9001,-4.9001,-4.9001,-4.8956,-4.8818,-4.8784,-4.8704,-4.8515,-4.8532,-4.8468,-4.8227,-4.8195,-4.826,-4.8388,-4.8452,-4.861,-4.8925,-4.897,-4.9001,-4.9001,-4.9001,-4.9001,-4.9001,-4.9001,-4.9001,-4.9001,-4.9001,-4.9001,-4.9001,-4.9001,-4.9001,-4.9001,-4.9001,-4.9001,-4.9001,-4.9001,-4.9001,-4.9001,-4.9001,-4.9001,-4.9001,0.0,0.0,-5.5787,-5.5787,0.0,0.0,0.0,0.0,-5.5703,-5.5703,-5.5703,-5.5703,0.0,0.0,0.0,0.0,0.0,0.0,0.0,-5.5703,-5.5703,-5.5703,-5.5703,-5.5703,-5.5703,-5.5703,-5.5665,-5.5588,-5.478,-5.3941,-5.3039,-5.1778,-5.0691,-4.9798,-4.9479,-4.9299,-4.9193,-4.8883,-4.8746,-4.8729,-4.842,-4.8306,-4.8306,-4.8306,0.0,0.0,0.0,0.0,0.0,0.0,0.0,0.0,-5.2092,-5.239,-5.2498,-5.3097,-5.3297,-5.3277,-5.3227,-5.3185,-5.3185,-5.3185,-5.3185,-5.3185,-5.3185,-5.2999,-5.2694,-5.2179,-5.1396,-5.0616,-5.0074,-4.9496,-4.9063,-4.9001,-4.9001,-4.9001,-4.9001,-4.9001,-4.894,-4.8832,-4.8658,-4.8515,-4.8515,-4.8356,-4.8227,-4.8195,-4.8195,-4.8195,-4.8195,-4.8388,-4.8564,-4.8769,-4.8925,-4.9001,-4.9001,-4.9001,-4.9001,-4.9001,-4.9001,-4.9001,-4.9001,-4.9001,-4.9001,-4.9001,-4.9001,-4.9001,-4.9001,-4.9001,-4.9001,-4.9001,-4.9001,-4.9001,-4.9001,-4.9001,-4.9001,-4.9001,0.0,0.0,-5.5724,-5.5724,0.0,0.0,0.0,0.0,0.0,-5.5703,0.0,0.0,0.0,0.0,0.0,0.0,0.0,0.0,0.0,-5.5703,-5.5703,-5.5703,-5.5703,-5.5703,-5.5703,-5.5703,-5.5395,-5.4761,-5.3895,-5.3201,-5.2664,-5.1033,-4.9857,-4.9126,-4.8982,-4.8763,-4.8495,-4.8439,-4.842,-4.8402,-4.8344,-4.8306,-4.8306,-4.8306,-4.8306,0.0,0.0,0.0,0.0,0.0,0.0,0.0,-5.2755,-5.3012,-5.3031,-5.3193,-5.3209,-5.3227,-5.3206,-5.3185,-5.3185,-5.3185,-5.3185,-5.3185,-5.3185,-5.3082,-5.2893,-5.2676,-5.2066,-5.1345,-5.0661,-5.0085,-4.9555,-4.9094,-4.9001,-4.9001,-4.9001,-4.9001,-4.9001,-4.894,-4.8832,-4.8738,-4.8738,-4.8564,-4.8356,-4.8195,-4.8195,-4.8195,-4.8195,-4.8227,-4.8436,-4.8786,-4.8832,-4.8894,-4.9001,-4.9001,-4.9001,-4.9001,-4.9001,-4.9001,-4.9001,-4.9001,-4.9001,-4.9001,-4.9001,-4.9001,-4.9001,-4.9001,-4.9001,-4.9001,-4.9001,-4.9001,-4.9001,-4.9001,-4.9001,-4.9001,0.0,0.0,0.0,0.0,0.0,0.0,0.0,0.0,0.0,0.0,0.0,0.0,0.0,0.0,0.0,0.0,0.0,0.0,0.0,-5.5703,-5.5703,-5.5703,-5.5703,-5.5703,-5.5703,-5.5703,-5.5237,-5.4261,-5.3364,-5.259,-5.1942,-5.0265,-4.9249,-4.883,-4.864,-4.8458,-4.8306,-4.8306,-4.8306,-4.8306,-4.8306,-4.8306,-4.8306,-4.8306,-4.8306,-4.8306,-4.8306,0.0,0.0,0.0,0.0,0.0,0.0,0.0,-5.3185,-5.3185,-5.3185,-5.3185,-5.3185,-5.3185,0.0,-5.3185,0.0,-5.3185,-5.3185,-5.3103,-5.2955,-5.2828,-5.2273,-5.1565,-5.0832,-5.0265,-4.9686,-4.9077,-4.9001,-4.9001,-4.9001,-4.9001,-4.8987,-4.8925,-4.8832,-4.8769,-4.8675,-4.8452,-4.8324,-4.8195,-4.8147,-4.8115,-4.8115,-4.8276,-4.8405,-4.85,-4.8769,-4.8894,-4.8894,-4.897,-4.9001,-4.9001,-4.9001,-4.9001,-4.9001,-4.9001,-4.9001,-4.9001,-4.9001,-4.9001,-4.9001,-4.9001,-4.9001,-4.9001,-4.9001,-4.9001,-4.9001,-4.9001,-4.9001,-4.9001,0.0,0.0,0.0,0.0,0.0,0.0,0.0,0.0,0.0,0.0,0.0,0.0,0.0,0.0,0.0,0.0,0.0,0.0,0.0,0.0,0.0,-5.5703,-5.5703,-5.5703,-5.5703,-5.5549,-5.4921,-5.3765,-5.2762,-5.1807,-5.0863,-4.9505,-4.883,-4.8693,-4.842,-4.8306,-4.8306,-4.8306,-4.8306,-4.8306,-4.8306,-4.8306,-4.8306,-4.8306,-4.8306,-4.8324,-4.8471,-4.9499,-5.082,-5.0967,0.0,0.0,0.0,0.0,-5.3185,-5.3185,-5.3185,-5.3185,-5.3185,-5.3185,-5.3185,-5.3185,-5.3185,0.0,-5.3185,-5.3103,-5.2999,-5.2828,-5.2343,-5.1732,-5.0991,-5.0404,-4.9844,-4.9243,-4.9063,-4.9001,-4.9001,-4.9001,-4.894,-4.8832,-4.8801,-4.8738,-4.8564,-4.8356,-4.8227,-4.8195,-4.8082,-4.8033,-4.8033,-4.8308,-4.8388,-4.826,-4.8721,-4.8925,-4.8818,-4.8909,-4.9001,-4.9001,-4.9001,-4.9001,-4.9001,-4.9001,-4.9001,-4.9001,-4.9001,-4.9001,-4.9001,-4.9001,-4.9001,-4.9001,-4.9001,-4.9001,-4.9001,-4.9001,-4.9001,-4.9001,0.0,0.0,0.0,0.0,0.0,0.0,0.0,0.0,0.0,0.0,-5.5703,-5.5703,0.0,0.0,0.0,0.0,0.0,0.0,-5.5703,0.0,0.0,-5.5703,-5.5703,-5.5703,-5.5703,-5.5011,-5.4035,-5.2793,-5.1621,-5.0429,-4.9211,-4.8984,-4.871,-4.8364,-4.8325,-4.8306,-4.8306,-4.8306,-4.8306,-4.8306,-4.8306,-4.8306,-4.8306,-4.8306,-4.8306,-4.8398,-4.917,-5.0013,-5.0912,-5.1591,-5.2454,0.0,0.0,0.0,-5.3185,-5.3185,-5.3185,-5.3185,-5.3185,0.0,-5.3185,0.0,-5.3185,-5.3185,0.0,0.0,-5.3103,-5.285,-5.2631,-5.2297,-5.1626,-5.0982,-5.0415,-4.9873,-4.9333,-4.9001,-4.9001,-4.9001,-4.9001,-4.8987,-4.8863,-4.8769,-4.8769,-4.8595,-4.8388,-4.8195,-4.8195,-4.8163,-4.8163,-4.8227,-4.8324,-4.8452,-4.8707,-4.8801,-4.8818,-4.8909,-4.9001,-4.9001,-4.9001,-4.9001,-4.9001,-4.9001,-4.9001,-4.9001,-4.9001,-4.9001,-4.9001,-4.9001,-4.9001,-4.9001,-4.9001,-4.9001,-4.9001,-4.9001,-4.9001,-4.9001,0.0,0.0,0.0,0.0,0.0,0.0,0.0,0.0,0.0,0.0,0.0,-5.5703,0.0,0.0,0.0,-5.5703,-5.5703,-5.5703,-5.5703,-5.5703,-5.5703,-5.5703,-5.5703,-5.5703,-5.5703,-5.4683,-5.3569,-5.2373,-5.1088,-4.9853,-4.8677,-4.8604,-4.8477,-4.8306,-4.8306,-4.8306,-4.8306,-4.8306,-4.8306,-4.8306,-4.8306,-4.8306,-4.8306,-4.8306,-4.8306,-4.8416,-4.9298,-5.0105,-5.093,-5.172,-5.2527,-5.3185,-5.3185,0.0,0.0,0.0,-5.3185,-5.3185,-5.3185,-5.3185,-5.3185,0.0,-5.3185,-5.3185,-5.3185,-5.3185,-5.3143,-5.2955,-5.2806,-5.2477,-5.1743,-5.1113,-5.0507,-4.9988,-4.9394,-4.9001,-4.9001,-4.9001,-4.9001,-4.9001,-4.8956,-4.8894,-4.8818,-4.8627,-4.842,-4.8227,-4.8147,-4.8115,-4.8195,-4.8324,-4.842,-4.8515,-4.8707,-4.8818,-4.8818,-4.8863,-4.8925,-4.9001,-4.9001,-4.9001,-4.9001,-4.9001,-4.9001,-4.9001,-4.9001,-4.9001,-4.9001,-4.9001,-4.9001,-4.9001,-4.9001,-4.9001,-4.9001,-4.9001,-4.9001,-4.9001,0.0,0.0,0.0,0.0,0.0,0.0,0.0,0.0,0.0,0.0,0.0,0.0,0.0,0.0,0.0,0.0,-5.5703,-5.5703,-5.5703,-5.5703,-5.5703,-5.5703,-5.5703,-5.5588,-5.5395,-5.4202,-5.3,-5.1844,-5.0504,-4.9376,-4.8438,-4.8343,-4.8306,-4.8306,-4.8306,-4.8306,-4.8306,-4.8306,-4.8287,-4.8267,-4.8267,-4.8267,-4.8267,-4.8267,-4.8305,-4.8416,-4.9298,-5.0105,-5.093,-5.172,-5.2527,-5.3185,-5.3185,-5.3185,0.0,0.0,0.0,-5.3185,0.0,0.0,-5.3185,-5.3185,-5.3185,-5.3185,0.0,0.0,-5.3164,-5.302,-5.2934,-5.2654,-5.1988,-5.1363,-5.0742,-5.0198,-4.9598,-4.9168,-4.9032,-4.9001,-4.9001,-4.9001,-4.9001,-4.8956,-4.8801,-4.869,-4.8515,-4.8292,-4.8179,-4.8179,-4.834,-4.8452,-4.8515,-4.8578,-4.8738,-4.8818,-4.8818,-4.8832,-4.8894,-4.9001,-4.9001,-4.9001,-4.9001,-4.9001,-4.9001,-4.9001,-4.9001,-4.9001,-4.9001,-4.9001,-4.9001,-4.9001,-4.9001,-4.9001,-4.9001,-4.9001,-4.9001,-4.9001,0.0,0.0,0.0,0.0,0.0,0.0,0.0,0.0,0.0,0.0,0.0,0.0,-5.5703,-5.5703,-5.5703,-5.5703,-5.5703,-5.5703,-5.5703,-5.5703,-5.5703,-5.5703,-5.5703,0.0,-5.4587,-5.3322,-5.2079,-5.0873,-4.9575,-4.8747,-4.8306,-4.8306,-4.8306,-4.8306,-4.8306,-4.8306,-4.8306,-4.8306,-4.8267,-4.8207,-4.8207,-4.8207,-4.8207,-4.8207,-4.8247,-4.8416,-4.9298,-5.0105,-5.093,-5.172,-5.2527,-5.3185,-5.3185,-5.3185,-5.3185,0.0,0.0,0.0,0.0,-5.3185,0.0,-5.3185,-5.3185,-5.3185,0.0,0.0,-5.3164,-5.302,-5.298,-5.2893,-5.259,-5.1994,-5.1355,-5.0751,-5.0226,-4.9656,-4.9094,-4.9001,-4.9001,-4.9001,-4.9001,-4.8956,-4.8801,-4.8925,-4.8846,-4.8515,-4.8483,-4.8564,-4.8738,-4.8595,-4.8595,-4.8786,-4.8769,-4.8818,-4.8818,-4.8925,-4.9001,-4.9001,-4.9001,-4.9001,-4.9001,-4.9001,-4.9001,-4.9001,-4.9001,-4.9001,-4.9001,-4.9001,-4.9001,-4.9001,-4.9001,-4.9001,-4.9001,-4.9001,-4.9001,-4.9001,0.0,0.0,0.0,0.0,0.0,0.0,0.0,0.0,0.0,0.0,0.0,0.0,0.0,-5.4988,-5.4993,-5.4919,-5.4938,-5.4938,-5.4938,-5.4938,-5.4671,-5.4115,-5.4307,-5.3938,-5.2924,-5.1892,-5.1051,-5.0413,-4.9136,-4.8439,-4.8306,-4.8306,-4.8306,-4.8306,-4.8306,-4.8306,-4.8287,-4.8247,-4.8226,-4.8187,-4.811,-4.807,-4.809,-4.8168,-4.8207,-4.8375,-4.9259,-5.0105,-5.093,-5.172,-5.2527,-5.3185,-5.3185,-5.3185,-5.3185,-5.3185,-5.3185,0.0,0.0,0.0,0.0,-5.3185,-5.3185,-5.3185,-5.3185,-5.3185,-5.3185,-5.3143,-5.306,-5.2937,-5.2743,-5.2179,-5.149,-5.0805,-5.0237,-4.9686,-4.9077,-4.9001,-4.9001,-4.9001,-4.9001,-4.897,-4.8909,-4.8894,-4.8832,-4.8707,-4.8452,-4.8405,-4.8595,-4.8547,-4.8515,-4.8595,-4.8595,-4.8595,-4.8595,-4.8877,-4.9001,-4.9001,-4.9001,-4.9001,-4.9001,-4.9001,-4.9001,-4.9001,-4.9001,-4.9001,-4.9001,-4.9001,-4.9001,-4.9001,-4.9001,-4.9001,-4.9001,-4.9001,-4.9001,-4.9001,0.0,0.0,0.0,0.0,0.0,-5.552,-5.5418,-5.5211,-5.5059,-5.5059,0.0,0.0,0.0,0.0,-5.4547,-5.4503,-5.4503,-5.4371,-5.4069,-5.405,-5.3689,-5.2836,-5.3011,-5.266,-5.162,-5.0898,-5.0279,-4.9752,-4.879,-4.8306,-4.8306,-4.8306,-4.8306,-4.8306,-4.8306,-4.8306,-4.8287,-4.8226,-4.8168,-4.811,-4.7829,-4.7809,-4.7968,-4.7868,-4.799,-4.828,-4.8869,-4.9643,-5.0508,-5.1257,-5.2103,-5.2839,-5.3115,-5.3185,-5.3185,-5.3185,-5.3185,-5.3185,-5.3185,0.0,0.0,0.0,-5.3185,-5.3185,-5.3185,-5.3185,-5.3185,-5.3185,-5.3124,-5.3039,-5.2893,-5.2477,-5.1831,-5.0858,-5.0387,-4.9884,-4.9107,-4.9001,-4.9001,-4.9001,-4.9001,-4.9001,-4.9001,-4.8925,-4.8863,-4.8863,-4.8564,-4.8468,-4.8595,-4.8595,-4.8564,-4.8515,-4.8515,-4.8515,-4.8515,-4.8784,-4.8956,-4.9001,-4.9001,-4.9001,-4.9001,-4.9001,-4.9001,-4.9001,-4.9001,-4.9001,-4.9001,-4.9001,-4.9001,-4.9001,-4.9001,-4.9001,-4.9001,-4.9001,-4.9001,-4.9001,0.0,0.0,-5.5607,-5.5339,-5.5288,-5.5164,-5.4836,-5.4659,-5.4575,-5.4575,0.0,0.0,0.0,0.0,0.0,-5.4433,-5.4396,-5.4037,-5.3186,-5.3113,-5.2771,-5.1952,-5.193,-5.1556,-5.0749,-5.0359,-4.9733,-4.888,-4.8495,-4.8306,-4.8306,-4.8306,-4.8306,-4.8306,-4.8306,-4.8287,-4.8267,-4.8189,-4.809,-4.7913,-4.7327,-4.7385,-4.778,-4.728,-4.7518,-4.8128,-4.8012,-4.866,-4.9681,-5.0369,-5.1216,-5.2142,-5.2968,-5.3185,-5.3185,-5.3185,-5.3185,-5.3185,0.0,0.0,0.0,-5.3185,-5.3185,-5.3185,-5.3185,-5.3185,-5.3185,-5.3185,-5.3185,-5.3146,-5.302,-5.2872,-5.232,-5.0938,-5.0697,-5.0286,-4.9168,-4.9001,-4.9001,-4.9001,-4.9001,-4.9001,-4.9001,-4.9001,-4.9001,-4.9001,-4.8863,-4.8818,-4.8818,-4.8769,-4.8707,-4.8515,-4.8515,-4.8515,-4.8515,-4.8707,-4.8863,-4.9001,-4.9001,-4.9001,-4.9001,-4.9001,-4.9001,-4.9001,-4.9001,-4.9001,-4.9001,-4.9001,-4.9001,-4.9001,-4.9001,-4.9001,-4.9001,-4.9001,-4.9001,-4.9001,0.0,-5.5531,-5.5345,-5.5179,-5.4952,-5.475,-5.4597,-5.434,-5.4173,0.0,0.0,0.0,-5.3643,-5.3066,-5.2694,-5.2694,-5.2157,-5.1731,-5.1472,-5.1472,-5.1102,-5.0305,-5.0445,-5.0071,-4.901,-4.9115,-4.8951,-4.8477,-4.8345,-4.8306,-4.8306,-4.8306,-4.8306,-4.8306,-4.8306,-4.8055,-4.7635,-4.753,-4.7421,-4.7306,-4.6642,-4.6454,-4.659,-4.6525,-4.6642,-4.6895,-4.7277,-4.7973,-4.8912,-5.0062,-5.1073,-5.2022,-5.2907,-5.3185,-5.3185,-5.3185,-5.3185,-5.3185,-5.3185,0.0,0.0,0.0,0.0,0.0,-5.3185,-5.3185,-5.3185,-5.3185,-5.3124,-5.2999,-5.2872,-5.2431,-5.1764,-5.0858,-5.0697,-5.0286,-4.9168,-4.9001,-4.9001,-4.9001,-4.9001,-4.9001,-4.9001,-4.9001,-4.9001,-4.9001,-4.8863,-4.8818,-4.8818,-4.8658,-4.8547,-4.8515,-4.8515,-4.8515,-4.8515,-4.8707,-4.8863,-4.9001,-4.9001,-4.9001,-4.9001,-4.9001,-4.9001,-4.9001,-4.9001,-4.9001,-4.9001,-4.9001,-4.9001,-4.9001,-4.9001,-4.9001,-4.9001,-4.9001,-4.9001,-4.9001,-5.552,-5.525,-5.4943,-5.4731,-5.45,-5.429,-5.4103,-5.387,-5.3701,0.0,0.0,0.0,-5.23,-5.1797,-5.1499,-5.1499,-5.1077,-5.0655,-5.0306,-5.0288,-4.9921,-4.9077,-4.9214,-4.8974,-4.8306,-4.8495,-4.8495,-4.8306,-4.8306,-4.8306,-4.8306,-4.8306,-4.8306,-4.8287,-4.8035,-4.7715,-4.7281,-4.6728,-4.6583,-4.6707,-4.6042,-4.59,-4.6074,-4.5925,-4.6067,-4.6358,-4.663,-4.7236,-4.8119,-4.9531,-5.0995,-5.2316,-5.2935,-5.3103,-5.3124,-5.3185,-5.3185,-5.3185,-5.3185,-5.3185,-5.3185,-5.3185,0.0,0.0,-5.3124,-5.3103,-5.3103,-5.3039,-5.2977,-5.2828,-5.2522,-5.209,-5.149,-5.0544,-5.0369,-5.0056,-4.9138,-4.9001,-4.9001,-4.9001,-4.9001,-4.9001,-4.9001,-4.9001,-4.9001,-4.9001,-4.8925,-4.8894,-4.8894,-4.8658,-4.8547,-4.8627,-4.8452,-4.8468,-4.8627,-4.8658,-4.8784,-4.9001,-4.9001,-4.9001,-4.9001,-4.9001,-4.9001,-4.9001,-4.9001,-4.9001,-4.9001,-4.9001,-4.9001,-4.9001,-4.9001,-4.9001,-4.9001,-4.9001,-4.9001,-4.8968,0.0,-5.4762,-5.4301,-5.3987,-5.3791,-5.3554,-5.3262,-5.3101,-5.3021,0.0,-5.2351,-5.1591,-5.0875,-5.0729,-5.0674,-5.0674,-5.0582,-5.0215,-4.95,-4.9463,-4.9095,-4.8343,-4.8306,-4.8306,-4.8306,-4.8306,-4.8306,-4.8306,-4.8306,-4.8306,-4.8306,-4.8306,-4.8287,-4.8267,-4.7674,-4.7299,-4.7039,-4.5957,-4.5742,-4.6067,-4.5459,-4.5511,-4.5893,-4.5407,-4.5588,-4.6091,-4.6042,-4.6425,-4.725,-4.8875,-5.0785,-5.2504,-5.2791,-5.2893,-5.2915,-5.3103,-5.3164,-5.3164,-5.3185,-5.3185,-5.3185,-5.3185,-5.3185,0.0,-5.3042,-5.302,-5.2999,-5.2868,-5.2828,-5.2694,-5.2203,-5.1946,-5.1465,-5.0397,-5.0039,-4.9686,-4.9094,-4.9001,-4.9001,-4.9001,-4.9001,-4.9001,-4.9001,-4.9001,-4.9001,-4.9001,-4.9001,-4.9001,-4.9001,-4.8704,-4.8627,-4.8769,-4.8436,-4.8436,-4.8769,-4.8627,-4.8673,-4.9001,-4.9001,-4.9001,-4.9001,-4.9001,-4.9001,-4.9001,-4.9001,-4.9001,-4.9001,-4.9001,-4.9001,-4.9001,-4.9001,-4.9001,-4.9001,-4.9001,-4.8951,-4.8781,-5.4659,-5.3846,-5.3094,-5.2916,-5.2122,-5.1446,-5.1362,-5.1301,-5.1281,-5.1281,-5.1153,-5.0967,-5.082,-5.0215,-4.9831,-4.9831,-4.9187,-4.8728,-4.8563,-4.8545,-4.8489,-4.8324,-4.8306,-4.8306,-4.8306,-4.8306,-4.8306,-4.8306,-4.8306,-4.8306,-4.8306,-4.8306,-4.8267,-4.8207,-4.7653,-4.7057,-4.6436,-4.5775,-4.5284,-4.4923,-4.4786,-4.4786,-4.4896,-4.4776,-4.4814,-4.4988,-4.532,-4.5545,-4.5984,-4.8073,-4.9497,-5.061,-5.182,-5.2203,-5.2291,-5.2739,-5.289,-5.2912,-5.2999,-5.3042,-5.3063,-5.3185,-5.3185,0.0,-5.3164,-5.3164,-5.3164,-5.3143,-5.3039,-5.2915,-5.2828,-5.2343,-5.1873,-5.1658,-5.0697,-4.9751,-4.9077,-4.9001,-4.9001,-4.9001,-4.9001,-4.9001,-4.9001,-4.9001,-4.9001,-4.9001,-4.9001,-4.9001,-4.9001,-4.894,-4.8815,-4.8564,-4.8644,-4.8627,-4.8547,-4.8675,-4.8832,-4.9001,-4.9001,-4.9001,-4.9001,-4.9001,-4.9001,-4.9001,-4.9001,-4.9001,-4.9001,-4.9001,-4.9001,-4.9001,-4.9001,-4.9001,-4.9001,-4.9001,-4.8629,-4.8075,-5.3053,-5.2412,-5.1825,-5.1769,-5.1263,-5.0844,-5.0802,-5.0802,-5.0802,-5.0802,-5.0453,-5.0031,-4.9609,-4.9187,-4.8948,-4.8948,-4.8545,-4.8306,-4.8306,-4.8306,-4.8306,-4.8306,-4.8306,-4.8306,-4.8306,-4.8306,-4.8306,-4.8306,-4.8306,-4.8306,-4.8306,-4.8267,-4.8092,-4.7772,-4.7124,-4.6489,-4.585,-4.5284,-4.4896,-4.4615,-4.4615,-4.4615,-4.4615,-4.4615,-4.4615,-4.4626,-4.4879,-4.5365,-4.6177,-4.7909,-4.9036,-4.9915,-5.1071,-5.1465,-5.159,-5.2226,-5.2408,-5.2477,-5.2806,-5.2893,-5.2912,-5.2977,-5.306,0.0,0.0,-5.306,-5.3082,-5.2999,-5.2955,-5.2828,-5.2549,-5.2232,-5.1904,-5.1597,-5.068,-4.9993,-4.9953,-4.9406,-4.9001,-4.9001,-4.9001,-4.9001,-4.9001,-4.9001,-4.9001,-4.9001,-4.9001,-4.9001,-4.9001,-4.9001,-4.894,-4.8736,-4.8769,-4.8769,-4.8736,-4.8769,-4.8863,-4.9001,-4.9001,-4.9001,-4.9001,-4.9001,-4.9001,-4.9001,-4.9001,-4.9001,-4.9001,-4.9001,-4.9001,-4.9001,-4.9001,-4.9001,-4.9001,-4.9001,-4.8545,-4.7838,-5.1373,-5.1028,-5.0647,-5.0647,-5.0476,-5.0325,-5.0325,-5.0325,-5.0325,-5.0325,-4.9678,-4.8941,-4.8245,-4.8055,-4.7995,-4.7995,-4.7957,-4.7997,-4.8114,-4.8132,-4.8172,-4.8287,-4.8306,-4.8306,-4.8306,-4.8306,-4.8306,-4.8306,-4.8306,-4.8287,-4.8267,-4.8226,-4.7893,-4.7317,-4.6601,-4.5975,-4.5433,-4.4841,-4.4615,-4.4615,-4.4615,-4.4615,-4.4615,-4.4615,-4.4615,-4.4615,-4.4615,-4.5244,-4.6301,-4.75,-4.8399,-4.922,-5.0187,-5.0592,-5.0832,-5.154,-5.1757,-5.1831,-5.232,-5.2435,-5.2477,-5.2608,-5.2739,-5.2806,0.0,0.0,0.0,-5.2828,-5.2806,-5.2676,-5.2232,-5.2143,-5.1982,-5.1504,-5.0841,-5.0535,-5.0991,-5.0067,-4.9303,-4.9199,-4.9063,-4.9001,-4.9001,-4.9001,-4.9001,-4.9001,-4.9001,-4.9001,-4.9001,-4.9001,-4.9001,-4.894,-4.8894,-4.8894,-4.894,-4.8894,-4.8894,-4.9001,-4.9001,-4.9001,-4.9001,-4.9001,-4.897,-4.897,-4.9001,-4.897,-4.897,-4.9001,-4.9001,-4.9001,-4.9001,-4.9001,-4.8984,-4.8849,-4.8325,-4.7597,-5.0609,-5.0256,-4.9759,-4.9759,-4.9115,-4.8581,-4.8581,-4.8581,-4.8581,-4.8581,-4.8156,-4.7783,-4.7692,-4.7186,-4.689,-4.689,-4.6723,-4.6869,-4.7449,-4.7491,-4.7736,-4.8287,-4.8306,-4.8306,-4.8306,-4.8306,-4.8306,-4.8306,-4.8306,-4.8267,-4.8207,-4.8207,-4.7829,-4.7111,-4.6548,-4.5943,-4.5276,-4.4814,-4.4615,-4.4615,-4.4615,-4.4615,-4.4615,-4.4615,-4.4615,-4.4615,-4.4615,-4.4677,-4.4947,-4.575,-4.651,-4.7328,-4.862,-4.948,-5.0113,-5.067,-5.0858,-5.0885,-5.1069,-5.1121,-5.1276,-5.1922,-5.2108,-5.2226,-5.2694,0.0,-5.2806,-5.2806,0.0,-5.2783,-5.2717,0.0,0.0,-5.2631,-5.2042,-5.1633,-5.1683,-5.1017,-5.0331,-4.9844,-4.9333,-4.9001,-4.9001,-4.9001,-4.9001,-4.9001,-4.9001,-4.9001,-4.9001,-4.9001,-4.8956,-4.8849,-4.8909,-4.8925,-4.8801,-4.8925,-4.897,-4.9001,-4.9001,-4.9001,-4.9001,-4.9001,-4.8956,-4.8832,-4.8956,-4.8909,-4.8832,-4.8956,-4.9001,-4.9001,-4.9001,-4.9001,-4.8934,-4.8291,-4.7564,-4.6819,-4.9224,-4.9077,-4.8838,-4.8838,-4.8545,-4.8306,-4.8306,-4.8306,-4.8191,-4.7935,-4.7653,-4.7381,-4.7097,-4.6763,-4.6537,-4.6537,-4.6448,-4.6566,-4.6963,-4.7234,-4.7551,-4.7877,-4.8152,-4.8306,-4.8306,-4.8306,-4.8267,-4.8228,-4.8228,-4.8189,-4.807,-4.7747,-4.7222,-4.6613,-4.6,-4.5425,-4.4879,-4.4665,-4.4615,-4.4615,-4.4615,-4.4615,-4.4615,-4.4615,-4.4615,-4.4615,-4.4615,-4.4615,-4.4716,-4.5449,-4.6194,-4.698,-4.7975,-4.8767,-4.9496,-5.0056,-5.0237,-5.0321,-5.0697,-5.0761,-5.0858,-5.1165,-5.1294,-5.1515,-5.209,-5.2273,-5.2408,-5.2739,0.0,0.0,0.0,0.0,0.0,0.0,-5.2226,-5.1922,-5.2208,-5.1353,-5.0616,-5.0387,-4.9873,-4.9394,-4.9032,-4.9001,-4.9001,-4.9001,-4.9001,-4.9001,-4.9001,-4.9001,-4.897,-4.8925,-4.897,-4.897,-4.8925,-4.897,-4.9001,-4.9001,-4.9001,-4.9001,-4.9001,-4.9001,-4.897,-4.8925,-4.8987,-4.897,-4.8925,-4.8987,-4.9001,-4.9001,-4.9001,-4.9001,-4.8968,-4.8663,-4.8088,-4.7394,-4.8306,-4.8306,-4.8306,-4.8306,-4.8306,-4.8267,-4.8132,-4.8113,-4.7935,-4.7421,-4.7146,-4.6855,-4.6478,-4.6154,-4.5965,-4.5965,-4.5915,-4.6032,-4.6358,-4.6699,-4.6995,-4.7255,-4.7614,-4.7838,-4.7997,-4.7997,-4.8053,-4.8148,-4.8148,-4.8088,-4.7949,-4.7371,-4.6776,-4.6238,-4.5571,-4.5035,-4.4615,-4.4615,-4.4615,-4.4615,-4.4615,-4.4615,-4.4615,-4.4615,-4.4615,-4.4615,-4.4615,-4.4615,-4.4682,-4.5213,-4.6007,-4.6887,-4.7445,-4.824,-4.9094,-4.9526,-4.9656,-4.9744,-5.0135,-5.0248,-5.0276,-5.0442,-5.0552,-5.0796,-5.1363,-5.1565,-5.1739,-5.2143,-5.2232,0.0,0.0,0.0,-5.2518,-5.269,0.0,-5.2126,-5.2518,-5.1782,-5.1139,-5.0982,-5.0338,-4.9656,-4.9063,-4.9001,-4.9001,-4.9001,-4.9001,-4.9001,-4.9001,-4.9001,-4.9001,-4.9001,-4.9001,-4.9001,-4.9001,-4.9001,-4.9001,-4.9001,-4.897,-4.8956,-4.8956,-4.8956,-4.8909,-4.8877,-4.897,-4.897,-4.8956,-4.897,-4.9001,-4.9001,-4.9001,-4.9001,-4.8984,-4.8781,-4.8376,-4.7855,-4.8306,-4.8306,-4.8306,-4.8306,-4.8306,-4.8152,-4.7695,-4.7611,-4.7421,-4.6822,-4.6269,-4.59,-4.5749,-4.5196,-4.4841,-4.4841,-4.472,-4.4906,-4.5511,-4.5545,-4.5833,-4.6407,-4.6454,-4.671,-4.7237,-4.7237,-4.7488,-4.8012,-4.8012,-4.797,-4.7881,-4.7363,-4.673,-4.6074,-4.5537,-4.5035,-4.4615,-4.4615,-4.4615,-4.4615,-4.4615,-4.4615,-4.4615,-4.4615,-4.4615,-4.4615,-4.4615,-4.4615,-4.4615,-4.4632,-4.5613,-4.6786,-4.6819,-4.7834,-4.9001,-4.9032,-4.9032,-4.9032,-4.9063,-4.9046,-4.9182,-4.9774,-4.9948,-5.0056,-5.0616,-5.0751,-5.0751,-5.0761,-5.0778,-5.0938,-5.1525,-5.1626,0.0,0.0,0.0,0.0,0.0,-5.2475,-5.2228,-5.1644,-5.0587,-4.9656,-4.9063,-4.9001,-4.9001,-4.9001,-4.9001,-4.9001,-4.9001,-4.9001,-4.9001,-4.9001,-4.9001,-4.9001,-4.9001,-4.9001,-4.9001,-4.9001,-4.8863,-4.8818,-4.8818,-4.8818,-4.8707,-4.8547,-4.8877,-4.8925,-4.8818,-4.8956,-4.9001,-4.9001,-4.9001,-4.9001,-4.8917,-4.8206,-4.7906,-4.7787,-4.7897,-4.7836,-4.7917,-4.8248,-4.8035,-4.7653,-4.7075,-4.6986,-4.6781,-4.6123,-4.58,-4.5485,-4.5159,-4.4841,-4.4682,-4.4682,-4.4643,-4.472,-4.5015,-4.532,-4.5622,-4.5933,-4.624,-4.646,-4.6664,-4.6664,-4.6728,-4.6855,-4.6855,-4.6804,-4.6707,-4.6165,-4.5775,-4.5563,-4.5062,-4.4748,-4.4615,-4.4615,-4.4615,-4.4615,-4.4615,-4.4615,-4.4615,-4.4615,-4.4615,-4.4615,-4.4615,-4.4615,-4.4615,-4.4615,-4.5246,-4.616,-4.665,-4.7479,-4.8392,-4.8866,-4.9001,-4.9001,-4.9001,-4.9001,-4.9063,-4.9243,-4.9303,-4.9466,-5.0028,-5.017,-5.0265,-5.0643,-5.0697,-5.0778,-5.0982,-5.1329,0.0,0.0,0.0,0.0,0.0,-5.2498,-5.2138,-5.1113,-5.0661,-5.0039,-4.9077,-4.9001,-4.9001,-4.9001,-4.9001,-4.9001,-4.9001,-4.9001,-4.9001,-4.9001,-4.9001,-4.9001,-4.9001,-4.9001,-4.8956,-4.8863,-4.8925,-4.8815,-4.8595,-4.8738,-4.8707,-4.8515,-4.8753,-4.8832,-4.8818,-4.894,-4.9001,-4.9001,-4.9001,-4.9001,-4.8968,-4.8731,-4.8646,-4.8565,-4.7399,-4.7356,-4.7442,-4.7754,-4.7506,-4.7075,-4.6501,-4.6382,-4.6116,-4.5451,-4.5311,-4.5115,-4.4776,-4.4654,-4.4615,-4.4615,-4.4615,-4.4626,-4.472,-4.4998,-4.5205,-4.5311,-4.5597,-4.584,-4.6014,-4.5996,-4.6063,-4.6238,-4.6238,-4.6172,-4.6074,-4.5563,-4.5303,-4.5276,-4.4814,-4.4615,-4.4615,-4.4615,-4.4615,-4.4615,-4.4615,-4.4615,-4.4598,-4.4514,-4.4542,-4.4615,-4.4615,-4.4615,-4.4615,-4.4615,-4.5077,-4.5838,-4.6566,-4.731,-4.8024,-4.8781,-4.9001,-4.9001,-4.9001,-4.9001,-4.9001,-4.9001,-4.9001,-4.9077,-4.9496,-4.9585,-4.9686,-5.0039,-5.0079,-5.0163,-5.0387,-5.0733,0.0,0.0,0.0,0.0,0.0,-5.2233,-5.2,-5.0579,-5.0589,-5.0248,-4.9107,-4.9001,-4.9001,-4.9001,-4.9001,0.0,0.0,-4.9001,-4.9001,-4.9001,-4.9001,-4.9001,-4.9001,-4.894,-4.8894,-4.8818,-4.8753,-4.861,-4.8388,-4.8532,-4.8564,-4.8515,-4.8707,-4.8849,-4.8894,-4.897,-4.9001,-4.9001,-4.9001,-4.9001,-4.9001,-4.9001,-4.897,-4.8894,-4.6863,-4.684,-4.6817,-4.6817,-4.673,-4.6454,-4.5943,-4.5742,-4.5451,-4.4886,-4.4776,-4.4737,-4.4598,-4.4615,-4.4615,-4.4615,-4.4615,-4.4615,-4.4615,-4.4615,-4.4615,-4.4615,-4.4615,-4.4814,-4.5267,-4.5267,-4.5511,-4.6042,-4.6042,-4.6042,-4.6,-4.5511,-4.5267,-4.5241,-4.4814,-4.4615,-4.4615,-4.4615,-4.4615,-4.4615,-4.4615,-4.4598,-4.457,-4.4367,-4.4412,-4.4587,-4.457,-4.4587,-4.4587,-4.4615,-4.506,-4.5788,-4.6549,-4.7293,-4.799,-4.8781,-4.9001,-4.9001,-4.9001,-4.9001,-4.9001,-4.9001,-4.9001,-4.9001,-4.9001,-4.9001,-4.9001,-4.9001,-4.9001,-4.9168,-4.9744,-4.989,0.0,0.0,0.0,0.0,0.0,-5.1676,-5.1786,-5.0102,-5.0331,-5.022,-4.9107,-4.9001,-4.9001,-4.9001,0.0,0.0,0.0,-4.9001,-4.9001,-4.9001,-4.9001,-4.9001,-4.9001,-4.8863,-4.8786,-4.8786,-4.8405,-4.8195,-4.8195,-4.8195,-4.8292,-4.8483,-4.8675,-4.8863,-4.897,-4.897,-4.9001,-4.9001,-4.897,-4.897,-4.897,-4.9001,-4.8894,-4.8707,-4.622,-4.5784,-4.5485,-4.5485,-4.5759,-4.5767,-4.5186,-4.5052,-4.4934,-4.4682,-4.4654,-4.4626,-4.4598,-4.4615,-4.4615,-4.4615,-4.4615,-4.4615,-4.4615,-4.4615,-4.4615,-4.4615,-4.4615,-4.4654,-4.4786,-4.4786,-4.4841,-4.4988,-4.4988,-4.4988,-4.4988,-4.4841,-4.4786,-4.4759,-4.4654,-4.4615,-4.4615,-4.4615,-4.4615,-4.4615,-4.4615,-4.4514,-4.4367,-4.4338,-4.4253,-4.4241,-4.4355,-4.4367,-4.4412,-4.4542,-4.4733,-4.5122,-4.638,-4.6921,-4.7327,-4.8629,-4.9001,-4.9001,-4.9001,-4.9001,-4.9001,-4.9001,-4.9001,-4.9001,-4.9001,-4.9001,-4.9001,-4.9001,-4.9001,-4.9063,-4.9199,-4.9615,-4.9948,0.0,0.0,0.0,0.0,-5.0964,-5.0849,-4.9988,-5.0017,-4.9815,-4.9077,-4.9001,-4.9001,-4.9001,-4.9001,0.0,-4.9001,-4.9001,-4.9001,-4.9001,-4.9001,-4.9001,-4.9001,-4.8863,-4.8738,-4.8595,-4.8483,-4.8292,-4.8049,-4.813,-4.8163,-4.8147,-4.8276,-4.8468,-4.8642,-4.8642,-4.8784,-4.897,-4.8721,-4.8642,-4.8642,-4.8801,-4.8627,-4.834,-4.5631,-4.5213,-4.4896,-4.4896,-4.5079,-4.5115,-4.4858,-4.4765,-4.4682,-4.4598,-4.4615,-4.4615,-4.4615,-4.4615,-4.4615,-4.4615,-4.4615,-4.4615,-4.4615,-4.4615,-4.4615,-4.4615,-4.4615,-4.4615,-4.4615,-4.4615,-4.4615,-4.4615,-4.4615,-4.4615,-4.4615,-4.4615,-4.4615,-4.4615,-4.4615,-4.4615,-4.4615,-4.4615,-4.4615,-4.4615,-4.4615,-4.4468,0.0,-4.4224,-4.4126,-4.4027,-4.4097,-4.4167,-4.4224,-4.4412,-4.4412,-4.4653,-4.63,-4.6756,-4.6984,-4.8531,-4.9001,-4.9001,-4.9001,-4.9001,-4.9001,-4.9001,-4.9001,-4.9001,-4.9001,-4.9001,-4.9001,-4.9001,-4.9001,-4.9001,-4.9001,-4.9273,-4.9496,0.0,0.0,0.0,-4.9982,-5.0387,-5.0397,-4.9598,-4.9744,-4.9656,-4.9063,-4.9001,-4.9001,-4.9001,-4.9001,-4.9001,-4.9001,-4.9001,-4.9001,-4.9001,-4.9001,-4.9001,-4.9001,-4.8863,-4.8707,-4.8515,-4.842,-4.8244,-4.8001,-4.8082,-4.8115,-4.8082,-4.8179,-4.8324,-4.8515,-4.8515,-4.861,-4.8767,-4.8578,-4.8452,-4.8388,-4.85,-4.8405,-4.8195,-4.5123,-4.4923,-4.4776,-4.4776,-4.4682,-4.4626,-4.4765,-4.4682,-4.4615,-4.4615,-4.4615,-4.4615,-4.4615,-4.4615,-4.4615,-4.4615,-4.4615,-4.4615,-4.4615,-4.4615,-4.4615,-4.4615,-4.4615,-4.4615,-4.4615,-4.4615,-4.4615,-4.4615,-4.4615,-4.4615,-4.4615,-4.4615,-4.4615,0.0,0.0,0.0,0.0,-4.457,-4.4542,-4.4542,-4.4542,-4.4412,-4.4224,-4.4126,-4.3998,-4.3868,-4.3868,-4.3939,-4.4097,-4.4224,-4.4212,-4.4406,-4.6047,-4.6536,-4.6784,-4.8321,-4.8872,-4.894,-4.897,-4.897,-4.897,-4.9001,-4.9001,-4.9001,-4.9001,-4.9001,-4.9001,-4.9001,-4.9001,-4.9001,-4.9001,-4.9001,-4.9001,0.0,0.0,-4.9615,-4.9077,-4.9838,-5.0107,-4.9107,-4.9466,0.0,-4.9063,-4.9001,-4.9001,-4.9001,-4.9001,-4.9001,-4.9001,-4.9001,-4.9001,-4.9001,-4.9001,-4.9001,-4.9001,-4.8832,-4.8658,-4.8515,-4.826,-4.8049,-4.7853,-4.7853,-4.7836,-4.7869,-4.7869,-4.8049,-4.8307,-4.8307,-4.8339,-4.8452,-4.8452,-4.8356,-4.8163,-4.8163,-4.8163,-4.8179,-4.4737,-4.4654,-4.4626,-4.4626,-4.4615,-4.4598,-4.4626,-4.4615,-4.4615,-4.4615,-4.4615,-4.4615,-4.4615,-4.4615,-4.4615,-4.4615,-4.4615,-4.4615,-4.4615,-4.4615,-4.4615,-4.4615,-4.4615,-4.4615,-4.4615,-4.4615,-4.4615,-4.4615,-4.4615,-4.4615,-4.4615,-4.4615,-4.4615,0.0,0.0,0.0,-4.4338,-4.4338,-4.4298,-4.4184,-4.4184,-4.4114,-4.3969,-4.3939,-4.3822,-4.3658,-4.3658,-4.3763,-4.3956,-4.4097,-4.4126,-4.4248,-4.519,-4.5878,-4.6518,-4.7407,-4.8109,-4.861,-4.8801,-4.8849,-4.8863,-4.897,-4.9001,-4.9001,-4.9001,-4.9001,-4.9001,-4.9001,-4.9001,-4.9001,-4.9001,-4.9001,-4.9001,-4.9001,-4.9094,-4.9107,-4.9001,-4.9168,-4.9212,-4.9032,-4.9077,-4.9124,-4.9001,-4.9001,-4.9001,-4.9001,-4.9001,-4.9001,-4.9001,-4.9001,-4.9001,-4.9001,-4.9001,-4.9001,-4.9001,-4.8721,-4.8547,-4.8483,-4.8179,-4.7671,-4.6999,-4.6999,-4.6689,-4.6163,-4.6163,-4.662,-4.7321,-4.7169,-4.7505,-4.8099,-4.8195,-4.8163,-4.8033,-4.8033,-4.8033,-4.8033,-4.4643,-4.4615,-4.4615,-4.4615,-4.4615,-4.4615,-4.4615,-4.4615,-4.4615,-4.4615,-4.4615,-4.4615,-4.4615,-4.4615,-4.4615,-4.4615,-4.4615,-4.4615,-4.4615,-4.4615,-4.4615,-4.4615,-4.4615,-4.4615,-4.4615,-4.4615,-4.4615,-4.4615,-4.4615,-4.4615,-4.4615,-4.4615,-4.4615,-4.4615,0.0,-4.4395,0.0,-4.4224,-4.4155,-4.4097,-4.4097,-4.4027,-4.3898,-4.3898,-4.3763,-4.3598,-4.3598,-4.3658,-4.3763,-4.3939,-4.3939,-4.3997,-4.4921,-4.5674,-4.6349,-4.7163,-4.7914,-4.8515,-4.8627,-4.8627,-4.869,-4.8846,-4.8894,-4.8925,-4.897,-4.9001,-4.9001,-4.9001,-4.9001,-4.9001,-4.9001,-4.9001,-4.9001,-4.9001,-4.9001,-4.9001,-4.9001,-4.9001,-4.9001,-4.9001,-4.9001,-4.9001,-4.9001,-4.9001,-4.9001,-4.9001,-4.9001,-4.9001,-4.9001,-4.9001,-4.9001,-4.9001,-4.9001,-4.9001,-4.9001,-4.8784,-4.8403,-4.7885,-4.7622,-4.7084,-4.6218,-4.6218,-4.6056,-4.5697,-4.5697,-4.6147,-4.6965,-4.7303,-4.7638,-4.8001,-4.8049,-4.8066,-4.8001,-4.8001,-4.8001,-4.8001,-4.4626,-4.4615,-4.4615,-4.4615,-4.4615,-4.4615,-4.4615,-4.4615,-4.4615,-4.4615,-4.4615,-4.4615,-4.4615,-4.4615,-4.4615,-4.4615,-4.4615,-4.4615,-4.4615,-4.4615,-4.4615,-4.4615,-4.4615,-4.4615,-4.4615,-4.4615,-4.4615,-4.4615,-4.4615,-4.4615,-4.4615,-4.4615,-4.457,-4.4542,0.0,-4.4281,-4.4196,-4.4097,-4.401,-4.3981,-4.3981,-4.3939,-4.3839,-4.3839,-4.3734,-4.3598,-4.3598,-4.3598,-4.3628,-4.3763,-4.3734,-4.3757,-4.459,-4.539,-4.6179,-4.687,-4.7703,-4.8388,-4.842,-4.8452,-4.8483,-4.8675,-4.8738,-4.8769,-4.8877,-4.8909,-4.8909,-4.8956,-4.897,-4.9001,-4.9001,-4.9001,-4.9001,-4.9001,-4.9001,-4.9001,-4.9001,-4.9001,-4.9001,-4.9001,-4.9001,-4.9001,-4.9001,-4.9001,-4.9001,-4.9001,-4.9001,-4.9001,-4.9001,-4.9001,-4.9001,-4.9001,-4.9001,-4.9001,-4.9001,-4.8642,-4.8064,-4.729,-4.6967,-4.634,-4.5442,-4.5442,-4.5369,-4.5184,-4.5184,-4.5608,-4.6394,-4.7337,-4.7737,-4.7737,-4.7935,-4.8001,-4.8001,-4.8001,-4.8001,-4.8001,-4.4615,-4.4615,-4.4615,-4.4615,-4.4615,-4.4615,-4.4615,-4.4615,-4.4615,-4.4615,-4.4615,-4.4615,-4.4615,-4.4615,-4.4615,-4.4615,-4.4615,-4.4615,-4.4615,-4.4615,-4.4615,-4.4615,-4.4615,-4.4615,-4.4615,-4.4615,-4.4615,-4.4615,-4.4615,-4.4615,-4.4615,-4.4615,-4.4497,-4.4338,-4.431,-4.4167,-4.3927,-4.3927,-4.3822,-4.3658,-4.3658,-4.3628,-4.3628,-4.3628,-4.3628,-4.3598,-4.3598,-4.3598,-4.3598,-4.3628,-4.3628,-4.3615,-4.3711,-4.4702,-4.5846,-4.5943,-4.6955,-4.8049,-4.8212,-4.8227,-4.8292,-4.8483,-4.8515,-4.8515,-4.8547,-4.8547,-4.8595,-4.8769,-4.8925,-4.9001,-4.9001,-4.9001,-4.9001,-4.9001,-4.9001,-4.9001,-4.9001,-4.9001,-4.9001,-4.9001,-4.9001,-4.9001,-4.9001,-4.9001,-4.9001,-4.9001,-4.9001,-4.9001,-4.9001,-4.9001,-4.9001,-4.9001,-4.9001,-4.9001,-4.9001,-4.7966,-4.7406,-4.729,-4.6308,-4.5405,-4.4624,-4.4624,-4.422,-4.3512,-4.3512,-4.3989,-4.4834,-4.6308,-4.6931,-4.6999,-4.7704,-4.8001,-4.8001,-4.8001,-4.8001,-4.8001,-4.4615,-4.4615,-4.4615,-4.4615,-4.4615,-4.4615,-4.4615,-4.4615,-4.4615,-4.4615,-4.4615,-4.4615,-4.4615,-4.4615,-4.4615,-4.4615,-4.4615,-4.4615,-4.4615,-4.4615,-4.4615,-4.4615,-4.4615,-4.4615,-4.4615,-4.4615,-4.4615,-4.4615,-4.4615,-4.4615,-4.4615,-4.4468,-4.431,-4.4184,-4.4097,-4.3998,-4.3898,-4.3763,-4.3658,-4.3598,-4.3598,-4.3598,-4.3598,-4.3598,-4.3598,-4.3598,-4.3598,-4.3598,-4.3598,-4.3598,-4.3598,-4.3664,-4.4125,-4.497,-4.5881,-4.6328,-4.7189,-4.8001,-4.8066,-4.8082,-4.8115,-4.8292,-4.8324,-4.8356,-4.8483,-4.8515,-4.8515,-4.8595,-4.8769,-4.8894,-4.8894,-4.8956,-4.9001,-4.9001,-4.9001,-4.9001,-4.9001,-4.9001,-4.9001,-4.9001,-4.9001,-4.9001,-4.9001,-4.9001,-4.9001,-4.9001,-4.9001,-4.9001,-4.9001,-4.9001,-4.9001,-4.9001,-4.9001,-4.894,-4.8894,-4.8322,-4.7506,-4.6435,-4.5953,-4.5036,-4.3771,-4.3771,-4.3591,-4.3329,-4.381,-4.4182,-4.4586,-4.5681,-4.6394,-4.6811,-4.7152,-4.7555,-4.8001,-4.8001,-4.8001,-4.8001,-4.4615,-4.4615,-4.4615,-4.4615,-4.4615,-4.4615,-4.4615,-4.4412,-4.4338,-4.457,-4.4412,-4.4367,-4.457,-4.4615,-4.4615,-4.4615,-4.4615,-4.4615,-4.4615,-4.4615,-4.4615,-4.4615,-4.4615,-4.4615,-4.4615,-4.4615,-4.4615,-4.4615,-4.4615,-4.457,-4.4514,-4.4327,-4.4184,-4.4027,-4.3956,-4.3868,-4.3793,-4.3658,-4.3598,-4.3598,-4.3598,-4.3598,-4.3598,-4.3598,-4.3598,-4.3598,-4.3598,-4.3598,-4.3598,-4.3598,-4.3462,-4.3427,-4.4134,-4.4858,-4.5582,-4.6322,-4.7062,-4.7704,-4.7935,-4.8001,-4.8033,-4.8115,-4.8147,-4.8179,-4.8324,-4.8356,-4.8356,-4.842,-4.8564,-4.8707,-4.8707,-4.8784,-4.8846,-4.8846,-4.8846,-4.8846,-4.8846,-4.8909,-4.8956,-4.8956,-4.8987,-4.897,-4.8956,-4.8956,-4.8909,-4.8877,-4.8846,-4.8877,-4.8956,-4.8956,-4.8909,-4.8829,-4.8608,-4.845,-4.8371,-4.7737,-4.6779,-4.5577,-4.5169,-4.4396,-4.329,-4.329,-4.329,-4.3329,-4.3888,-4.4143,-4.422,-4.5258,-4.602,-4.6499,-4.6981,-4.7488,-4.8001,-4.8001,-4.7853,-4.7638,-4.4615,-4.4615,-4.4615,-4.4615,-4.4615,-4.4615,-4.4615,-4.3972,-4.3781,-4.4497,-4.3972,-4.381,-4.4514,-4.4615,-4.4615,-4.4615,-4.4615,-4.4615,-4.4615,-4.4615,-4.4615,-4.4615,-4.4615,-4.4615,-4.4615,-4.4615,-4.4615,-4.4615,-4.4615,-4.4514,-4.431,-4.4184,-4.4027,-4.3898,-4.3898,-4.3793,-4.3598,-4.3598,-4.3598,-4.3598,-4.3598,-4.3598,-4.3598,-4.3598,-4.3598,-4.3598,-4.3598,-4.3598,-4.3598,-4.3598,-4.3174,-4.2746,-4.3379,-4.4075,-4.4771,-4.5482,-4.6245,-4.6999,-4.777,-4.8001,-4.8001,-4.8001,-4.8001,-4.8001,-4.8001,-4.8001,-4.8017,-4.8179,-4.8356,-4.8515,-4.8515,-4.8515,-4.8515,-4.8515,-4.8515,-4.8515,-4.8515,-4.8675,-4.8818,-4.8818,-4.8925,-4.8956,-4.8818,-4.8818,-4.8707,-4.8515,-4.8515,-4.8578,-4.8769,-4.8818,-4.8707,-4.8515,-4.7737,-4.7323,-4.7323,-4.567,-4.4849,-4.4812,-4.381,-4.3329,-4.329,-4.329,-4.329,-4.329,-4.329,-4.3329,-4.3448,-4.5036,-4.5697,-4.5877,-4.7387,-4.8001,-4.8001,-4.8001,-4.7488,-4.6811,-4.4615,-4.4615,-4.4615,-4.4615,-4.4615,-4.444,-4.3943,-4.3647,-4.3423,-4.3183,-4.2953,-4.2862,-4.3031,-4.3856,-4.4355,-4.4286,-4.4258,-4.4258,-4.4258,-4.4355,-4.4412,-4.4412,-4.4412,-4.4468,-4.4615,-4.4372,-4.4298,-4.4412,-4.4298,-4.42,-4.4027,-4.3969,-4.3852,-4.3704,-4.3704,-4.3658,-4.3598,-4.3598,-4.3598,-4.3598,-4.3598,-4.3598,-4.3598,-4.3598,-4.3598,-4.3598,-4.3598,-4.3598,-4.3539,-4.3066,-4.2772,-4.2622,-4.2748,-4.3302,-4.4143,-4.5355,-4.5865,-4.6127,-4.6375,-4.641,-4.641,-4.641,-4.641,-4.641,-4.641,-4.641,-4.6445,-4.648,-4.6622,-4.6745,-4.6745,-4.6831,-4.6934,-4.6934,-4.734,-4.7489,-4.7002,-4.7901,-4.8403,-4.7852,-4.7836,-4.8047,-4.8564,-4.8096,-4.7967,-4.8467,-4.8515,-4.8515,-4.8595,-4.8595,-4.8322,-4.7688,-4.744,-4.6986,-4.633,-4.5814,-4.5227,-4.4586,-4.4259,-4.3849,-4.329,-4.329,-4.329,-4.329,-4.329,-4.329,-4.3329,-4.3849,-4.4412,-4.4999,-4.602,-4.641,-4.648,-4.7015,-4.6689,-4.604,-4.4615,-4.4615,-4.4514,-4.4253,-4.4179,-4.3943,-4.3227,-4.2923,-4.266,-4.2458,-4.2205,-4.2046,-4.2062,-4.3061,-4.3739,-4.368,-4.3935,-4.4126,-4.4184,-4.4253,-4.431,-4.431,-4.431,-4.4355,-4.44,-4.4229,-4.4155,-4.4224,-4.4097,-4.3969,-4.3898,-4.3822,-4.3734,-4.3598,-4.3598,-4.3598,-4.3598,-4.3598,-4.3598,-4.3598,-4.3598,-4.3598,-4.3598,-4.3598,-4.3598,-4.3598,-4.3598,-4.3432,-4.3174,-4.2741,-4.2382,-4.2194,-4.2339,-4.2736,-4.3423,-4.4856,-4.5258,-4.5332,-4.5624,-4.5697,-4.5697,-4.5697,-4.5697,-4.5697,-4.5697,-4.5697,-4.5697,-4.5697,-4.5753,-4.5809,-4.5809,-4.5937,-4.5992,-4.5992,-4.6381,-4.6555,-4.6064,-4.6882,-4.7339,-4.6815,-4.685,-4.7054,-4.7473,-4.7086,-4.6968,-4.7389,-4.7439,-4.7439,-4.7439,-4.8032,-4.7885,-4.6728,-4.6694,-4.6276,-4.5395,-4.5064,-4.4631,-4.4028,-4.4028,-4.3771,-4.329,-4.329,-4.329,-4.329,-4.329,-4.329,-4.3329,-4.3966,-4.4335,-4.4624,-4.5681,-4.5949,-4.5769,-4.6218,-4.5897,-4.5258,-4.4615,-4.4615,-4.4384,-4.3647,-4.3512,-4.3257,-4.2552,-4.1901,-4.1641,-4.2109,-4.1608,-4.1327,-4.1543,-4.2237,-4.2707,-4.2814,-4.3591,-4.4126,-4.4253,-4.4281,-4.4281,-4.4281,-4.4281,-4.4224,-4.4097,-4.4068,-4.4068,-4.4068,-4.3939,-4.3868,-4.3868,-4.3687,-4.3598,-4.3598,-4.3598,-4.3598,-4.3598,-4.3598,-4.3598,-4.3598,-4.3598,-4.3598,-4.3598,-4.3598,-4.3598,-4.3598,-4.3598,-4.3174,-4.2585,-4.2554,-4.2034,-4.152,-4.2119,-4.2356,-4.267,-4.4022,-4.4412,-4.4586,-4.5332,-4.5551,-4.5551,-4.5551,-4.5551,-4.5551,-4.5551,-4.5551,-4.5551,-4.5551,-4.5551,-4.5551,-4.5551,-4.5551,-4.5551,-4.5551,-4.5588,-4.5588,-4.5551,-4.5737,-4.5865,-4.583,-4.5977,-4.6012,-4.5885,-4.583,-4.5758,-4.5697,-4.5697,-4.566,-4.5624,-4.7135,-4.7287,-4.566,-4.5624,-4.5221,-4.4434,-4.3654,-4.329,-4.329,-4.329,-4.329,-4.329,-4.329,-4.329,-4.329,-4.329,-4.329,-4.3409,-4.4924,-4.511,-4.4548,-4.606,-4.6182,-4.5551,-4.5588,-4.511,-4.4412,-4.4615,-4.4615,-4.4384,-4.3647,-4.3512,-4.3106,-4.1933,-4.1608,-4.1343,-4.0836,-4.0662,-4.0439,-4.02,-4.0789,-4.1178,-4.1111,-4.2694,-4.3805,-4.3969,-4.3998,-4.3998,-4.3998,-4.3998,-4.4027,-4.4097,-4.3864,-4.3717,-4.3717,-4.3687,-4.3658,-4.3658,-4.3628,-4.3598,-4.3598,-4.3598,-4.3598,-4.3598,-4.3598,-4.3598,-4.3598,-4.3598,-4.3598,-4.3598,-4.3598,-4.3598,-4.3598,-4.3598,-4.3174,-4.2522,-4.1949,-4.1599,-4.1413,-4.1578,-4.1971,-4.2569,-4.3356,-4.3591,-4.363,-4.381,-4.3888,-4.3888,-4.3888,-4.3888,-4.3888,-4.3888,-4.3888,-4.3888,-4.3888,-4.3888,-4.3888,-4.3888,-4.3888,-4.3888,-4.3888,-4.4373,-4.4548,-4.3966,-4.4946,-4.5536,-4.4909,-4.4856,-4.5116,-4.5681,-4.5206,-4.5058,-4.566,-4.5697,-4.5442,-4.4812,-4.5753,-4.5825,-4.4812,-4.4774,-4.4412,-4.3591,-4.3409,-4.329,-4.329,-4.329,-4.329,-4.329,-4.329,-4.329,-4.329,-4.329,-4.329,-4.3329,-4.3693,-4.3771,-4.3669,-4.4646,-4.4548,-4.3966,-4.4548,-4.4259,-4.3591,-4.4105,-4.3856,-4.341,-4.2707,-4.2583,-4.2237,-4.1209,-4.099,-4.0802,-4.0366,-4.0207,-4.0066,-3.9854,-4.0355,-4.0703,-4.0737,-4.1884,-4.2694,-4.288,-4.3218,-4.3416,-4.3416,-4.3717,-4.3881,-4.3864,-4.3687,-4.3598,-4.3598,-4.3598,-4.3598,-4.3598,-4.3598,-4.3598,-4.3598,-4.3598,-4.3598,-4.3598,-4.3598,-4.3598,-4.3598,-4.3598,-4.3598,-4.3598,-4.3598,-4.3598,-4.3598,-4.3598,-4.2943,-4.2061,-4.1988,-4.1705,-4.1446,-4.1761,-4.2321,-4.288,-4.3185,-4.329,-4.329,-4.329,-4.329,-4.329,-4.329,-4.329,-4.329,-4.329,-4.329,-4.329,-4.329,-4.329,-4.329,-4.329,-4.329,-4.329,-4.329,-4.3669,-4.381,-4.3369,-4.4028,-4.4434,-4.3989,-4.3966,-4.4105,-4.4548,-4.422,-4.4143,-4.4548,-4.4586,-4.4412,-4.395,-4.4373,-4.4396,-4.3966,-4.4297,-4.4105,-4.329,-4.329,-4.329,-4.329,-4.329,-4.329,-4.329,-4.329,-4.329,-4.329,-4.329,-4.329,-4.3329,-4.3708,-4.363,-4.3369,-4.4182,-4.4004,-4.3369,-4.3771,-4.3669,-4.329,-4.3363,-4.2892,-4.23,-4.1608,-4.1492,-4.1276,-4.0593,-4.0401,-4.0312,-4.0312,-4.0137,-4.0031,-4.0011,-4.0335,-4.06,-4.0805,-4.1026,-4.1344,-4.1674,-4.2269,-4.2599,-4.2599,-4.3325,-4.3628,-4.3462,-4.3568,-4.3598,-4.3598,-4.3598,-4.3598,-4.3598,-4.3598,-4.3598,-4.3598,-4.3598,-4.3598,-4.3598,-4.3598,-4.3598,-4.3598,-4.3598,-4.3598,-4.3598,-4.3598,-4.3598,-4.3598,-4.3598,-4.271,-4.1587,-4.2248,-4.1996,-4.1527,-4.2186,-4.2806,-4.329,-4.329,-4.329,-4.329,-4.329,-4.329,-4.329,-4.329,-4.329,-4.329,-4.329,-4.329,-4.329,-4.329,-4.329,-4.329,-4.329,-4.329,-4.329,-4.329,-4.329,-4.329,-4.329,-4.329,-4.329,-4.329,-4.329,-4.329,-4.329,-4.329,-4.329,-4.329,-4.329,-4.329,-4.329,-4.329,-4.329,-4.329,-4.3966,-4.4004,-4.329,-4.329,-4.329,-4.329,-4.329,-4.329,-4.329,-4.329,-4.329,-4.329,-4.329,-4.329,-4.3369,-4.4043,-4.3927,-4.3369,-4.4028,-4.3888,-4.329,-4.329,-4.329,-4.329,-4.2676,-4.2583,-4.23,-4.1608,-4.1492,-4.1276,-4.0593,-4.0489,-4.0436,-4.0296,-4.0277,-4.0172,-4.0011,-3.991,-3.9859,-3.9879,-3.9773,-4.0289,-4.1593,-4.169,-4.1706,-4.1706,-4.2412,-4.2789,-4.2741,-4.3295,-4.3598,-4.3598,-4.3598,-4.3598,-4.3598,-4.3598,-4.3598,-4.3598,-4.3598,-4.3598,-4.3598,-4.3598,-4.3598,-4.3598,-4.3598,-4.3598,-4.3598,-4.3598,-4.3598,-4.3598,-4.3598,-4.271,-4.1587,-4.2248,-4.1996,-4.1527,-4.2186,-4.2806,-4.329,-4.329,-4.329,-4.329,-4.329,-4.329,-4.329,-4.329,-4.329,-4.329,-4.329,-4.329,-4.329,-4.329,-4.329,-4.329,-4.329,-4.329,-4.329,-4.329,-4.329,-4.329,-4.329,-4.329,-4.329,-4.329,-4.329,-4.329,-4.329,-4.329,-4.329,-4.329,-4.329,-4.329,-4.329,-4.329,-4.329,-4.329,-4.3409,-4.3448,-4.329,-4.329,-4.329,-4.329,-4.329,-4.329,-4.329,-4.329,-4.329,-4.329,-4.329,-4.329,-4.329,-4.3433,-4.3409,-4.3329,-4.3448,-4.3409,-4.329,-4.329,-4.329,-4.329,-4.1949,-4.1673,-4.1343,-4.1024,-4.0956,-4.087,-4.0558,-4.0436,-4.0401,-4.0401,-4.0331,-4.0277,-4.0172,-3.9996,-3.9803,-3.9717,-3.9517,-3.9702,-4.0413,-4.0771,-4.0974,-4.0974,-4.1624,-4.2173,-4.2585,-4.2912,-4.3235,-4.3598,-4.3598,-4.3598,-4.3598,-4.3598,-4.3598,-4.3598,-4.3598,-4.3598,-4.3598,-4.3598,-4.3598,-4.3598,-4.3598,-4.3598,-4.3598,-4.3598,-4.3598,-4.3598,-4.3598,-4.271,-4.165,-4.269,-4.2304,-4.1549,-4.2566,-4.309,-4.329,-4.329,-4.329,-4.329,-4.329,-4.329,-4.329,-4.329,-4.329,-4.329,-4.329,-4.329,-4.329,-4.329,-4.329,-4.329,-4.329,-4.329,-4.329,-4.329,-4.329,-4.329,-4.329,-4.329,-4.329,-4.329,-4.329,-4.329,-4.329,-4.329,-4.329,-4.329,-4.329,-4.329,-4.329,-4.329,-4.329,-4.329,-4.329,-4.329,-4.329,-4.329,-4.329,-4.329,-4.329,-4.329,-4.329,-4.329,-4.329,-4.329,-4.329,-4.329,-4.329,-4.329,-4.329,-4.329,-4.329,-4.329,-4.329,-4.329,-4.329,-4.329,-4.1276,-4.0836,-4.0489,-4.0489,-4.0489,-4.0489,-4.0489,-4.0401,-4.0366,-4.0489,-4.0401,-4.0331,-4.0296,-4.0101,-3.9925,-3.9732,-3.9517,-3.9388,-3.9388,-3.9915,-4.0305,-4.0478,-4.1294,-4.2078,-4.282,-4.2834,-4.3066,-4.3598,-4.3598,-4.3598,-4.3598,-4.3598,-4.3598,-4.3598,-4.3598,-4.3598,-4.3598,-4.3598,-4.3598,-4.3598,-4.3598,-4.3598,-4.3598,-4.3598,-4.3598,-4.3598,-4.3598,-4.2917,-4.215,-4.315,-4.2767,-4.2055,-4.301,-4.329,-4.329,-4.329,-4.329,-4.329,-4.329,-4.329,-4.329,-4.329,-4.329,-4.329,-4.329,-4.329,-4.329,-4.329,-4.329,-4.329,-4.329,-4.329,-4.329,-4.329,-4.329,-4.329,-4.329,-4.329,-4.329,-4.329,-4.329,-4.329,-4.329,-4.329,-4.329,-4.329,-4.329,-4.329,-4.329,-4.329,-4.329,-4.329,-4.329,-4.329,-4.329,-4.329,-4.329,-4.329,-4.329,-4.329,-4.329,-4.329,-4.329,-4.329,-4.329,-4.329,-4.329,-4.329,-4.329,-4.329,-4.329,-4.329,-4.329,-4.329,-4.329,-4.329,-4.0593,-4.0524,-4.0489,-4.0489,-4.0489,-4.0489,-4.0489,-4.0489,-4.0489,-4.0489,-4.0489,-4.0436,-4.0296,-4.0101,-3.9925,-3.9732,-3.9517,-3.9388,-3.9388,-3.9445,-3.9788,-4.0478,-4.1803,-4.2851,-4.3492,-4.3539,-4.3568,-4.3598,-4.3598,-4.3598,-4.3598,-4.3598,-4.3598,-4.3598,-4.3598,-4.3598,-4.3598,-4.3598,-4.3598,-4.3598,-4.3598,-4.3598,-4.3598,-4.3598,-4.3598,-4.3598,-4.3598,-4.357,-4.3525,-4.3513,-4.3437,-4.3348,-4.3326,-4.329,-4.329,-4.329,-4.329,-4.329,-4.329,-4.329,-4.329,-4.329,-4.329,-4.329,-4.329,-4.329,-4.329,-4.329,-4.329,-4.329,-4.329,-4.329,-4.329,-4.329,-4.329,-4.329,-4.329,-4.329,-4.329,-4.329,-4.329,-4.329,-4.329,-4.329,-4.329,-4.329,-4.329,-4.329,-4.329,-4.329,-4.329,-4.329,-4.329,-4.329,-4.329,-4.329,-4.329,-4.329,-4.329,-4.329,-4.329,-4.329,-4.329,-4.329,-4.329,-4.329,-4.329,-4.329,-4.329,-4.329,-4.329,-4.329,-4.329,-4.329,-4.329,-4.329,-4.0489,-4.0489,-4.0489,-4.0489,-4.0489,-4.0489,-4.0489,-4.0489,-4.0489,-4.0489,-4.0436,-4.0296,-4.0137,-3.991,-3.9732,-3.9517,-3.9445,-3.9388,-3.9388,-3.9388,-3.9717,-4.0478,-4.1393,-4.2253,-4.2974,-4.2974,-4.3174,-4.3598,-4.3598,-4.3598,-4.3598,-4.3598,-4.3598,-4.3598,-4.3598,-4.3598,-4.3598,-4.3598,-4.3598,-4.3598,-4.3598,-4.3372,-4.3035,-4.3432,-4.3325,-4.3084,-4.3957,-4.4041,-4.3735,-4.4071,-4.3898,-4.3484,-4.3341,-4.329,-4.329,-4.329,-4.329,-4.329,-4.329,-4.329,-4.329,-4.329,-4.329,-4.329,-4.329,-4.329,-4.329,-4.329,-4.329,-4.329,-4.329,-4.329,-4.329,-4.329,-4.329,-4.329,-4.329,-4.329,-4.329,-4.329,-4.329,-4.329,-4.329,-4.329,-4.329,-4.329,-4.329,-4.329,-4.329,-4.329,-4.329,-4.329,-4.329,-4.329,-4.329,-4.329,-4.329,-4.329,-4.329,-4.329,-4.329,-4.329,-4.329,-4.329,-4.329,-4.329,-4.329,-4.329,-4.329,-4.329,-4.329,-4.329,-4.329,-4.329,-4.329,-4.329,-4.0489,-4.0489,-4.0489,-4.0489,-4.0489,-4.0489,-4.0489,-4.0489,-4.0489,-4.0436,-4.0366,-4.0207,-3.9925,-3.9768,-3.9717,-3.9753,-3.9517,-3.9481,-3.9717,-3.9753,-4.0091,-4.0771,-4.1492,-4.219,-4.2912,-4.2912,-4.3143,-4.3598,-4.3598,-4.3598,-4.3598,-4.3598,-4.3598,-4.3598,-4.3598,-4.3598,-4.3598,-4.3372,-4.3295,-4.3265,-4.3035,-4.2679,-4.2317,-4.3005,-4.3152,-4.3116,-4.4276,-4.4692,-4.4675,-4.4636,-4.4402,-4.4096,-4.3479,-4.329,-4.329,-4.329,-4.329,-4.329,-4.329,-4.329,-4.329,-4.329,-4.329,-4.329,-4.329,-4.329,-4.329,-4.329,-4.329,-4.329,-4.329,-4.329,-4.329,-4.329,-4.329,-4.329,-4.329,-4.329,-4.329,-4.329,-4.329,-4.329,-4.329,-4.329,-4.329,-4.329,-4.329,-4.329,-4.329,-4.329,-4.329,-4.329,-4.329,-4.329,-4.329,-4.329,-4.329,-4.329,-4.329,-4.329,-4.329,-4.329,-4.329,-4.329,-4.329,-4.329,-4.329,-4.329,-4.329,-4.329,-4.329,-4.329,-4.329,-4.329,-4.329,-4.329,-4.0489,-4.0489,-4.0489,-4.0489,-4.0489,-4.0489,-4.0489,-4.0489,-4.0455,-4.0312,-4.0312,-4.0156,-3.9753,-3.9681,-3.9915,-4.0443,-3.9809,-3.9717,-4.0443,-4.0512,-4.0805,-4.1492,-4.2221,-4.2912,-4.3598,-4.3598,-4.3598,-4.3598,-4.3598,-4.3598,-4.3598,-4.3598,-4.3598,-4.3598,-4.3598,-4.3598,-4.3568,-4.2881,-4.2617,-4.2554,-4.1787,-4.1525,-4.1591,-4.2317,-4.307,-4.3798,-4.4474,-4.5649,-4.6649,-4.5144,-4.5076,-4.5442,-4.381,-4.329,-4.329,-4.329,-4.329,-4.329,-4.329,-4.329,-4.329,-4.329,-4.329,-4.329,-4.329,-4.329,-4.329,-4.329,-4.329,-4.329,-4.329,-4.329,-4.329,-4.329,-4.329,-4.329,-4.329,-4.329,-4.329,-4.329,-4.329,-4.329,-4.329,-4.329,-4.329,-4.329,-4.329,-4.329,-4.329,-4.329,-4.329,-4.329,-4.329,-4.329,-4.329,-4.329,-4.329,-4.329,-4.329,-4.329,-4.329,-4.329,-4.329,-4.329,-4.329,-4.329,-4.329,-4.329,-4.329,-4.329,-4.329,-4.329,-4.329,-4.329,-4.329,-4.329,-4.0597,-4.0489,-4.0489,-4.0489,-4.0489,-4.0489,-4.0489,-4.0489,-4.0455,-4.0312,-4.0172,-3.9996,-3.9732,-3.9589,-3.9553,-3.9717,-3.9517,-3.9717,-4.0443,-4.094,-4.1525,-4.2253,-4.2475,-4.2679,-4.2881,-4.3372,-4.3598,-4.3598,-4.3598,-4.3598,-4.3598,-4.3598,-4.3598,-4.3598,-4.3598,-4.3598,-4.3598,-4.3402,-4.3035,-4.2585,-4.2349,-4.1949,-4.1591,-4.2317,-4.307,-4.3863,-4.505,-4.6079,-4.6732,-4.5719,-4.5523,-4.5442,-4.381,-4.329,-4.329,-4.329,-4.329,-4.329,-4.329,-4.329,-4.329,-4.329,-4.329,-4.329,-4.329,-4.329,-4.329,-4.329,-4.329,-4.329,-4.329,-4.329,-4.329,-4.329,-4.329,-4.329,-4.329,-4.329,-4.329,-4.329,-4.329,-4.329,-4.329,-4.329,-4.329,-4.329,-4.329,-4.329,-4.329,-4.329,-4.329,-4.329,-4.329,-4.329,-4.329,-4.329,-4.329,-4.329,-4.329,-4.329,-4.329,-4.329,-4.329,-4.329,-4.329,-4.329,-4.329,-4.329,-4.329,-4.329,-4.329,-4.329,-4.329,-4.329,-4.329,-4.329,-4.1397,-4.114,-4.0955,-4.0955,-4.0674,-4.0489,-4.0489,-4.0489,-4.0436,-4.0207,-4.0081,-3.9889,-3.9625,-3.9481,-3.9517,-3.9824,-3.9859,-4.0021,-4.0478,-4.0873,-4.1426,-4.2126,-4.2443,-4.271,-4.3005,-4.3402,-4.3598,-4.3598,-4.3598,-4.3598,-4.3598,-4.3598,-4.3598,-4.3598,-4.3598,-4.3598,-4.3582,-4.3312,-4.2974,-4.2585,-4.2285,-4.2076,-4.1987,-4.2396,-4.3379,-4.4643,-4.5472,-4.6452,-4.716,-4.6055,-4.5295,-4.4586,-4.3591,-4.329,-4.329,-4.329,-4.329,-4.329,-4.329,-4.329,-4.329,-4.329,-4.329,-4.329,-4.329,-4.329,-4.329,-4.329,-4.329,-4.329,-4.329,-4.329,-4.329,-4.329,-4.329,-4.329,-4.329,-4.329,-4.329,-4.329,-4.329,-4.329,-4.329,-4.329,-4.329,-4.329,-4.329,-4.329,-4.329,-4.329,-4.329,-4.329,-4.329,-4.329,-4.329,-4.329,-4.329,-4.329,-4.329,-4.329,-4.329,-4.329,-4.329,-4.329,-4.329,-4.329,-4.329,-4.329,-4.329,-4.329,-4.329,-4.329,-4.329,-4.329,-4.329,-4.329,-4.2617,-4.2109,-4.1694,-4.1694,-4.114,-4.0659,-4.0597,-4.0597,-4.0462,-4.0081,-4.0031,-3.9854,-3.9445,-3.9424,-3.9681,-4.0339,-4.0443,-4.0512,-4.0512,-4.0547,-4.0907,-4.1558,-4.2253,-4.2912,-4.3598,-4.3598,-4.3598,-4.3598,-4.3598,-4.3598,-4.3598,-4.3598,-4.3598,-4.3598,-4.3598,-4.3598,-4.3568,-4.2943,-4.2617,-4.2459,-4.1818,-4.195,-4.2503,-4.248,-4.3811,-4.5691,-4.5709,-4.6599,-4.7571,-4.6092,-4.4586,-4.329,-4.329,-4.329,-4.329,-4.329,-4.329,-4.329,-4.329,-4.329,-4.329,-4.329,-4.329,-4.329,-4.329,-4.329,-4.329,-4.329,-4.329,-4.329,-4.329,-4.329,-4.329,-4.329,-4.329,-4.329,-4.329,-4.329,-4.329,-4.329,-4.329,-4.329,-4.329,-4.329,-4.329,-4.329,-4.329,-4.329,-4.329,-4.329,-4.329,-4.329,-4.329,-4.329,-4.329,-4.329,-4.329,-4.329,-4.329,-4.329,-4.329,-4.329,-4.329,-4.329,-4.329,-4.329,-4.329,-4.329,-4.329,-4.329,-4.329,-4.329,-4.329,-4.329,-4.329,-4.329,-4.2709,-4.2494,-4.2386,-4.2386,-4.2263,-4.1986,-4.1447,-4.137,-4.11,-4.0338,-4.0242,-4.0101,-3.9696,-3.9625,-3.9661,-3.9661,-4.0181,-4.0512,-4.0512,-4.1008,-4.1591,-4.2317,-4.2522,-4.2912,-4.3598,-4.3598,-4.3598,-4.3598,-4.3598,-4.3598,-4.3598,-4.3598,-4.3598,-4.3598,-4.3598,-4.3598,-4.3598,-4.3432,-4.2741,-4.1769,-4.2159,-4.2037,-4.1724,-4.2226,-4.3439,-4.4919,-4.5506,-4.5888,-4.6056,-4.511,-4.4105,-4.329,-4.329,-4.329,-4.329,-4.329,-4.329,-4.329,-4.329,-4.329,-4.329,-4.329,-4.329,-4.329,-4.329,-4.329,-4.329,-4.329,-4.329,-4.329,-4.329,-4.329,-4.329,-4.329,-4.329,-4.329,-4.329,-4.329,-4.329,-4.329,-4.329,-4.329,-4.329,-4.329,-4.329,-4.329,-4.329,-4.329,-4.329,-4.329,-4.329,-4.329,-4.329,-4.329,-4.329,-4.329,-4.329,-4.329,-4.329,-4.329,-4.329,-4.329,-4.329,-4.329,-4.329,-4.329,-4.329,-4.329,-4.329,-4.329,-4.329,-4.329,-4.329,-4.329,-4.329,-4.329,-4.3618,-4.3294,-4.3063,-4.3063,-4.2817,-4.2494,-4.2125,-4.2078,-4.1761,-4.0878,-4.0786,-4.0522,-3.992,-3.9839,-3.9768,-3.9553,-3.9824,-4.0111,-4.0478,-4.1127,-4.1819,-4.2585,-4.2912,-4.3235,-4.3598,-4.3598,-4.3598,-4.3598,-4.3598,-4.3598,-4.3598,-4.3598,-4.3598,-4.3598,-4.3598,-4.3598,-4.3598,-4.3598,-4.3401,-4.3072,-4.3412,-4.3749,-4.4008,-4.3997,-4.4896,-4.6209,-4.6227,-4.6003,-4.5588,-4.4774,-4.3966,-4.329,-4.329,-4.329,-4.329,-4.329,-4.329,-4.329,-4.329,-4.329,-4.329,-4.329,-4.329,-4.329,-4.329,-4.329,-4.329,-4.329,-4.329,-4.329,-4.329,-4.329,-4.329,-4.329,-4.329,-4.329,-4.329,-4.329,-4.329,-4.329,-4.329,-4.329,-4.329,-4.329,-4.329,-4.329,-4.329,-4.329,-4.329,-4.329,-4.329,-4.329,-4.329,-4.329,-4.329,-4.329,-4.3454,-4.3753,-4.3439,-4.3454,-4.3768,-4.3768,-4.3932,-4.4272,-4.4272,-4.4272,-4.4272,-4.4272,-4.4272,-4.4272,-4.4272,-4.4077,-4.3768,-4.3768,-4.3559,-4.329,-4.461,-4.4163,-4.3778,-4.3778,-4.3294,-4.291,-4.2786,-4.2771,-4.2489,-4.1617,-4.1526,-4.1194,-4.0325,-4.0071,-3.9854,-3.9661,-3.961,-3.9773,-4.0285,-4.094,-4.1656,-4.238,-4.2943,-4.3355,-4.3598,-4.3598,-4.3598,-4.3598,-4.3598,-4.3598,-4.3598,-4.3598,-4.3598,-4.3598,-4.3598,-4.3664,-4.378,-4.378,-4.4056,-4.4514,-4.477,-4.545,-4.6274,-4.5855,-4.6411,-4.7337,-4.6793,-4.6218,-4.5551,-4.4624,-4.3966,-4.3472,-4.3329,-4.329,-4.329,-4.329,-4.329,-4.329,-4.329,-4.329,-4.329,-4.329,-4.329,-4.329,-4.329,-4.329,-4.329,-4.329,-4.329,-4.329,-4.329,-4.329,-4.329,-4.329,-4.329,-4.329,-4.329,-4.329,-4.329,-4.329,-4.329,-4.329,-4.329,-4.329,-4.329,-4.329,-4.329,-4.329,-4.329,-4.329,-4.329,-4.329,-4.329,-4.3349,-4.3469,-4.3469,-4.3798,-4.4466,-4.3888,-4.3917,-4.4481,-4.4481,-4.4781,-4.5289,-4.5289,-4.5289,-4.5289,-4.5289,-4.5289,-4.5289,-4.5289,-4.496,-4.4481,-4.4481,-4.4137,-4.3618,-4.461,-4.4548,-4.4471,-4.4471,-4.4409,-4.411,-4.3562,-4.347,-4.3202,-4.2519,-4.2427,-4.2093,-4.1209,-4.0294,-3.9661,-3.9445,-4.0021,-4.0111,-3.9589,-4.025,-4.094,-4.1624,-4.1722,-4.2349,-4.3568,-4.3598,-4.3598,-4.3598,-4.3598,-4.3598,-4.3598,-4.3598,-4.3598,-4.3598,-4.3598,-4.3959,-4.4539,-4.4539,-4.4233,-4.3858,-4.5059,-4.4902,-4.4107,-4.5246,-4.5384,-4.5058,-4.5645,-4.5769,-4.5478,-4.3966,-4.3849,-4.422,-4.3512,-4.329,-4.329,-4.329,-4.329,-4.329,-4.329,-4.329,-4.329,-4.329,-4.329,-4.329,-4.329,-4.329,-4.329,-4.329,-4.329,-4.329,-4.329,-4.329,-4.329,-4.329,-4.329,-4.329,-4.329,-4.329,-4.329,-4.329,-4.329,-4.329,-4.329,-4.329,-4.329,-4.329,-4.329,-4.329,-4.329,-4.329,-4.329,-4.329,-4.329,-4.3559,-4.4182,-4.4182,-4.4511,-4.5155,-4.5065,-4.508,-4.5155,-4.5155,-4.5214,-4.5289,-4.5289,-4.5289,-4.5289,-4.5289,-4.5289,-4.5289,-4.5289,-4.5244,-4.5155,-4.5155,-4.511,-4.5035,-4.461,-4.461,-4.461,-4.461,-4.461,-4.4517,-4.4209,-4.4178,-4.3932,-4.3233,-4.314,-4.2894,-4.2109,-4.1488,-4.1052,-4.0848,-4.0703,-4.044,-3.9999,-4.0643,-4.1194,-4.1492,-4.2237,-4.2974,-4.3598,-4.3598,-4.3598,-4.3598,-4.3598,-4.3598,-4.3598,-4.3598,-4.3813,-4.4224,-4.4224,-4.4375,-4.4671,-4.5129,-4.487,-4.4281,-4.5763,-4.5952,-4.5453,-4.6576,-4.6775,-4.6445,-4.6359,-4.6324,-4.6147,-4.502,-4.4586,-4.4434,-4.4066,-4.3669,-4.329,-4.329,-4.329,-4.329,-4.329,-4.329,-4.329,-4.329,-4.329,-4.329,-4.329,-4.329,-4.329,-4.329,-4.329,-4.329,-4.329,-4.329,-4.329,-4.329,-4.329,-4.329,-4.329,-4.329,-4.329,-4.329,-4.329,-4.329,-4.329,-4.329,-4.329,-4.329,-4.329,-4.329,-4.329,-4.329,-4.329,-4.329,-4.3648,-4.4018,-4.4317,-4.4676,-4.52,-4.5873,-4.5873,-4.5873,-4.5873,-4.5873,-4.6067,-4.6426,-4.6426,-4.6426,-4.6426,-4.6426,-4.6426,-4.6426,-4.6426,-4.6202,-4.5813,-4.5439,-4.5289,-4.5289]},{"header":{"parameterUnit":"m.s-1","parameterCategory":1,"la1":30.6,"la2":28.766,"lo1":-90.7593,"lo2":-88.6598,"dy":0.0162,"dx":0.0183,"nx":116,"ny":114,"refTime":"2024-04-12T18:00:00:Z","depth":0,"parameterNumber":3,"parameterNumberName":"V-component_of_WINDS"},"data":[0.0,0.0,0.0,0.0,0.0,0.0,0.0,0.0,0.0,0.0,0.0,0.0,0.0,0.0,0.0,0.0,0.0,0.0,0.0,0.0,0.0,0.0,0.0,0.0,0.0,0.0,0.0,0.0,0.0,0.0,0.0,0.0,0.0,0.0,0.0,0.0,0.0,0.0,0.0,0.0,0.0,0.0,0.0,0.0,0.0,0.0,0.0,0.0,0.0,0.0,0.0,0.0,0.0,0.0,0.0,0.0,0.0,0.0,0.0,0.0,0.0,0.0,0.0,0.0,0.0,0.0,0.0,0.0,0.0,0.0,0.0,0.0,0.0,0.0,0.0,0.0,0.0,0.0,0.0,0.0,0.0,0.0,0.0,0.0,0.0,0.0,0.0,0.0,0.0,0.0,0.0,0.0,0.0,0.0,0.0,0.0,0.0,0.0,0.0,0.0,0.0,0.0,0.0,0.0,0.0,0.0,0.0,0.0,0.0,0.0,0.0,0.0,0.0,0.0,0.0,0.0,0.0,0.0,0.0,0.0,0.0,0.0,0.0,0.0,0.0,0.0,0.0,0.0,0.0,0.0,0.0,0.0,0.0,0.0,0.0,0.0,0.0,0.0,0.0,0.0,0.0,0.0,0.0,0.0,0.0,0.0,0.0,0.0,0.0,0.0,0.0,0.0,0.0,0.0,0.0,0.0,0.0,0.0,0.0,0.0,0.0,0.0,0.0,0.0,0.0,0.0,0.0,0.0,0.0,0.0,0.0,0.0,0.0,0.0,0.0,0.0,0.0,0.0,0.0,0.0,0.0,0.0,0.0,0.0,0.0,0.0,0.0,0.0,0.0,0.0,0.0,0.0,0.0,0.0,0.0,0.0,0.0,0.0,0.0,0.0,0.0,0.0,0.0,0.0,0.0,0.0,0.0,0.0,0.0,0.0,0.0,0.0,0.0,0.0,0.0,0.0,0.0,0.0,0.0,0.0,0.0,0.0,0.0,0.0,0.0,0.0,0.0,0.0,0.0,0.0,0.0,0.0,0.0,0.0,0.0,0.0,0.0,0.0,0.0,0.0,0.0,0.0,0.0,0.0,0.0,0.0,0.0,0.0,0.0,0.0,0.0,0.0,0.0,0.0,0.0,0.0,0.0,0.0,0.0,0.0,0.0,0.0,0.0,0.0,0.0,0.0,0.0,0.0,0.0,0.0,0.0,0.0,0.0,0.0,0.0,0.0,0.0,0.0,0.0,0.0,0.0,0.0,0.0,0.0,0.0,0.0,0.0,0.0,0.0,0.0,0.0,0.0,0.0,0.0,0.0,0.0,0.0,0.0,0.0,0.0,0.0,0.0,0.0,0.0,0.0,0.0,0.0,0.0,0.0,0.0,0.0,0.0,0.0,0.0,0.0,0.0,0.0,0.0,0.0,0.0,0.0,0.0,0.0,0.0,0.0,0.0,0.0,0.0,0.0,0.0,0.0,0.0,0.0,0.0,0.0,0.0,0.0,0.0,0.0,0.0,0.0,0.0,0.0,0.0,0.0,0.0,0.0,0.0,0.0,0.0,0.0,0.0,0.0,0.0,0.0,0.0,0.0,0.0,0.0,0.0,0.0,0.0,0.0,0.0,0.0,0.0,0.0,0.0,0.0,0.0,0.0,0.0,0.0,0.0,0.0,0.0,0.0,0.0,0.0,0.0,0.0,0.0,0.0,0.0,0.0,0.0,0.0,0.0,0.0,0.0,0.0,0.0,0.0,0.0,0.0,0.0,0.0,0.0,0.0,0.0,0.0,0.0,0.0,0.0,0.0,0.0,0.0,0.0,0.0,0.0,0.0,0.0,0.0,0.0,0.0,0.0,0.0,0.0,0.0,0.0,0.0,0.0,0.0,0.0,0.0,0.0,0.0,0.0,0.0,0.0,0.0,0.0,0.0,0.0,0.0,0.0,0.0,0.0,0.0,0.0,0.0,0.0,0.0,0.0,0.0,0.0,0.0,0.0,0.0,0.0,0.0,0.0,0.0,0.0,0.0,0.0,0.0,0.0,0.0,0.0,0.0,0.0,0.0,0.0,0.0,0.0,0.0,0.0,0.0,0.0,0.0,0.0,0.0,0.0,0.0,0.0,0.0,0.0,0.0,0.0,0.0,0.0,0.0,0.0,0.0,0.0,0.0,0.0,0.0,0.0,0.0,0.0,0.0,0.0,0.0,0.0,0.0,0.0,0.0,0.0,0.0,0.0,0.0,0.0,0.0,0.0,0.0,0.0,0.0,0.0,0.0,0.0,0.0,0.0,0.0,0.0,0.0,0.0,0.0,0.0,0.0,0.0,0.0,0.0,0.0,0.0,0.0,0.0,0.0,0.0,0.0,0.0,0.0,0.0,0.0,0.0,0.0,0.0,0.0,0.0,0.0,0.0,0.0,0.0,0.0,0.0,0.0,0.0,0.0,0.0,0.0,0.0,0.0,0.0,0.0,0.0,0.0,0.0,0.0,0.0,0.0,0.0,0.0,0.0,0.0,0.0,0.0,0.0,0.0,0.0,0.0,0.0,0.0,0.0,0.0,0.0,0.0,0.0,0.0,0.0,0.0,0.0,0.0,0.0,0.0,0.0,0.0,0.0,0.0,0.0,0.0,0.0,0.0,0.0,0.0,0.0,0.0,0.0,0.0,0.0,0.0,0.0,0.0,0.0,0.0,0.0,0.0,0.0,0.0,0.0,0.0,0.0,0.0,0.0,0.0,0.0,0.0,0.0,0.0,0.0,0.0,0.0,0.0,0.0,0.0,0.0,0.0,0.0,0.0,0.0,0.0,0.0,0.0,0.0,0.0,0.0,0.0,0.0,0.0,0.0,0.0,0.0,0.0,0.0,0.0,0.0,0.0,0.0,0.0,0.0,0.0,0.0,0.0,0.0,0.0,0.0,0.0,0.0,0.0,0.0,0.0,0.0,0.0,0.0,0.0,0.0,0.0,0.0,0.0,0.0,0.0,0.0,0.0,0.0,0.0,0.0,0.0,0.0,0.0,0.0,0.0,0.0,0.0,0.0,0.0,0.0,0.0,0.0,0.0,0.0,0.0,0.0,0.0,0.0,0.0,0.0,0.0,0.0,0.0,0.0,0.0,0.0,0.0,0.0,0.0,0.0,0.0,0.0,0.0,0.0,0.0,0.0,0.0,0.0,0.0,0.0,0.0,0.0,0.0,0.0,0.0,0.0,0.0,0.0,0.0,0.0,0.0,0.0,0.0,0.0,0.0,0.0,0.0,0.0,0.0,0.0,0.0,0.0,0.0,0.0,0.0,0.0,0.0,0.0,0.0,0.0,0.0,0.0,0.0,0.0,0.0,0.0,0.0,0.0,0.0,0.0,0.0,0.0,0.0,0.0,0.0,0.0,0.0,0.0,0.0,0.0,0.0,0.0,0.0,0.0,0.0,0.0,0.0,0.0,0.0,0.0,0.0,0.0,0.0,0.0,0.0,0.0,0.0,0.0,0.0,0.0,0.0,0.0,0.0,0.0,0.0,0.0,0.0,0.0,0.0,0.0,0.0,0.0,0.0,0.0,0.0,0.0,0.0,0.0,0.0,0.0,0.0,0.0,0.0,0.0,0.0,0.0,0.0,0.0,0.0,0.0,0.0,0.0,0.0,0.0,0.0,0.0,0.0,0.0,0.0,0.0,0.0,0.0,0.0,0.0,0.0,0.0,0.0,0.0,0.0,0.0,0.0,0.0,0.0,0.0,0.0,0.0,0.0,0.0,0.0,0.0,0.0,0.0,0.0,0.0,0.0,0.0,0.0,0.0,0.0,0.0,0.0,0.0,0.0,0.0,0.0,0.0,0.0,0.0,0.0,0.0,0.0,0.0,0.0,0.0,0.0,0.0,0.0,0.0,0.0,0.0,0.0,0.0,0.0,0.0,0.0,0.0,0.0,0.0,0.0,0.0,0.0,0.0,0.0,0.0,0.0,0.0,0.0,0.0,0.0,0.0,0.0,0.0,0.0,0.0,0.0,0.0,0.0,0.0,0.0,0.0,0.0,0.0,0.0,0.0,0.0,0.0,0.0,0.0,0.0,0.0,0.0,0.0,0.0,0.0,0.0,0.0,0.0,0.0,0.0,0.0,0.0,0.0,0.0,0.0,0.0,0.0,0.0,0.0,0.0,0.0,0.0,0.0,0.0,0.0,0.0,0.0,0.0,0.0,0.0,0.0,0.0,0.0,0.0,0.0,0.0,0.0,0.0,0.0,0.0,0.0,0.0,0.0,0.0,0.0,0.0,0.0,0.0,0.0,0.0,0.0,0.0,0.0,0.0,0.0,0.0,0.0,0.0,0.0,0.0,0.0,0.0,0.0,0.0,0.0,0.0,0.0,0.0,0.0,0.0,0.0,0.0,0.0,0.0,0.0,0.0,0.0,0.0,0.0,0.0,0.0,0.0,0.0,0.0,0.0,0.0,0.0,0.0,0.0,0.0,0.0,0.0,0.0,0.0,0.0,0.0,0.0,0.0,0.0,0.0,0.0,0.0,0.0,0.0,0.0,0.0,0.0,0.0,0.0,0.0,0.0,0.0,0.0,0.0,0.0,0.0,0.0,0.0,0.0,0.0,0.0,0.0,0.0,0.0,0.0,0.0,0.0,0.0,0.0,0.0,0.0,0.0,0.0,0.0,0.0,0.0,0.0,0.0,0.0,0.0,0.0,0.0,0.0,0.0,0.0,0.0,0.0,0.0,0.0,0.0,0.0,0.0,0.0,0.0,0.0,0.0,0.0,0.0,0.0,0.0,0.0,0.0,0.0,0.0,0.0,0.0,0.0,0.0,0.0,0.0,0.0,0.0,0.0,0.0,0.0,0.0,0.0,0.0,0.0,0.0,0.0,0.0,0.0,0.0,0.0,0.0,0.0,0.0,0.0,0.0,0.0,0.0,0.0,0.0,0.0,0.0,0.0,0.0,0.0,0.0,0.0,0.0,0.0,0.0,0.0,0.0,0.0,0.0,0.0,0.0,0.0,0.0,0.0,0.0,0.0,0.0,0.0,0.0,0.0,0.0,0.0,0.0,0.0,0.0,0.0,0.0,0.0,0.0,0.0,0.0,0.0,0.0,0.0,0.0,0.0,0.0,0.0,0.0,0.0,0.0,0.0,0.0,0.0,0.0,0.0,0.0,0.0,0.0,0.0,0.0,0.0,0.0,0.0,0.0,0.0,0.0,0.0,0.0,0.0,0.0,0.0,0.0,0.0,0.0,0.0,0.0,0.0,0.0,0.0,0.0,0.0,0.0,0.0,0.0,0.0,0.0,0.0,0.0,0.0,0.0,0.0,0.0,0.0,0.0,0.0,0.0,0.0,0.0,0.0,0.0,0.0,0.0,0.0,0.0,0.0,0.0,0.0,0.0,0.0,0.0,0.0,0.0,0.0,0.0,0.0,0.0,0.0,0.0,0.0,0.0,0.0,0.0,0.0,0.0,0.0,0.0,0.0,0.0,0.0,0.0,0.0,0.0,0.0,0.0,0.0,0.0,0.0,0.0,0.0,0.0,0.0,0.0,0.0,0.0,0.0,0.0,0.0,0.0,0.0,0.0,0.0,0.0,0.0,0.0,0.0,0.0,0.0,0.0,0.0,0.0,0.0,0.0,0.0,0.0,0.0,0.0,0.0,0.0,0.0,0.0,0.0,0.0,0.0,0.0,0.0,0.0,0.0,0.0,0.0,0.0,0.0,0.0,0.0,0.0,0.0,0.0,0.0,0.0,0.0,0.0,0.0,0.0,0.0,0.0,0.0,0.0,0.0,0.0,0.0,0.0,0.0,0.0,0.0,0.0,0.0,0.0,0.0,0.0,0.0,0.0,0.0,0.0,0.0,0.0,0.0,0.0,0.0,0.0,0.0,0.0,0.0,0.0,0.0,0.0,0.0,0.0,0.0,0.0,0.0,0.0,0.0,0.0,0.0,0.0,0.0,0.0,0.0,0.0,0.0,0.0,0.0,0.0,0.0,0.0,0.0,0.0,0.0,0.0,0.0,0.0,0.0,0.0,0.0,0.0,0.0,0.0,0.0,0.0,0.0,0.0,0.0,0.0,0.0,0.0,0.0,0.0,0.0,0.0,0.0,0.0,0.0,0.0,0.0,0.0,0.0,1.7763,1.6783,0.0,0.0,0.0,0.0,0.0,0.0,0.0,0.0,0.0,0.0,0.0,0.0,0.0,0.0,0.0,0.0,0.0,0.0,0.0,0.0,0.0,0.0,0.0,0.1795,0.2744,0.5194,0.5417,0.642,0.8771,0.0,0.0,0.0,0.0,0.0,0.9158,0.9158,0.9303,0.9716,0.9716,0.9856,1.0132,0.9936,0.9524,0.906,0.0,0.0,0.0,0.0,0.0,0.0,0.0,0.0,0.0,0.0,0.0,0.0,0.0,0.0,0.0,0.0,0.0,0.0,0.0,0.0,0.0,0.0,0.0,0.0,0.0,0.0,0.0,0.0,0.0,0.0,0.0,0.0,0.0,0.0,0.0,0.0,0.0,0.0,0.0,0.0,0.0,0.0,0.0,0.0,0.0,0.0,0.0,0.0,0.0,0.0,0.0,0.0,0.0,0.0,0.0,0.0,0.0,0.0,0.0,0.0,0.0,0.0,0.0,0.0,0.0,0.0,0.0,0.0,0.0,0.0,1.952,1.8912,0.0,0.0,0.0,0.0,0.0,0.0,0.0,0.0,0.0,0.0,0.0,0.0,0.0,0.0,0.0,0.0,0.0,0.0,0.0,0.0,0.0,0.1795,0.1795,0.1963,0.3024,0.5194,0.5584,0.6589,0.8771,0.8885,0.0,0.0,0.0,0.9047,0.9323,0.9379,0.9544,0.9816,0.9926,0.9994,1.0134,1.0134,1.0205,1.0391,1.0336,0.0,0.0,0.0,0.0,0.0,0.0,0.0,0.0,0.0,0.0,0.0,0.0,0.0,0.0,0.0,0.0,0.0,0.0,0.0,0.0,0.0,0.0,0.0,0.0,0.0,0.0,0.0,0.0,0.0,0.0,0.0,0.0,0.0,0.0,0.0,0.0,0.0,0.0,0.0,0.0,0.0,0.0,0.0,0.0,0.0,0.0,0.0,0.0,0.0,0.0,0.0,0.0,0.0,0.0,0.0,0.0,0.0,0.0,0.0,0.0,0.0,0.0,0.0,2.213,2.2068,2.1818,2.2061,2.1991,2.1749,2.1686,2.1442,2.1109,2.1056,0.0,0.0,0.0,0.0,0.0,0.0,0.0,0.0,0.0,0.0,0.0,0.0,0.0,0.0,0.0,0.0,0.0,0.0,0.0,0.1795,0.1795,0.2744,0.3916,0.5306,0.6313,0.7429,0.8826,0.8885,0.8885,0.8885,0.8885,0.894,0.894,0.9268,0.9544,0.9816,1.0308,1.0594,1.0618,1.0618,1.063,1.0663,1.0402,1.0185,1.0066,0.0,0.0,0.0,0.0,0.0,0.0,0.0,0.0,0.0,0.0,0.0,0.0,0.0,0.0,0.0,0.0,0.0,0.0,0.0,0.0,0.0,0.0,0.0,0.0,0.0,0.0,0.0,0.0,0.0,0.0,0.0,0.0,0.0,0.0,0.0,0.0,0.0,0.0,0.0,0.0,0.0,2.3333,2.2167,0.0,0.0,0.0,0.0,0.0,0.0,0.0,0.0,0.0,0.0,0.0,0.0,0.0,2.1252,2.1313,2.1313,2.1313,2.1313,2.231,2.2782,2.2782,2.3822,2.4287,2.4228,2.3992,0.0,2.1089,2.0842,0.0,0.0,0.0,0.0,0.0,0.0,0.0,0.0,0.0,0.0,0.0,0.0,0.0,0.0,0.0,0.0,0.0,0.0,0.0,0.0,0.0,0.3302,0.436,0.62,0.6816,0.7598,0.8826,0.8885,0.8885,0.8885,0.8885,0.9047,0.9379,0.9541,0.9871,1.0308,1.0582,1.0692,1.0692,1.0692,1.0692,1.0696,1.0576,1.0531,1.0539,1.064,0.0,0.0,0.0,0.0,0.0,0.0,0.0,0.0,0.0,0.0,0.0,0.0,0.0,0.0,0.0,0.0,0.0,0.0,0.0,0.0,0.0,0.0,0.0,0.0,0.0,0.0,0.0,0.0,0.0,0.0,0.0,0.0,0.0,0.0,0.0,0.0,0.0,0.0,0.0,2.3452,2.3452,2.2015,2.2304,2.2518,0.0,0.0,0.0,0.0,0.0,0.0,0.0,0.0,0.0,2.3461,2.3461,2.3528,2.3705,2.3705,2.3705,2.3764,2.4226,2.4343,2.4218,2.4736,2.4911,2.467,2.4553,2.3964,2.3051,2.1911,2.1521,2.149,0.0,0.0,0.0,0.0,2.0173,2.0153,0.0,0.0,0.0,0.0,0.0,0.0,0.0,0.0,0.0,0.0,0.0,0.0,0.3469,0.3858,0.4862,0.693,0.7376,0.7934,0.883,0.8885,0.8885,0.8885,0.8885,0.9158,0.9706,0.9871,1.0202,1.0692,1.0692,1.0692,1.0692,1.0692,1.0692,1.0692,1.0692,1.0692,1.07,1.0838,1.0899,1.0911,0.0,0.0,0.0,0.0,0.0,0.0,0.0,0.0,0.0,0.0,0.0,0.0,0.0,0.0,0.0,0.0,0.0,0.0,0.0,0.0,0.0,0.0,0.0,0.0,0.0,0.0,0.0,0.0,0.0,0.0,0.0,0.0,0.0,0.0,0.0,0.0,0.0,2.3948,2.4301,2.2899,2.3399,2.3747,0.0,0.0,0.0,0.0,0.0,0.0,2.4688,2.4688,2.4803,2.5042,2.5099,2.5222,2.5451,2.5451,2.5451,2.5451,2.5746,2.5746,2.5566,2.5851,2.5843,2.5606,2.5549,2.5492,2.5386,2.3407,2.2564,2.2505,2.1401,2.1044,2.0994,2.0626,2.0479,2.0392,0.0,0.0,0.0,0.0,0.0,0.0,0.0,0.0,0.0,0.0,0.0,0.2242,0.3469,0.4637,0.5808,0.6985,0.8156,0.8826,0.8881,0.8885,0.8885,0.8885,0.8885,0.9047,0.9434,0.9981,1.0417,1.0692,1.0692,1.0692,1.0692,1.0692,1.0692,1.0692,1.0692,1.0692,1.0692,1.0704,1.0708,1.0708,1.0716,0.0,0.0,0.0,0.0,0.0,0.0,0.0,0.0,0.0,0.0,0.0,0.0,0.0,0.0,0.0,0.0,0.0,0.0,0.0,0.0,0.0,0.0,0.0,0.0,0.0,0.0,0.0,0.0,0.0,0.0,0.0,0.0,0.0,0.0,0.0,0.0,0.0,0.0,2.5625,2.5254,0.0,0.0,0.0,0.0,2.4334,2.4556,2.4723,2.4723,2.4723,2.4723,2.4723,2.4723,2.4723,2.4723,2.4723,2.4723,2.4778,2.5907,2.6473,2.6473,2.7631,2.8135,2.8072,2.7857,2.7749,2.7552,2.5163,2.4194,2.4146,2.3472,2.3261,2.3071,2.1673,2.1168,2.0996,0.0,0.0,0.0,0.0,0.0,0.0953,0.1009,0.1458,0.1795,0.1795,0.1795,0.2577,0.4528,0.5139,0.6197,0.81,0.866,0.8885,0.8885,0.8885,0.8885,0.8885,0.9103,0.9434,0.9981,1.0363,1.0582,1.0692,1.0692,1.0692,1.0692,1.0692,1.0692,1.0692,1.0692,1.0692,1.0692,1.0692,1.0692,1.0692,1.0692,1.0733,0.0,0.0,0.0,0.0,0.0,0.0,0.0,0.0,0.0,0.0,0.0,0.0,0.0,0.0,0.0,0.0,0.0,0.0,0.0,0.0,0.0,0.0,0.0,0.0,0.0,0.0,0.0,0.0,0.0,0.0,0.0,0.0,0.0,0.0,0.0,0.0,0.0,2.5185,2.564,0.0,2.5894,2.5879,2.6127,2.6844,2.6952,2.7006,2.7006,2.7006,2.7006,2.7006,2.7006,2.7006,2.7006,2.7006,2.7006,2.7006,2.7457,2.7682,2.7682,2.8121,2.8291,2.8291,2.8184,2.8184,2.8087,2.7219,2.6186,2.5039,2.4041,2.3689,2.3561,2.3046,2.2696,2.245,0.0,0.0,0.0,0.0,0.0,0.0729,0.0729,0.1234,0.1627,0.1627,0.1739,0.2744,0.5139,0.5417,0.6364,0.8716,0.8885,0.8885,0.8885,0.8885,0.8937,0.9047,0.9489,0.9871,1.0312,1.0582,1.0692,1.0692,1.0692,1.0692,1.0692,1.0692,1.0692,1.0692,1.0692,1.0692,1.0692,1.0692,1.0692,1.0692,1.0692,1.0692,1.0692,0.0,0.0,0.0,0.0,0.0,0.0,0.0,0.0,0.0,0.0,0.0,0.0,0.0,0.0,0.0,0.0,0.0,0.0,0.0,0.0,0.0,0.0,0.0,0.0,0.0,0.0,0.0,0.0,0.0,0.0,0.0,0.0,0.0,0.0,2.6626,2.6799,2.6,2.6626,2.7133,2.7133,2.7133,2.7466,2.8237,2.8291,2.8291,2.8291,2.8291,2.8291,2.8291,2.8291,2.8291,2.8291,2.8291,2.8291,2.8291,2.8291,2.8291,2.8291,2.8291,2.8291,2.8291,2.8291,2.8291,2.8291,2.8291,2.7565,2.64,2.5553,2.5035,2.4758,2.4374,2.3918,2.3552,0.0,0.0,0.0,0.0,0.0,0.0393,0.0393,0.0897,0.129,0.129,0.157,0.2744,0.5139,0.5417,0.6364,0.8716,0.8885,0.8885,0.8885,0.8885,0.9047,0.9379,0.9981,1.0312,1.0312,1.0582,1.0692,1.0692,1.0692,1.0692,1.0692,1.0692,1.0692,1.0692,1.0692,1.0692,1.0692,1.0692,1.0692,1.0692,1.0692,1.0692,1.0692,0.0,0.0,0.0,0.0,0.0,0.0,0.0,0.0,0.0,0.0,0.0,0.0,0.0,0.0,0.0,0.0,0.0,0.0,0.0,0.0,0.0,0.0,0.0,0.0,0.0,0.0,0.0,0.0,0.0,0.0,0.0,0.0,0.0,2.8291,2.8291,2.8291,2.8291,2.8291,2.8291,2.8291,2.8291,2.8291,2.8291,2.8291,2.8301,2.831,2.831,2.832,2.833,2.833,2.833,2.831,2.831,2.8301,2.8291,2.8291,2.8291,2.8291,2.8291,2.8291,2.8291,2.8291,2.8291,2.8291,2.8291,2.8291,2.8291,2.8014,2.7506,2.6676,2.5504,2.4801,2.4342,0.0,0.0,0.0,0.0,0.0224,0.0393,0.0393,0.0897,0.129,0.129,0.157,0.2744,0.5139,0.5417,0.6364,0.8716,0.8885,0.8885,0.8885,0.8885,0.9158,0.9651,1.0091,1.0366,1.0582,1.0637,1.0692,1.0692,1.0692,1.0692,1.0692,1.0692,1.0692,1.0692,1.0692,1.0692,1.0692,1.0692,1.0692,1.0692,1.0692,1.0692,1.0692,0.0,0.0,0.0,0.0,0.0,0.0,0.0,0.0,0.0,0.0,0.0,0.0,0.0,0.0,0.0,0.0,0.0,0.0,0.0,0.0,0.0,0.0,0.0,0.0,0.0,0.0,0.0,0.0,0.0,0.0,0.0,2.8291,2.8291,2.8291,2.8291,2.8291,2.8291,2.8291,2.8291,2.8291,2.8291,2.8291,2.8291,2.8291,2.8428,2.873,2.875,2.8887,2.9209,2.9219,2.9072,2.875,2.875,2.8594,2.8291,2.8291,2.8291,2.8291,2.8291,2.8291,2.8291,2.8291,2.8291,2.8291,2.8291,2.8291,2.8291,2.8237,2.8062,2.781,2.7175,2.6498,2.574,0.0,0.0,0.0,0.0,0.0112,0.0224,0.0224,0.0617,0.0953,0.1121,0.1402,0.2576,0.5139,0.5417,0.6364,0.8716,0.8885,0.8885,0.8885,0.9158,0.943,0.9761,1.0257,1.0527,1.0692,1.0692,1.0692,1.0692,1.0692,1.0692,1.0692,1.0692,1.0692,1.0692,1.0692,1.0692,1.0692,1.0692,1.0692,1.0692,1.0692,1.0692,1.0692,1.0692,1.0692,1.0692,1.0692,1.2146,1.4078,1.4078,0.0,0.0,0.0,0.0,0.0,0.0,0.0,0.0,0.0,0.0,0.0,0.0,0.0,0.0,0.0,0.0,0.0,0.0,0.0,0.0,0.0,0.0,0.0,0.0,2.8291,2.8291,2.8291,2.8291,2.8291,2.8291,2.8291,2.8291,2.8291,2.8447,2.8555,2.8555,2.8721,2.8935,2.918,2.9189,2.9307,2.956,2.9626,2.9443,2.9189,2.9014,2.8789,2.8555,2.8379,2.8291,2.8291,2.8291,2.8291,2.8291,2.8291,2.8291,2.8291,2.8291,2.8291,2.8291,0.0,0.0,0.0,0.0,2.6699,2.6035,0.0,0.0,0.0,0.0,0.0,0.0,0.0,0.0224,0.0505,0.0841,0.1121,0.2352,0.5083,0.5306,0.6197,0.866,0.8771,0.8771,0.8881,0.943,0.9761,0.9816,1.0363,1.0692,1.0692,1.0692,1.0692,1.0692,1.0692,1.0692,1.0692,1.0692,1.0692,1.0692,1.0692,1.0692,1.0692,1.0692,1.0692,1.0692,1.0692,1.0692,1.0692,1.0692,1.0692,1.0692,1.0692,1.2146,1.4078,1.4078,0.0,0.0,0.0,0.0,0.0,0.0,0.0,0.0,0.0,0.0,0.0,0.0,0.0,0.0,0.0,0.0,0.0,0.0,0.0,0.0,0.0,0.0,0.0,0.0,2.8291,2.8291,2.8291,2.8291,2.8291,2.8291,2.833,2.8359,2.8359,2.874,2.8994,2.8994,2.9346,2.959,2.9695,2.9695,0.0,0.0,0.0,2.9697,2.9695,2.9258,2.9014,2.8916,2.8545,2.834,2.8291,2.8291,2.8291,2.8291,2.8291,2.8291,2.8291,2.8291,2.8291,2.8291,2.8291,2.8008,2.7552,2.6738,2.6152,2.5693,0.0,0.0,0.0,0.0,0.0,0.0,0.0,0.0224,0.0505,0.0841,0.1121,0.2352,0.5083,0.4528,0.5308,0.8605,0.7989,0.7878,0.8826,0.9268,0.9599,0.9816,1.0143,1.0476,1.0692,1.0692,1.0692,1.0692,1.0692,1.0692,1.0692,1.0692,1.0692,1.0692,1.0692,1.0692,1.0692,1.0692,1.0692,1.0692,1.0692,1.0692,1.0692,1.0692,1.0692,1.0692,1.0692,1.2146,1.4078,1.4078,1.5636,1.7648,1.7979,1.8483,0.0,0.0,0.0,0.0,0.0,0.0,0.0,0.0,0.0,0.0,0.0,0.0,0.0,0.0,0.0,0.0,0.0,0.0,0.0,2.8291,2.8291,2.8291,2.8291,2.8291,2.8291,2.8291,2.8594,2.8799,2.8799,2.9189,2.9443,2.9443,2.9521,2.9717,3.0059,3.0078,3.0244,3.0625,3.0635,3.0459,3.0078,2.999,2.9609,2.8916,2.8838,0.0,2.8291,2.8291,2.8291,2.8291,2.8291,2.8291,2.8291,2.8291,2.8291,2.8291,2.8291,2.7822,2.7119,2.6953,2.6396,2.5693,0.0,0.0,0.0,0.0,0.0,0.0,0.0,0.0112,0.028,0.0617,0.0897,0.1904,0.4023,0.3858,0.4583,0.6924,0.7093,0.7598,0.8826,0.9213,0.9434,0.9596,0.9871,1.0202,1.0472,1.0472,1.0582,1.0692,1.0692,1.0692,1.0692,1.0692,1.0692,1.0692,1.0692,1.0692,1.0692,1.0692,1.0692,1.0692,1.0692,1.0692,1.0692,1.0692,1.0692,1.0692,1.0692,1.2146,1.4078,1.4078,1.5636,1.7635,1.7911,1.8323,1.8741,0.0,0.0,0.0,0.0,0.0,0.0,0.0,0.0,0.0,0.0,0.0,0.0,0.0,0.0,2.8291,2.8291,0.0,2.8291,2.8291,2.8291,2.8291,2.8291,2.8476,2.8603,2.8603,2.8789,2.9004,2.9219,2.9629,2.9883,2.9883,3.0098,3.0322,3.0537,3.0547,3.0644,3.0889,3.0889,3.0781,3.0547,3.0312,2.9873,2.9248,2.9023,2.8701,2.8291,2.8291,2.8291,2.8291,2.8291,2.8291,2.8291,2.8291,2.8291,2.8291,2.8291,2.7773,2.7012,2.7012,2.6475,2.5693,0.0,0.0,0.0,0.0,0.0,0.0,0.0,0.0,0.0112,0.0393,0.0617,0.1401,0.2908,0.3132,0.3691,0.4916,0.6313,0.7487,0.8491,0.9047,0.9323,0.9379,0.9596,0.9871,1.0202,1.0257,1.0417,1.0637,1.0692,1.0692,1.0692,1.0692,1.0692,1.0692,1.0692,1.0692,1.0692,1.0692,1.0692,1.0692,1.0692,1.0692,1.0692,1.0692,1.0692,1.0692,1.0692,1.2146,1.4078,1.4078,1.5636,1.7635,1.7911,1.8167,1.8524,1.9063,2.0272,0.0,0.0,0.0,0.0,0.0,0.0,0.0,0.0,2.8232,2.8291,2.8291,2.8291,2.8291,2.8291,2.8291,2.8291,2.8291,2.8291,2.832,2.8398,2.8711,2.8984,2.9141,2.917,2.9307,2.9658,3.0078,3.0332,3.0332,3.0674,3.0889,3.0889,3.0889,3.0889,3.0889,3.0889,3.0889,3.0889,3.0518,3.0078,2.9626,2.9219,2.8779,2.8291,2.8291,2.8291,2.8291,2.8291,2.8291,2.8291,2.8291,2.8291,2.8291,2.8291,2.7773,2.7012,2.7012,2.6475,2.5693,0.0,0.0,0.0,0.0,0.0,0.0,0.0,0.0,0.0112,0.0393,0.0449,0.1121,0.2908,0.2184,0.2185,0.3692,0.5813,0.7152,0.7321,0.8325,0.9103,0.9379,0.9434,0.9599,0.9871,1.0147,1.0312,1.0366,1.0582,1.0692,1.0692,1.0692,1.0692,1.0692,1.0692,1.0692,1.0692,1.0692,1.0692,1.0692,1.0692,1.0692,1.0692,1.0692,1.0692,1.0692,1.0692,1.2146,1.4078,1.4078,1.5636,1.7635,1.7911,1.8167,1.8482,1.886,1.988,2.1269,2.2748,2.493,2.6868,2.7029,2.7412,2.7787,0.0,2.8027,2.8291,2.8291,2.8291,2.8291,2.8291,2.8291,2.8291,2.8291,2.8291,2.8418,2.8789,2.8887,2.9199,2.9961,3.0049,3.0078,3.0127,3.0547,3.081,3.081,3.0859,3.0889,3.0889,3.0889,3.0889,3.0889,3.0889,3.0889,3.0889,3.084,3.04,2.9626,2.9521,2.9072,2.8291,2.8291,2.8291,2.8291,2.8291,2.8291,2.8291,2.8291,2.8291,2.8291,2.8291,2.7773,2.7012,2.7012,2.6475,2.5693,0.0,0.0,0.0,0.0,0.0,0.0,0.0,0.0,0.0056,0.0168,0.028,0.0673,0.1456,0.1401,0.1905,0.3469,0.514,0.6369,0.7041,0.8211,0.894,0.9103,0.9103,0.9268,0.9544,0.9706,0.9871,1.0036,1.0143,1.0257,1.0476,1.0476,1.0527,1.0692,1.0692,1.0692,1.0692,1.0692,1.0692,1.0692,1.0692,1.0692,1.0692,1.0692,1.0692,1.0798,1.1446,1.2738,0.0,1.4888,1.6234,1.7635,1.7747,1.7957,1.8167,1.8338,1.8893,1.9879,2.1959,2.4546,2.665,2.665,2.7168,2.7718,2.7718,2.7988,2.8291,2.8291,2.8291,2.8291,2.8291,2.8291,2.8291,2.8291,2.8291,2.8437,2.8857,2.9141,2.9521,3.0127,3.043,3.0605,3.0605,3.0771,3.0889,3.0889,3.0889,3.0889,3.0889,3.0889,3.0889,3.0889,3.0889,3.0889,3.0889,3.0889,3.0449,2.9626,2.9626,2.9121,2.8291,2.8291,2.8291,2.8291,2.8291,2.8291,2.8291,2.8291,2.8291,2.8291,2.8291,2.7773,2.7012,2.7012,2.6475,2.5693,0.0,0.0,0.0,0.0,0.0,0.0,0.0,0.0,0.0,0.0,0.0168,0.0336,0.0505,0.1009,0.1793,0.3023,0.4193,0.5419,0.6536,0.7765,0.8549,0.8881,0.8885,0.8995,0.9268,0.9379,0.9489,0.9706,0.9761,0.9926,1.0147,1.0257,1.0417,1.0582,1.0692,1.0692,1.0692,1.0692,1.0692,1.0692,1.0692,1.0692,1.0692,1.0692,1.0692,1.0857,1.1987,1.3112,1.4293,1.5482,1.6664,1.7582,1.7582,1.7799,1.8016,1.8016,1.8677,1.9901,2.1979,2.4326,2.624,2.6357,2.6943,2.7519,2.7689,2.7988,2.8291,2.8291,2.8291,2.8291,2.8291,2.8291,2.8291,2.8291,2.8291,2.8486,2.9023,2.9375,2.9775,3.0322,3.0684,3.0889,3.0889,3.0889,3.0889,3.0889,3.0889,3.0889,3.0889,3.0889,3.0889,3.0889,3.0889,3.0889,3.0889,3.0762,3.0322,2.9626,2.9443,2.9004,2.8291,2.8291,2.8291,2.8291,2.8291,2.8291,2.8291,2.8291,2.8291,2.8291,2.8291,2.7773,2.7012,2.7012,2.6475,2.5693,0.0,0.0,0.0,0.0,0.0,0.0,0.0,0.0,0.0,0.0,0.0,0.0224,0.0841,0.1121,0.1458,0.1795,0.2967,0.4193,0.5361,0.6536,0.7657,0.883,0.8885,0.8885,0.894,0.9213,0.9379,0.9434,0.9651,0.9816,0.9816,1.0147,1.0312,1.0312,1.0582,1.0692,1.0692,1.0692,1.0692,1.0692,1.0692,1.0692,1.0692,1.0692,1.0692,1.0857,1.1987,1.3112,1.4293,1.5482,1.6664,1.7582,1.7582,1.7799,1.8016,1.8016,1.9901,2.2232,2.3335,2.4667,2.581,2.6279,2.6709,2.7148,2.762,2.7988,2.8291,2.8291,2.8291,2.8291,2.8291,2.8291,2.8291,2.8291,2.8291,2.8584,2.9489,2.956,2.9893,3.0762,3.0889,3.0889,3.0889,3.0889,3.0889,3.0889,3.0889,3.0889,3.0889,3.0889,3.0889,3.0889,3.0889,3.0889,3.0889,3.0449,3.0,2.956,2.9141,2.8711,2.8291,2.8291,2.8291,2.8291,2.8291,2.8291,2.8291,2.8291,2.8291,2.8291,2.8291,2.7773,2.7012,2.7012,2.6475,2.5693,0.0,0.0,0.0,0.0,0.0,0.0,0.0,0.0,0.0,0.0,0.0,0.0,0.0,0.0,0.0,0.0,0.2799,0.3748,0.4193,0.5308,0.648,0.7654,0.7709,0.81,0.8881,0.8995,0.9051,0.9051,0.9158,0.9323,0.9544,0.9651,0.9926,1.0312,1.0366,1.0527,1.0692,1.0527,1.0527,1.0692,1.0527,1.0527,1.0692,1.0692,1.0582,1.0582,0.0,1.3004,1.4293,1.5482,1.6664,1.7582,1.7582,1.7635,1.7747,1.7747,1.9679,2.1912,2.2265,2.424,2.6201,2.6357,2.6924,2.748,2.7679,2.7988,2.8291,2.8291,2.8291,2.8291,2.8291,2.8291,2.8291,2.8291,2.8525,2.8906,2.9482,2.9814,3.0215,3.082,3.0889,3.0889,3.0889,3.0889,3.0889,3.0889,3.0889,3.0889,3.0889,3.0889,3.0889,3.0889,3.0889,3.0889,3.0889,3.043,2.999,2.956,2.8848,2.8428,2.8291,2.8291,2.8291,2.8291,2.8291,2.8291,2.8291,2.8291,2.8291,2.8291,2.8291,2.7949,2.7412,2.7119,2.666,2.6133,0.0,0.0,0.0,0.0,0.0,0.0,0.0,0.0,0.0,0.0,0.0,0.0,0.0,0.0,0.0,0.0,0.0,0.2798,0.3244,0.408,0.5083,0.6255,0.6424,0.6871,0.7651,0.7651,0.7651,0.7651,0.8042,0.8377,0.8598,0.9154,0.9596,0.9981,1.0091,1.0202,1.0363,1.0202,1.0202,1.0363,1.0202,1.0202,1.0363,1.0363,1.0257,0.0,1.0954,1.2087,1.3431,1.5156,1.6287,1.7041,1.7477,1.7582,1.7687,1.8048,1.9826,2.1828,2.2317,2.44,2.6465,2.6768,2.7307,2.7757,2.7851,2.8096,2.8291,2.8291,2.8291,2.8291,2.8291,2.8291,2.8291,2.8291,2.8643,2.9072,2.9512,2.9932,3.0371,3.083,3.0889,3.0889,3.0889,3.0889,3.0889,3.0889,3.0889,3.0889,3.0889,3.0889,3.0889,3.0889,3.0889,3.0889,3.0889,3.0283,2.9678,2.9101,2.8555,2.8291,2.8291,2.8291,2.8291,2.8291,2.8291,2.8291,2.8291,2.8291,2.8291,2.8291,2.8291,2.8037,2.7669,2.7178,2.6748,2.6328,0.0,0.0,0.0,0.0,0.0,0.0,0.0,0.0,0.0,0.0,0.0,0.0,0.0,0.0,0.0,0.0,0.0,0.0,0.2517,0.2852,0.3521,0.4743,0.5081,0.5306,0.5361,0.5361,0.5361,0.5417,0.648,0.6985,0.7041,0.8543,0.9268,0.9323,0.9651,0.9761,0.9816,0.9761,0.9761,0.9816,0.9761,0.9816,0.9816,0.9816,0.9816,0.9761,0.9761,1.0464,1.181,1.4449,1.5583,1.618,1.7259,1.7582,1.7786,1.8819,2.0282,2.1937,2.3389,2.5034,2.6571,2.7461,2.7738,2.7855,2.8203,2.8291,2.8291,2.8291,2.8291,2.8291,2.8291,2.8291,2.8291,2.8291,2.8643,2.9072,2.9512,2.9932,3.0371,3.083,3.0889,3.0889,3.0889,3.0889,3.0889,3.0889,3.0889,3.0889,3.0889,3.0889,3.0889,3.0889,3.0889,3.0879,3.0859,2.998,2.9121,2.8291,2.8291,2.8291,2.8291,2.8291,2.8291,2.8291,2.8291,2.8291,2.8291,2.8291,2.8291,2.8291,2.8291,2.8047,2.7689,2.7187,2.6768,2.6357,0.0,0.0,0.0,0.0,0.0,0.0,0.0,0.0,0.0,0.0,0.0,0.0,0.0,0.0,0.0,0.0,0.0,0.0,0.1345,0.1401,0.2015,0.3185,0.3352,0.391,0.5023,0.5023,0.5135,0.5417,0.5695,0.5808,0.5864,0.7093,0.782,0.8094,0.9099,0.9599,0.9761,0.9596,0.9599,0.9761,0.9596,0.9596,0.9816,0.9816,0.9651,0.9485,0.9485,0.9706,1.0355,1.3161,1.5476,1.7206,1.7529,1.7582,1.7635,1.7943,1.9013,2.0514,2.226,2.398,2.5745,2.7311,2.7953,2.8164,2.8271,2.8291,2.8291,2.8291,2.8291,2.8291,2.8291,2.8291,2.8291,2.8291,2.8643,2.9072,2.9512,2.9932,3.0371,3.083,3.0889,3.0889,3.0889,3.0889,3.0889,3.0889,3.0889,3.0889,3.0889,3.0889,3.0889,3.0889,3.0889,3.0723,3.0371,2.9521,2.8818,2.8291,2.8291,2.8291,2.8291,2.8291,2.8291,2.8291,2.8291,2.8291,2.8291,2.8291,2.8291,2.8291,2.8291,2.8232,2.8037,2.7285,2.6943,2.6748,0.0,0.0,0.0,0.0,0.0,0.0,0.0,0.0,0.0,0.0,0.0,0.0,0.0,0.0,0.0,0.0,0.0,0.0,0.0,0.0617,0.1009,0.1679,0.1959,0.2462,0.3299,0.3466,0.3635,0.3804,0.436,0.4582,0.4639,0.581,0.6702,0.7429,0.8097,0.8764,0.9375,0.9268,0.9268,0.0,0.0,0.9268,0.9434,0.9434,0.9323,0.9158,0.9158,1.0029,1.1383,1.2999,1.5364,1.7582,1.7582,1.7582,1.7687,1.8146,1.9017,2.0286,2.2518,2.414,2.5594,2.7338,2.8062,2.8291,2.8291,2.8291,2.8291,2.8291,2.8291,2.8291,2.8291,2.8291,2.8291,2.8291,2.8643,2.9072,2.9512,2.9932,3.0371,0.0,3.0889,0.0,3.0889,3.0889,3.0889,3.0889,3.0889,3.0889,3.0889,3.0889,3.0889,3.0889,3.0889,3.0576,2.9932,2.9258,2.8711,2.8291,2.8291,2.8291,2.8291,2.8291,2.8291,2.8291,2.8291,2.8291,2.8291,2.8291,2.8291,2.8291,2.8291,2.8291,2.8213,2.7549,2.7178,2.6924,0.0,0.0,0.0,0.0,0.0,0.0,0.0,0.0,0.0,0.0,0.0,0.0,0.0,0.0,0.0,0.0,0.0,0.0,0.0,0.0,0.0393,0.0393,0.0953,0.129,0.129,0.157,0.1739,0.1795,0.2856,0.3358,0.3413,0.4749,0.5919,0.6871,0.721,0.7934,0.8885,0.8885,0.8885,0.8885,0.8885,0.8885,0.8885,0.0,0.8885,0.8885,0.8885,1.0676,1.3048,1.321,1.5209,1.7582,1.7582,1.7582,1.7793,1.8764,1.9386,2.0423,2.3104,2.4296,2.5264,2.7128,2.7789,2.8067,2.8237,2.8291,2.8291,2.8291,2.8291,2.8291,2.8291,2.8291,2.8291,2.8291,2.8603,2.9014,2.9558,2.9883,3.0303,3.083,3.0889,3.0889,3.0889,3.0889,3.0889,3.0889,3.0889,3.0889,3.0889,3.0889,3.0859,3.0801,3.0752,3.0322,2.9492,2.9053,2.8652,2.8291,2.8291,2.8291,2.8291,2.8291,2.8291,2.8291,2.8291,2.8291,2.8291,2.8291,2.8291,2.8291,2.8291,2.8291,2.8242,2.7875,2.7432,2.7031,0.0,0.0,0.0,0.0,0.0,0.0,0.0,0.0,0.0,0.0,0.0,0.0,0.0,0.0,0.0,0.0,0.0,0.0,0.0,0.0,0.0,0.0393,0.0785,0.1065,0.129,0.1346,0.1514,0.1795,0.2019,0.213,0.2186,0.4359,0.5528,0.5753,0.7706,0.8716,0.8885,0.8885,0.8885,0.8885,0.8885,0.8885,0.8885,0.8885,0.0,0.0,0.8885,1.0025,1.1647,1.2886,1.5209,1.7582,1.7582,1.7582,1.7688,1.8104,1.8266,1.8841,2.1135,2.1758,2.2537,2.5292,2.6227,2.6717,2.7736,2.813,2.8291,2.8291,2.8291,2.8291,2.8291,2.8291,2.8291,2.8291,2.8359,2.8672,2.9518,2.9629,2.998,0.0,3.0889,3.0889,3.0889,3.0889,3.0889,3.0889,3.0889,3.0889,3.0889,3.0889,3.0713,3.0332,2.998,2.9551,2.9033,2.8613,2.8369,2.8291,2.8291,2.8291,2.8291,2.8291,2.8291,2.8291,2.8291,2.8291,2.8291,2.8291,2.8291,2.8291,2.8291,2.8291,2.8242,2.7875,2.7669,2.7441,0.0,0.0,0.0,0.0,0.0,0.0,0.0,0.0,0.0,0.0,0.0,0.0,0.0,0.0,0.0,0.0,0.0,0.0,0.0,0.0,0.0,0.0,0.0,0.0,0.129,0.1458,0.1627,0.1795,0.0,0.213,0.2744,0.3914,0.514,0.6311,0.7485,0.8325,0.8885,0.8885,0.8885,0.8885,0.8885,0.8885,0.8885,0.0,0.0,0.0,0.0,0.986,1.1324,1.2615,1.4556,1.6605,1.7364,1.7582,1.7642,1.7902,1.8102,1.8638,2.0441,2.1178,2.1882,2.3956,2.527,2.6218,2.6617,0.0,0.0,2.8067,2.8067,2.8121,2.8291,2.8291,2.8291,2.8291,2.8291,2.8516,2.9141,2.9434,2.9814,3.0449,3.0742,3.0889,3.0889,3.0889,3.0889,3.0889,3.0889,3.0889,3.0889,3.0889,3.0674,3.0215,2.9785,2.9365,2.8926,2.8506,2.8291,2.8291,2.8291,2.8291,2.8291,2.8291,2.8291,2.8291,2.8291,2.8291,2.8291,2.8291,2.8291,2.8291,2.8291,2.8291,2.8271,2.8066,2.7851,2.763,0.0,0.0,0.0,0.0,0.0,0.0,0.0,0.0,0.0,0.0,0.0,0.0,0.0,0.0,0.0,0.0,0.0,0.0,0.0,0.0,0.0,0.0,0.0,0.0,0.0,0.0,0.0,0.1795,0.2074,0.0,0.0,0.0,0.0,0.0,0.7376,0.7989,0.8885,0.8885,0.8885,0.0,0.0,0.8885,0.0,0.0,0.0,0.0,0.0,0.9644,1.0836,1.2018,1.3565,1.5177,1.6646,1.7364,1.7669,1.8055,1.8357,1.8786,2.0082,2.0792,2.1422,2.2605,2.422,2.5434,2.5168,2.6518,2.7745,2.7457,2.7682,2.796,2.8184,2.8237,2.8291,2.8291,2.8291,2.8437,2.8857,2.9287,2.9726,3.0146,3.0605,0.0,3.0889,3.0889,3.0889,3.0889,3.0889,3.0889,3.0889,3.0801,3.0537,3.0078,2.9648,2.9219,2.8789,2.8457,2.8291,2.8291,2.8291,2.8291,2.8291,2.8291,2.8291,2.8291,2.8291,2.8291,2.8291,2.8291,2.8291,2.8291,2.8291,2.8291,2.8291,2.8291,2.8086,2.7734,0.0,0.0,0.0,0.0,0.0,0.0,0.0,0.0,0.0,0.0,0.0,0.0,0.0,0.0,0.0,0.0,0.0,0.0,0.0,0.0,0.0,0.0,0.0,0.0,0.0,0.0,0.0,0.1795,0.2912,0.0,0.0,0.0,0.0,0.0,0.0,0.8771,0.8885,0.8885,0.0,0.0,0.0,0.0,0.0,0.0,0.0,0.0,0.0,0.8992,0.9316,1.0781,1.2206,1.3633,1.5125,1.6545,1.7749,1.8591,1.8677,1.8666,1.9344,1.957,1.9873,2.1117,2.25,2.3663,2.3607,0.0,2.7142,2.6018,2.6907,2.7906,2.7906,2.813,2.8291,2.8291,2.8291,2.8437,2.8857,2.9287,2.9726,3.0146,0.0,0.0,3.0889,3.0889,3.0889,3.0889,3.0889,3.0889,3.0889,3.0488,3.0068,2.9695,2.9209,2.8779,2.8359,2.831,2.8291,2.8291,2.8291,2.8291,2.8291,2.8291,2.8291,2.8291,2.8291,2.8291,2.8291,2.8291,2.8291,2.8291,2.8291,2.8291,2.8291,2.8291,2.8271,2.8174,0.0,0.0,0.0,0.0,0.0,0.0,0.0,0.0,0.0,0.0,0.0,0.0,0.0,0.0,0.0,0.0,0.0,0.0,0.0,0.0,0.0,0.0,0.0,0.0,0.0,0.0,0.213,0.2856,0.3358,0.0,0.0,0.0,0.0,0.0,0.0,0.8885,0.8885,0.8885,0.0,0.0,0.0,0.0,0.0,0.0,0.0,0.0,0.0,0.0,0.9099,1.0402,1.1805,0.0,1.4889,1.6265,0.0,0.0,1.8662,1.8844,1.9252,1.9424,1.954,1.9989,2.1209,2.2258,2.2112,0.0,2.5963,2.5461,2.6409,2.7476,2.7853,2.796,2.8121,2.8291,2.8291,0.0,2.8525,2.9141,2.9629,2.9795,3.0459,3.0889,0.0,3.0889,3.0889,3.0889,3.0889,3.0771,3.0488,3.0293,3.0,2.9636,2.9141,2.8721,2.8301,2.8291,2.8291,2.8291,2.8291,2.8291,2.8291,2.8291,2.8291,2.8291,2.8291,2.8291,2.8291,2.8291,2.8291,2.8291,2.8291,2.8291,2.8291,2.8291,2.8291,2.8232,0.0,0.0,0.0,0.0,0.0,0.0,0.0,0.0,0.0,0.0,0.0,0.0,0.0,0.0,0.0,0.0,0.0,0.0,0.0,0.0,0.0,0.0,0.0,0.0,0.0,0.0,0.2744,0.358,0.4306,0.5477,0.0,0.0,0.81,0.8885,0.0,0.0,0.0,0.0,0.0,0.0,0.0,0.0,0.0,0.0,0.0,0.0,0.0,0.0,0.0,0.0,0.0,0.0,0.0,0.0,0.0,0.0,1.863,1.8871,1.9285,1.9424,1.9424,1.9424,2.0429,2.1323,2.0773,0.0,2.4974,2.4633,2.5917,2.726,2.7691,2.7906,2.8067,2.8291,0.0,2.8291,2.8291,2.8916,2.9424,2.9551,0.0,3.0742,3.0879,3.0889,3.0889,3.0889,3.0762,3.0547,3.0215,2.9961,2.9687,2.9385,2.8955,2.8594,2.8301,2.8291,2.8291,2.8291,2.8291,2.8291,2.8291,2.8291,2.8291,2.8291,2.8291,2.8291,2.8291,2.8291,2.8291,2.8291,2.8291,2.8291,2.8291,2.8291,2.8291,2.8252,0.0,0.0,0.0,0.0,0.0,0.0,0.0,0.0,0.0,0.0,0.0,0.0,0.0,0.0,0.0,0.0,0.0,0.0,0.0,0.0,0.0,0.0,0.0,0.0,0.0,0.0,0.358,0.358,0.5924,0.7096,0.7152,0.8325,0.8881,0.8885,0.0,0.0,0.0,0.0,0.0,0.0,0.0,0.0,0.8885,0.0,0.0,0.0,0.0,0.0,0.0,0.0,0.0,0.0,0.0,1.42,1.6241,0.0,1.8666,1.8566,1.9228,1.9424,1.9424,1.9424,2.0328,2.0895,1.9707,2.2191,2.4445,2.3263,2.5368,2.7377,2.7377,2.7916,2.8291,2.8291,2.8291,0.0,2.8291,2.8662,2.9082,0.0,2.9941,3.0391,3.084,3.0889,3.0889,3.0889,3.0459,3.0205,3.0195,2.9394,2.8926,2.8926,2.8525,2.8301,2.8291,2.8291,2.8291,2.8291,2.8291,2.8291,2.8291,2.8291,2.8291,2.8291,2.8291,2.8291,2.8291,2.8291,2.8291,2.8291,2.8291,2.8291,2.8291,2.8291,2.8291,2.8291,0.0,0.0,0.0,0.0,0.0,0.0,0.0,0.0,0.0,0.0,0.0,0.0,0.0,0.0824,0.1116,0.0409,0.0115,0.0,0.0,0.0,0.0,0.0,0.0,0.0,0.0,0.4639,0.5196,0.598,0.676,0.7543,0.8325,0.8716,0.8885,0.8885,0.8885,0.8885,0.0,0.0,0.0,0.0,0.0,0.8885,0.8885,0.0,0.0,0.0,0.0,0.0,0.0,0.0,0.0,0.0,0.0,0.0,0.0,1.7412,1.8372,1.8821,1.9281,1.9424,1.9424,1.9424,1.9707,1.988,1.9482,2.0888,2.2474,2.2918,2.4522,2.6191,2.7206,2.7745,2.8077,2.8291,2.8291,0.0,0.0,0.0,0.0,2.9111,2.9512,2.9824,2.9971,2.999,2.999,2.999,2.9853,2.9639,2.9336,2.9062,2.8916,2.8916,2.8506,2.8291,2.8291,2.8291,2.8291,2.8291,2.8291,2.8291,2.8291,2.8291,2.8291,2.8291,2.8291,2.8291,2.8291,2.8291,2.8291,2.8291,2.8291,2.8291,2.8291,2.8291,2.8291,2.8291,0.0,0.0,0.0,0.0,0.0,0.0,0.0,0.0,0.0183,0.0669,0.0784,0.0959,0.1437,0.2333,0.2447,0.1367,0.1177,0.0,0.0,0.0,0.0,0.0,0.0,0.0,0.4026,0.447,0.5308,0.648,0.6871,0.7709,0.8885,0.8885,0.8885,0.8885,0.8885,0.8885,0.0,0.0,0.0,0.0,0.8885,0.8885,0.8885,0.0,0.0,0.0,0.0,0.0,0.0,0.0,0.0,0.0,0.0,0.0,0.0,0.0,1.783,1.855,1.9067,1.9307,1.9424,1.9424,1.9424,1.9424,1.9424,2.0328,2.1517,2.2749,2.4245,2.5744,2.7152,2.7745,2.813,2.8291,2.8291,2.8291,0.0,0.0,2.874,2.8896,2.9417,2.9738,2.9738,2.9738,2.9738,2.9738,2.947,2.9209,2.8935,2.8769,2.8682,2.8682,2.8428,2.8291,2.8291,2.8291,2.8291,2.8291,2.8291,2.8291,2.8291,2.8291,2.8291,2.8291,2.8291,2.8291,0.0,2.8291,2.8291,2.8291,2.8291,2.8291,2.8291,2.8291,2.8291,2.8291,0.0,0.0,0.0,0.0,0.0,0.0,0.0,0.0062,0.0494,0.185,0.1912,0.2341,0.3507,0.4057,0.3852,0.2658,0.3014,0.0,0.0,0.0,0.0,0.0,0.0,0.0,0.2082,0.3254,0.4423,0.5539,0.6652,0.782,0.8885,0.8885,0.8885,0.8885,0.8885,0.8885,0.8885,0.8885,0.8885,0.8885,0.8885,0.8885,0.0,0.0,0.0,0.0,0.0,0.0,0.0,0.0,0.0,0.0,0.0,0.0,0.0,0.0,0.0,0.0,0.0,1.9074,1.9332,1.9332,1.9352,1.9424,1.9424,2.027,0.0,2.2644,2.4245,2.5845,2.7034,2.7862,2.8291,2.8291,2.8291,2.8291,2.8291,2.8291,2.8437,2.8828,2.9459,2.9881,2.9881,2.9881,2.9881,2.9881,2.9221,2.8877,2.8877,2.8506,2.8291,2.8291,2.8291,2.8291,2.8291,2.8291,2.8291,2.8291,2.8291,2.8291,2.8291,2.8291,2.8291,2.8291,2.8291,2.8291,2.8291,2.8291,2.8291,2.8291,2.8291,2.8291,2.8291,2.8291,2.8291,2.8291,0.0,0.0,0.0,0.0,0.0,0.0,0.0,0.0,0.0,0.0,0.1357,0.0987,0.1295,0.2525,0.332,0.0,0.0,0.0,0.0,0.0,0.0,0.0,0.0,0.0,0.4586,0.5785,0.6483,0.6768,0.7923,0.8605,0.8885,0.8885,0.8885,0.8885,0.8885,0.8885,0.8885,0.8885,0.8885,0.8885,0.8885,0.8885,0.0,0.0,0.0,0.0,0.8885,0.8885,0.0,0.0,0.0,0.0,0.0,0.0,0.0,0.0,1.6825,1.7389,1.7802,0.0,1.9025,1.9025,1.9199,1.9424,0.0,1.9591,0.0,0.0,0.0,0.0,0.0,0.0,2.8291,2.8291,2.8291,2.8291,2.8291,2.8291,2.833,2.8428,2.8579,2.8702,2.8702,2.8702,2.8702,2.8702,2.855,2.8437,2.8437,2.834,2.8291,2.8291,2.8291,2.8291,2.8291,2.8291,2.8291,2.8291,2.8291,2.8291,2.8291,2.8291,2.8291,2.8291,2.8291,2.8291,2.8291,2.8291,2.8291,2.8291,2.8291,2.8291,2.8291,2.8291,2.8291,2.8291,0.0,0.0,0.0,0.0,0.0,0.0,0.0,0.0,0.0,0.0,0.2279,0.2586,0.3324,0.4918,0.5716,0.0,0.0,0.0,0.0,0.0,0.0,0.0,0.0,0.4991,0.5633,0.6223,0.6829,0.7407,0.7974,0.8536,0.9035,0.9035,0.9001,0.8885,0.8885,0.8885,0.8885,0.8885,0.8885,0.8885,0.8885,0.0,0.0,0.0,0.0,0.0,0.8885,0.8885,0.0,0.8885,0.8885,0.932,0.0,0.0,0.0,0.0,1.6528,1.6991,1.7156,1.7949,1.8724,1.8724,1.8945,1.9165,1.9165,0.0,0.0,0.0,0.0,0.0,0.0,2.707,2.8291,2.8291,2.8291,2.8291,2.8291,2.8291,2.8291,2.8291,2.8408,2.8461,2.8461,2.8461,2.8461,2.8461,2.8354,2.8291,2.8291,2.8291,2.8291,2.8291,2.8291,2.8291,2.8291,2.8291,2.8291,2.8291,2.8291,2.8291,2.8291,2.8291,2.8291,2.8291,2.8291,2.8291,2.8291,2.8291,2.8291,2.8291,2.8291,2.8291,2.8291,2.8291,2.8291,2.8291,0.0,0.0,0.0,0.0,0.0,0.0,0.0,0.0,0.0,0.0,0.0,0.0,0.0,0.0,0.0,0.0,0.0,0.0,0.0,0.0,0.0,0.0,0.6558,0.5793,0.5793,0.6016,0.6593,0.7593,0.7807,0.8323,0.9245,0.9221,0.9076,0.8885,0.8885,0.8885,0.8885,0.8885,0.8885,0.8885,0.8885,0.0,0.0,0.0,0.0,0.0,0.0,0.0,0.0,0.8885,0.8885,0.932,1.1655,0.0,0.0,0.0,0.0,0.0,1.6736,1.7557,1.8424,1.8424,1.8644,1.8871,1.8911,0.0,0.0,0.0,0.0,0.0,0.0,2.6952,2.8291,2.8291,2.8291,2.8291,2.8291,2.8291,2.8291,2.8291,2.8514,2.8621,2.8621,2.8621,2.8621,2.8621,2.8408,2.8291,2.8291,2.8291,2.8291,2.8291,2.8291,2.8291,2.8291,2.8291,2.8291,2.8291,2.8291,2.8291,2.8291,2.8291,2.8291,2.8291,2.8291,2.8291,2.8291,2.8291,2.8291,2.8291,2.8291,2.8291,2.8291,2.8291,2.8291,2.8291,0.0,0.0,0.0,0.0,0.0,0.0,0.0,0.0,0.0,0.0,0.0,0.0,0.0,0.0,0.0,0.0,0.0,0.0,0.0,0.0,0.0,0.9449,0.7193,0.5857,0.5857,0.6808,0.7419,0.7598,0.8617,0.9194,0.9344,0.9272,0.9076,0.8885,0.8885,0.8885,0.8885,0.8885,0.8885,0.8885,0.8885,0.0,0.0,0.0,0.0,0.0,0.0,0.0,0.0,0.8885,0.8885,0.932,1.1655,0.0,0.0,0.0,0.0,0.0,1.7067,1.7581,1.8062,1.8062,1.8337,1.8617,1.8865,1.8958,0.0,0.0,0.0,0.0,0.0,2.6391,2.8291,2.8291,2.8291,2.8291,2.8291,2.8291,2.8291,2.8291,2.8344,2.8344,2.8344,2.8344,2.8344,2.8344,2.8291,2.8291,2.8291,2.8291,2.8291,2.8291,2.8291,2.8291,2.8291,2.8291,2.8291,2.8291,2.8291,2.8291,2.8291,2.8291,2.8291,2.8291,2.8291,2.8291,2.8291,2.8291,2.8291,2.8291,2.8291,2.8291,2.8291,2.8291,2.8291,2.8291,0.0,0.0,0.0,0.0,0.0,0.0,0.0,0.0,0.0,0.0,0.0,0.0,0.0,0.0,0.0,0.0,0.0,0.0,0.0,0.0,0.9822,0.9822,0.8653,0.7978,0.7978,0.8536,0.8811,0.8811,0.935,0.9581,0.95,0.932,0.9076,0.8885,0.8885,0.8885,0.8885,0.8885,0.8885,0.8885,0.0,0.0,0.0,0.0,0.0,0.0,0.0,0.0,0.0,0.0,0.8885,0.932,1.1655,0.0,0.0,0.0,0.0,0.0,1.712,1.7483,1.7836,1.7949,1.8335,1.8764,1.8891,1.9052,1.9428,0.0,0.0,0.0,0.0,2.6726,2.8291,2.8291,2.8291,2.8291,2.8291,2.8291,2.8291,2.8291,2.8291,2.8291,2.8291,2.8291,2.8344,2.8514,2.8514,2.8514,2.8514,2.8514,2.8461,2.8291,2.8291,2.8291,2.8291,2.8291,2.8291,2.8291,2.8291,2.8291,2.8291,2.8291,2.8291,2.8291,2.8291,2.8291,2.8291,2.8291,2.8291,2.8291,2.8291,2.8291,2.8291,2.8291,2.8291,2.8291,0.0,0.0,0.0,0.0,0.0,0.0,0.0,0.0,0.0,0.0,0.0,0.0,0.0,0.0,0.0,0.0,0.0,0.0,0.0,0.9822,0.9822,0.9822,0.9822,0.9822,0.9822,0.9822,0.9822,0.9822,0.9822,0.973,0.9551,0.9317,0.911,0.8885,0.8885,0.8937,0.8995,0.8937,0.8992,0.9103,0.0,0.0,0.0,0.0,0.0,0.0,0.0,0.0,0.0,0.0,0.0,0.0,0.0,0.0,0.0,1.5512,1.6477,1.6789,1.712,1.7483,1.7856,1.809,1.8382,1.8758,1.8891,1.9098,1.9567,2.0594,2.2387,0.0,0.0,2.6898,2.8291,2.8291,2.8291,2.8291,2.8291,2.8291,2.8291,2.8291,2.8291,2.8291,2.8291,2.8344,2.8461,2.8684,2.8781,2.8781,2.8684,2.8684,2.8568,2.8291,2.8291,2.8291,2.8291,2.8291,2.8291,2.8291,2.8291,2.8291,2.8291,2.8291,2.8291,2.8291,2.8291,2.8291,2.8291,2.8291,2.8291,2.8291,2.8291,2.8291,2.8291,2.8291,2.8291,2.8291,0.0,0.0,0.0,0.0,0.0,0.0,0.0,0.0,0.0,0.0,0.0,0.0,0.0,0.0,0.0,0.0,0.0,0.0,0.0,0.9822,0.9822,0.9822,0.9822,0.9822,0.9822,0.9822,0.9822,0.9822,0.9822,0.9676,0.9398,0.9374,0.9211,0.8885,0.8885,0.9051,0.9323,0.9047,0.9213,0.9706,0.9103,0.0,0.0,0.0,0.0,0.0,0.0,0.0,0.0,0.0,0.0,0.0,0.0,0.0,1.2906,1.5512,1.6477,1.6789,1.712,1.7787,1.843,1.8457,1.8283,1.8195,1.8741,1.8938,1.9032,1.9428,2.182,2.3822,2.3933,2.6327,2.8291,2.8291,2.8291,2.8291,2.8291,2.8291,2.8291,2.8291,2.8291,2.8291,2.8291,2.8514,2.8684,2.8684,2.893,2.8983,2.8727,2.8684,2.8568,2.8291,2.8291,2.8291,2.8291,2.8291,2.8291,2.8291,2.8291,2.8291,2.8291,2.8291,2.8291,2.8291,2.8291,2.8291,2.8291,2.8291,2.8291,2.8291,2.8291,2.8291,2.8291,2.8291,2.8291,2.8291,0.0,0.0,0.0,0.0,0.0,0.0,0.0,0.0,0.0,0.0,0.0,0.0,0.0,0.0,0.0,0.0,0.0,0.0,0.0,0.9822,0.9822,0.9822,0.9822,0.9822,0.9822,0.9822,0.9822,0.9822,0.9822,0.9669,0.9381,0.9381,0.9225,0.8885,0.9103,0.9268,0.9379,0.943,0.9596,0.9761,0.9541,0.9864,0.0,0.0,0.0,0.0,0.0,0.0,0.0,0.0,0.8885,0.932,1.1655,1.2417,1.2955,1.5713,1.663,1.6827,1.7502,1.7935,1.8303,1.8671,1.8677,1.8698,1.9105,1.9199,1.9456,2.0364,2.2274,2.4378,2.6227,2.7511,2.8291,2.8291,2.8291,2.8291,2.8291,2.8291,2.8344,2.8514,2.8408,2.8354,2.8514,2.8621,2.8781,2.893,2.9248,2.929,2.8983,2.893,2.8771,2.8291,2.8291,2.8291,2.8291,2.8291,2.8291,2.8291,2.8291,2.8291,2.8291,2.8291,2.8291,2.8291,2.8291,2.8291,2.8291,2.8291,2.8291,2.8291,2.8291,2.8291,2.8291,2.8291,2.8291,2.8291,0.0,0.0,0.0,0.0,0.0,0.0,0.0,0.0,0.0,0.0,0.0,0.0,0.0,0.0,0.0,0.0,0.0,0.0,0.9822,0.9822,0.9822,0.9822,0.9822,0.9822,0.9822,0.9822,0.9822,0.9822,0.9822,0.9669,0.9381,0.9381,0.9279,0.9051,0.9323,0.9489,0.9706,1.0139,1.0464,1.0629,1.0844,1.1328,0.0,0.0,0.0,0.0,0.0,0.0,0.0,0.0,1.0131,1.0468,1.2493,1.3118,1.3565,1.6103,1.6895,1.7156,1.7851,1.8141,1.8362,1.8824,1.8991,1.9118,1.9377,1.9424,1.9649,2.0551,2.2443,2.4829,2.7789,2.8291,2.8291,2.8291,2.8291,2.8291,2.8291,2.8291,2.8354,2.8568,2.8514,2.8514,2.8684,2.8781,2.893,2.9237,2.9448,2.9448,2.9132,2.9079,2.8867,2.8291,2.8291,2.8291,2.8291,2.8291,2.8291,2.8291,2.8291,2.8291,2.8291,2.8291,2.8291,2.8291,2.8291,2.8291,2.8291,2.8291,2.8291,2.8291,2.8291,2.8291,2.8291,2.8291,2.8291,2.8291,0.0,0.0,0.0,0.0,0.0,0.0,0.0,0.0,0.9822,0.9822,0.9822,0.0,0.0,0.0,0.0,0.0,0.0,0.0,0.9822,0.9822,0.9822,0.9822,0.9822,0.9822,0.9822,0.9822,0.9822,0.9822,0.9819,0.9669,0.9381,0.9381,0.9393,0.9434,0.9434,0.9761,1.0363,1.1168,1.1869,1.2467,1.3053,1.3485,1.3701,0.0,0.0,0.0,0.0,0.0,0.0,0.0,1.2827,1.3034,1.4213,1.463,1.4955,1.6721,1.7421,1.7706,1.804,1.8473,1.8925,1.8925,1.9152,1.9424,1.9424,1.9424,1.9482,1.9758,2.2217,2.5113,2.7789,2.8291,2.8291,2.8291,2.8291,2.8291,2.8291,2.8291,2.8291,2.8291,2.8514,2.8684,2.8684,2.893,2.9237,2.9554,2.9606,2.9448,2.9132,2.9079,2.8867,2.8291,2.8291,2.8291,2.8291,2.8291,2.8291,2.8291,2.8291,2.8291,2.8291,2.8291,2.8291,2.8291,2.8291,2.8291,2.8291,2.8291,2.8291,2.8291,2.8291,2.8291,2.8291,2.8291,2.8291,2.8291,0.0,0.0,0.0,0.0,0.0,0.0,0.0,0.0,0.9822,0.9822,0.9822,0.0,0.0,0.0,0.0,0.0,0.0,0.0,0.9822,0.9822,0.9822,0.9822,0.9822,0.9822,0.9822,0.9822,0.9822,0.9822,0.972,0.9574,0.9381,0.9498,0.9898,1.0621,1.1059,1.176,1.2733,1.3161,1.3431,1.3593,1.3809,1.4298,1.4846,0.0,0.0,0.0,0.0,0.0,0.0,0.0,0.0,0.0,1.506,1.554,1.5837,1.739,1.7867,1.8079,1.8506,1.8801,1.8978,1.9185,1.9299,1.9424,1.9424,1.9424,1.9764,2.1117,2.2782,2.4552,2.6626,2.7745,2.8291,2.8291,2.8291,2.8291,2.8291,2.8291,2.8354,2.8568,2.8514,2.8558,2.893,2.8877,2.9036,2.9554,2.9606,2.9448,2.9132,2.9079,2.8867,2.8291,2.8291,2.8291,2.8291,2.8291,2.8291,2.8291,2.8291,2.8291,2.8291,2.8291,2.8291,2.8291,2.8291,2.8291,2.8291,2.8291,2.8291,2.8291,2.8291,2.8291,2.8291,2.8291,2.8291,2.8291,0.0,0.0,0.0,0.0,0.0,0.0,0.0,0.0,0.9822,0.9822,0.9822,0.9822,0.0,0.0,0.0,0.0,0.0,0.0,0.9822,0.9822,0.9822,0.9822,0.9822,0.9822,0.9822,0.9822,0.9822,0.9822,0.968,0.9589,0.9552,1.0065,1.0675,1.1487,1.2304,1.3107,1.3917,1.4567,1.4835,1.4835,1.5316,1.5808,1.6246,0.0,0.0,0.0,0.0,0.0,0.0,0.0,0.0,0.0,1.6455,1.6714,1.6964,1.8107,1.8422,1.8518,1.8988,1.9098,1.9145,1.9325,1.9424,1.9424,1.9424,1.9597,2.0213,2.1794,2.3175,2.4616,2.6191,2.7466,2.8291,2.8291,2.8291,2.8291,2.8291,2.8291,2.8408,2.8684,2.8664,2.8761,2.9079,2.9089,2.9195,2.9554,2.9606,2.9501,2.929,2.9185,2.892,2.8461,2.8344,2.8291,2.8291,2.8291,2.8291,2.8291,2.8291,2.8291,2.8291,2.8291,2.8291,2.8291,2.8291,2.8291,2.8291,2.8291,2.8291,2.8291,2.8291,2.8291,2.8291,2.8291,2.8291,2.8291,0.0,0.0,0.9335,0.9335,0.0,0.0,0.0,0.0,0.9822,0.9822,0.9822,0.9822,0.0,0.0,0.0,0.0,0.0,0.0,0.0,0.9822,0.9822,0.9822,0.9822,0.9822,0.9822,0.9822,0.9815,0.9802,0.9659,0.9693,0.995,1.0888,1.1645,1.2358,1.3431,1.4078,1.4513,1.5589,1.6074,1.6127,1.7206,1.7582,1.7582,1.7582,0.0,0.0,0.0,0.0,0.0,0.0,0.0,0.0,1.8128,1.8103,1.8269,1.8803,1.8939,1.8997,1.9307,1.9424,1.9424,1.9424,1.9424,1.9424,1.9424,1.9815,2.0558,2.168,2.3287,2.4893,2.6136,2.7295,2.8184,2.8291,2.8291,2.8291,2.8291,2.8291,2.8398,2.8621,2.8877,2.9079,2.9079,2.9343,2.9554,2.9606,2.9606,2.9606,2.9606,2.929,2.9036,2.8727,2.8461,2.8291,2.8291,2.8291,2.8291,2.8291,2.8291,2.8291,2.8291,2.8291,2.8291,2.8291,2.8291,2.8291,2.8291,2.8291,2.8291,2.8291,2.8291,2.8291,2.8291,2.8291,2.8291,2.8291,0.0,0.0,0.97,0.97,0.0,0.0,0.0,0.0,0.0,0.9822,0.0,0.0,0.0,0.0,0.0,0.0,0.0,0.0,0.0,0.9822,0.9822,0.9822,0.9822,0.9822,0.9822,0.9822,0.9768,0.9656,0.9503,1.004,1.1134,1.1372,1.2604,1.4669,1.5209,1.5962,1.6876,1.7094,1.7206,1.7259,1.7477,1.7582,1.7582,1.7582,1.7582,0.0,0.0,0.0,0.0,0.0,0.0,0.0,1.9006,1.9099,1.9105,1.9229,1.9301,1.9307,1.9366,1.9424,1.9424,1.9424,1.9424,1.9424,1.9424,1.9649,2.004,2.0551,2.19,2.3399,2.4846,2.6073,2.7187,2.813,2.8291,2.8291,2.8291,2.8291,2.8291,2.8398,2.8621,2.8781,2.8781,2.9036,2.9343,2.9606,2.9606,2.9606,2.9606,2.9554,2.9248,2.8737,2.8621,2.8514,2.8291,2.8291,2.8291,2.8291,2.8291,2.8291,2.8291,2.8291,2.8291,2.8291,2.8291,2.8291,2.8291,2.8291,2.8291,2.8291,2.8291,2.8291,2.8291,2.8291,2.8291,2.8291,0.0,0.0,0.0,0.0,0.0,0.0,0.0,0.0,0.0,0.0,0.0,0.0,0.0,0.0,0.0,0.0,0.0,0.0,0.0,0.9822,0.9822,0.9822,0.9822,0.9822,0.9822,0.9822,0.9988,1.0425,1.0433,1.0819,1.1694,1.2824,1.418,1.5689,1.6393,1.7041,1.7582,1.7582,1.7582,1.7582,1.7582,1.7582,1.7582,1.7582,1.7582,1.7582,1.7582,0.0,0.0,0.0,0.0,0.0,0.0,0.0,1.9424,1.9424,1.9424,1.9424,1.9424,1.9424,0.0,1.9424,0.0,1.9424,1.9424,1.9591,1.9931,2.0213,2.1452,2.2958,2.445,2.568,2.6907,2.8121,2.8291,2.8291,2.8291,2.8291,2.8354,2.8461,2.8621,2.8727,2.8887,2.9185,2.9396,2.9606,2.9722,2.9774,2.9774,2.9511,2.93,2.9142,2.8727,2.8514,2.8514,2.8344,2.8291,2.8291,2.8291,2.8291,2.8291,2.8291,2.8291,2.8291,2.8291,2.8291,2.8291,2.8291,2.8291,2.8291,2.8291,2.8291,2.8291,2.8291,2.8291,2.8291,0.0,0.0,0.0,0.0,0.0,0.0,0.0,0.0,0.0,0.0,0.0,0.0,0.0,0.0,0.0,0.0,0.0,0.0,0.0,0.0,0.0,0.9822,0.9822,0.9822,0.9822,0.9795,1.0303,1.1306,1.1697,1.202,1.2446,1.4488,1.5689,1.6234,1.7206,1.7582,1.7582,1.7582,1.7582,1.7582,1.7582,1.7582,1.7582,1.7582,1.7582,1.7589,1.7642,1.8016,1.8497,1.8551,0.0,0.0,0.0,0.0,1.9424,1.9424,1.9424,1.9424,1.9424,1.9424,1.9424,1.9424,1.9424,0.0,1.9424,1.9591,1.9815,2.0213,2.1281,2.2628,2.4117,2.5406,2.6572,2.7789,2.8184,2.8291,2.8291,2.8291,2.8398,2.8621,2.8674,2.8781,2.9036,2.9343,2.9554,2.9606,2.9827,2.9942,2.9942,2.9459,2.929,2.9501,2.8771,2.8461,2.8684,2.8451,2.8291,2.8291,2.8291,2.8291,2.8291,2.8291,2.8291,2.8291,2.8291,2.8291,2.8291,2.8291,2.8291,2.8291,2.8291,2.8291,2.8291,2.8291,2.8291,2.8291,0.0,0.0,0.0,0.0,0.0,0.0,0.0,0.0,0.0,0.0,0.9822,0.9822,0.0,0.0,0.0,0.0,0.0,0.0,0.9822,0.0,0.0,0.9822,0.9822,0.9822,0.9822,0.97,1.0259,1.1463,1.2632,1.3808,1.4928,1.5269,1.6121,1.7364,1.7529,1.7582,1.7582,1.7582,1.7582,1.7582,1.7582,1.7582,1.7582,1.7582,1.7582,1.7615,1.7836,1.8203,1.8531,1.8778,1.9092,0.0,0.0,0.0,1.9424,1.9424,1.9424,1.9424,1.9424,0.0,1.9424,0.0,1.9424,1.9424,0.0,0.0,1.9591,2.0155,2.0666,2.1395,2.2918,2.4181,2.5342,2.6518,2.7628,2.8291,2.8291,2.8291,2.8291,2.8354,2.8568,2.8727,2.8727,2.8983,2.929,2.9606,2.9606,2.9659,2.9659,2.9554,2.9396,2.9185,2.8834,2.8674,2.8684,2.8451,2.8291,2.8291,2.8291,2.8291,2.8291,2.8291,2.8291,2.8291,2.8291,2.8291,2.8291,2.8291,2.8291,2.8291,2.8291,2.8291,2.8291,2.8291,2.8291,2.8291,0.0,0.0,0.0,0.0,0.0,0.0,0.0,0.0,0.0,0.0,0.0,0.9822,0.0,0.0,0.0,0.9822,0.9822,0.9822,0.9822,0.9822,0.9822,0.9822,0.9822,0.9822,0.9822,1.0506,1.1386,1.2513,1.3988,1.5301,1.6405,1.6558,1.6988,1.7582,1.7582,1.7582,1.7582,1.7582,1.7582,1.7582,1.7582,1.7582,1.7582,1.7582,1.7582,1.7622,1.7882,1.8237,1.8537,1.8824,1.9118,1.9424,1.9424,0.0,0.0,0.0,1.9424,1.9424,1.9424,1.9424,1.9424,0.0,1.9424,1.9424,1.9424,1.9424,1.954,1.9931,2.027,2.1002,2.27,2.3902,2.5113,2.63,2.752,2.8291,2.8291,2.8291,2.8291,2.8291,2.8408,2.8514,2.8684,2.893,2.9237,2.9554,2.9722,2.9774,2.9606,2.9396,2.9237,2.9079,2.8834,2.8684,2.8684,2.8568,2.8461,2.8291,2.8291,2.8291,2.8291,2.8291,2.8291,2.8291,2.8291,2.8291,2.8291,2.8291,2.8291,2.8291,2.8291,2.8291,2.8291,2.8291,2.8291,2.8291,0.0,0.0,0.0,0.0,0.0,0.0,0.0,0.0,0.0,0.0,0.0,0.0,0.0,0.0,0.0,0.0,0.9822,0.9822,0.9822,0.9822,0.9822,0.9822,0.9822,0.9802,0.9768,1.1028,1.2236,1.3348,1.49,1.6222,1.7331,1.7536,1.7582,1.7582,1.7582,1.7582,1.7582,1.7582,1.7635,1.7687,1.7687,1.7687,1.7687,1.7687,1.7641,1.7622,1.7882,1.8237,1.8537,1.8824,1.9118,1.9424,1.9424,1.9424,0.0,0.0,0.0,1.9424,0.0,0.0,1.9424,1.9424,1.9424,1.9424,0.0,0.0,1.9482,1.9758,1.9989,2.0608,2.2135,2.3407,2.468,2.5854,2.707,2.796,2.8237,2.8291,2.8291,2.8291,2.8291,2.8408,2.8674,2.8824,2.9079,2.9448,2.9669,2.9669,2.9406,2.9185,2.9079,2.8973,2.8781,2.8684,2.8684,2.8621,2.8514,2.8291,2.8291,2.8291,2.8291,2.8291,2.8291,2.8291,2.8291,2.8291,2.8291,2.8291,2.8291,2.8291,2.8291,2.8291,2.8291,2.8291,2.8291,2.8291,0.0,0.0,0.0,0.0,0.0,0.0,0.0,0.0,0.0,0.0,0.0,0.0,0.9822,0.9822,0.9822,0.9822,0.9822,0.9822,0.9822,0.9822,0.9822,0.9822,0.9822,0.0,0.9625,1.0848,1.2143,1.3512,1.4803,1.6133,1.7582,1.7582,1.7582,1.7582,1.7582,1.7582,1.7582,1.7582,1.7747,1.7964,1.7964,1.7964,1.7964,1.7964,1.7799,1.7622,1.7882,1.8237,1.8537,1.8824,1.9118,1.9424,1.9424,1.9424,1.9424,0.0,0.0,0.0,0.0,1.9424,0.0,1.9424,1.9424,1.9424,0.0,0.0,1.9482,1.9758,1.9809,2.004,2.0716,2.207,2.3472,2.4616,2.5799,2.6961,2.813,2.8291,2.8291,2.8291,2.8291,2.8408,2.8674,2.8461,2.8558,2.9079,2.9132,2.9036,2.8781,2.8983,2.8983,2.8737,2.8727,2.8684,2.8684,2.8461,2.8291,2.8291,2.8291,2.8291,2.8291,2.8291,2.8291,2.8291,2.8291,2.8291,2.8291,2.8291,2.8291,2.8291,2.8291,2.8291,2.8291,2.8291,2.8291,2.8291,0.0,0.0,0.0,0.0,0.0,0.0,0.0,0.0,0.0,0.0,0.0,0.0,0.0,1.2569,1.2633,1.2868,1.2873,1.2873,1.2873,1.2873,1.281,1.2618,1.1853,1.1711,1.2219,1.2758,1.3679,1.4933,1.6203,1.7094,1.7582,1.7582,1.7582,1.7582,1.7582,1.7582,1.7635,1.7799,1.7911,1.8016,1.8167,1.8272,1.822,1.8069,1.7964,1.7847,1.799,1.8237,1.8537,1.8824,1.9118,1.9424,1.9424,1.9424,1.9424,1.9424,1.9424,0.0,0.0,0.0,0.0,1.9424,1.9424,1.9424,1.9424,1.9424,1.9424,1.954,1.9707,1.9924,2.0378,2.168,2.3127,2.4505,2.5735,2.6907,2.8121,2.8291,2.8291,2.8291,2.8291,2.8344,2.8451,2.8514,2.8621,2.8834,2.9185,2.93,2.8983,2.9026,2.9079,2.8983,2.8983,2.8983,2.8983,2.8504,2.8291,2.8291,2.8291,2.8291,2.8291,2.8291,2.8291,2.8291,2.8291,2.8291,2.8291,2.8291,2.8291,2.8291,2.8291,2.8291,2.8291,2.8291,2.8291,2.8291,0.0,0.0,0.0,0.0,0.0,1.0604,1.1023,1.1924,1.2522,1.2522,0.0,0.0,0.0,0.0,1.4361,1.4604,1.4604,1.4569,1.4488,1.4483,1.4323,1.4034,1.3278,1.3069,1.359,1.4235,1.4834,1.5627,1.6919,1.7582,1.7582,1.7582,1.7582,1.7582,1.7582,1.7582,1.7635,1.7911,1.8069,1.8167,1.884,1.8893,1.8593,1.8795,1.8482,1.7991,1.8089,1.8191,1.8384,1.8783,1.9028,1.9232,1.9332,1.9424,1.9424,1.9424,1.9424,1.9424,1.9424,0.0,0.0,0.0,1.9424,1.9424,1.9424,1.9424,1.9424,1.9424,1.9533,1.9764,2.004,2.1002,2.2402,2.4394,2.5397,2.6454,2.8067,2.8291,2.8291,2.8291,2.8291,2.8291,2.8291,2.8461,2.8568,2.8568,2.9036,2.9195,2.8983,2.8983,2.9036,2.9079,2.9079,2.9079,2.9079,2.8664,2.8408,2.8291,2.8291,2.8291,2.8291,2.8291,2.8291,2.8291,2.8291,2.8291,2.8291,2.8291,2.8291,2.8291,2.8291,2.8291,2.8291,2.8291,2.8291,2.8291,0.0,0.0,1.0243,1.1511,1.1752,1.223,1.3545,1.4009,1.4178,1.4178,0.0,0.0,0.0,0.0,0.0,1.4713,1.4703,1.4606,1.4313,1.4356,1.4202,1.386,1.3793,1.3754,1.3598,1.4977,1.5621,1.547,1.6876,1.7582,1.7582,1.7582,1.7582,1.7582,1.7582,1.7635,1.7687,1.7957,1.822,1.8572,1.9968,1.9931,1.9123,2.013,1.9561,1.8174,1.837,1.8314,1.8144,1.8707,1.8894,1.8978,1.9279,1.9424,1.9424,1.9424,1.9424,1.9424,0.0,0.0,0.0,1.9424,1.9424,1.9424,1.9424,1.9424,1.9424,1.9424,1.9424,1.9475,1.9758,2.0097,2.1338,2.4228,2.4727,2.5553,2.796,2.8291,2.8291,2.8291,2.8291,2.8291,2.8291,2.8291,2.8291,2.8291,2.8568,2.8684,2.8684,2.8727,2.8834,2.9079,2.9079,2.9079,2.9079,2.8834,2.8568,2.8291,2.8291,2.8291,2.8291,2.8291,2.8291,2.8291,2.8291,2.8291,2.8291,2.8291,2.8291,2.8291,2.8291,2.8291,2.8291,2.8291,2.8291,2.8291,0.0,1.0543,1.1386,1.1981,1.2813,1.3651,1.4247,1.5198,1.5854,0.0,0.0,0.0,1.7689,1.7691,1.7695,1.7695,1.7515,1.7372,1.7347,1.7285,1.716,1.6832,1.6026,1.5848,1.6458,1.6077,1.6201,1.6988,1.7417,1.7582,1.7582,1.7582,1.7582,1.7582,1.7582,1.8146,1.9065,1.9324,1.9642,2.0019,2.1379,2.1785,2.154,2.1633,2.1379,2.0818,1.9886,1.9687,1.9762,1.9405,1.9222,1.9192,1.9387,1.9424,1.9424,1.9424,1.9424,1.9424,1.9424,0.0,0.0,0.0,0.0,0.0,1.9424,1.9424,1.9424,1.9424,1.9533,1.9815,2.0097,2.1117,2.2507,2.4394,2.4727,2.5553,2.796,2.8291,2.8291,2.8291,2.8291,2.8291,2.8291,2.8291,2.8291,2.8291,2.8568,2.8684,2.8684,2.8877,2.9026,2.9079,2.9079,2.9079,2.9079,2.8834,2.8568,2.8291,2.8291,2.8291,2.8291,2.8291,2.8291,2.8291,2.8291,2.8291,2.8291,2.8291,2.8291,2.8291,2.8291,2.8291,2.8291,2.8291,2.8291,2.8291,1.0604,1.1744,1.2937,1.3646,1.454,1.5375,1.609,1.6921,1.7513,0.0,0.0,0.0,1.8713,1.8725,1.8744,1.8744,1.8591,1.8437,1.831,1.8303,1.817,1.7862,1.7186,1.7103,1.7582,1.6935,1.6935,1.7582,1.7582,1.7582,1.7582,1.7582,1.7582,1.7635,1.8199,1.8916,1.9826,2.1049,2.1414,2.1285,2.2643,2.2885,2.2534,2.2835,2.2593,2.1988,2.1312,2.0723,2.0302,2.0264,2.0023,1.969,1.9594,1.9591,1.9533,1.9424,1.9424,1.9424,1.9424,1.9424,1.9424,1.9424,0.0,0.0,1.9533,1.9591,1.9591,1.9764,1.9873,2.0213,2.0888,2.1843,2.3127,2.4994,2.5388,2.6127,2.8014,2.8291,2.8291,2.8291,2.8291,2.8291,2.8291,2.8291,2.8291,2.8291,2.8461,2.8514,2.8514,2.8877,2.9026,2.893,2.9185,2.9195,2.893,2.8877,2.8664,2.8291,2.8291,2.8291,2.8291,2.8291,2.8291,2.8291,2.8291,2.8291,2.8291,2.8291,2.8291,2.8291,2.8291,2.8291,2.8291,2.8291,2.8291,2.8271,0.0,1.3274,1.4677,1.5864,1.6381,1.7078,1.821,1.8674,1.8841,0.0,1.886,1.8778,1.8517,1.8464,1.8444,1.8444,1.841,1.8277,1.7955,1.7942,1.7869,1.7595,1.7582,1.7582,1.7582,1.7582,1.7582,1.7582,1.7582,1.7582,1.7582,1.7582,1.7635,1.7687,1.902,1.9834,2.0392,2.2726,2.3244,2.2593,2.3791,2.3692,2.2944,2.389,2.3543,2.2542,2.2643,2.171,2.0545,2.1315,2.1166,2.0616,2.0199,2.004,1.9982,1.9591,1.9482,1.9482,1.9424,1.9424,1.9424,1.9424,1.9424,0.0,1.97,1.9758,1.9815,2.0162,2.0213,2.0558,2.1623,2.2184,2.3183,2.5333,2.6118,2.6907,2.813,2.8291,2.8291,2.8291,2.8291,2.8291,2.8291,2.8291,2.8291,2.8291,2.8291,2.8291,2.8291,2.8761,2.893,2.8727,2.9248,2.9248,2.8727,2.893,2.8814,2.8291,2.8291,2.8291,2.8291,2.8291,2.8291,2.8291,2.8291,2.8291,2.8291,2.8291,2.8291,2.8291,2.8291,2.8291,2.8291,2.8291,2.8262,2.8164,1.4009,1.4933,1.5853,1.6304,1.7124,1.7903,1.8378,1.8546,1.8601,1.8601,1.8555,1.8551,1.8497,1.8277,1.8075,1.8075,1.7903,1.7736,1.7675,1.7669,1.7649,1.7589,1.7582,1.7582,1.7582,1.7582,1.7582,1.7582,1.7582,1.7582,1.7582,1.7582,1.7747,1.7964,1.9072,2.04,2.1777,2.3135,2.4205,2.503,2.5274,2.5274,2.5079,2.5333,2.5226,2.4873,2.4097,2.3583,2.3241,2.293,2.2884,2.2798,2.193,2.1623,2.146,2.0443,2.0104,2.0046,1.9815,1.97,1.9642,1.9424,1.9424,0.0,1.9482,1.9482,1.9482,1.954,1.9764,1.9982,2.0213,2.1281,2.2353,2.2797,2.4727,2.6662,2.8121,2.8291,2.8291,2.8291,2.8291,2.8291,2.8291,2.8291,2.8291,2.8291,2.8291,2.8291,2.8291,2.8398,2.8611,2.9036,2.894,2.893,2.9026,2.8887,2.8621,2.8291,2.8291,2.8291,2.8291,2.8291,2.8291,2.8291,2.8291,2.8291,2.8291,2.8291,2.8291,2.8291,2.8291,2.8291,2.8291,2.8291,2.8076,2.7826,1.5087,1.6149,1.7089,1.7196,1.7776,1.8317,1.849,1.849,1.849,1.849,1.8364,1.821,1.8056,1.7903,1.7816,1.7816,1.7669,1.7582,1.7582,1.7582,1.7582,1.7582,1.7582,1.7582,1.7582,1.7582,1.7582,1.7582,1.7582,1.7582,1.7582,1.7747,1.816,1.8878,2.0246,2.1617,2.2985,2.4205,2.5079,2.5693,2.5693,2.5693,2.5693,2.5693,2.5693,2.5635,2.5069,2.4631,2.4231,2.3626,2.3586,2.3741,2.3342,2.3183,2.2902,2.1566,2.1174,2.1002,2.027,2.004,2.0046,1.9873,1.9707,0.0,0.0,1.9707,1.9649,1.9815,1.9931,2.0213,2.0766,2.1502,2.2232,2.2838,2.4718,2.6164,2.6282,2.7457,2.8291,2.8291,2.8291,2.8291,2.8291,2.8291,2.8291,2.8291,2.8291,2.8291,2.8291,2.8291,2.8398,2.8708,2.8727,2.8727,2.8708,2.8727,2.8568,2.8291,2.8291,2.8291,2.8291,2.8291,2.8291,2.8291,2.8291,2.8291,2.8291,2.8291,2.8291,2.8291,2.8291,2.8291,2.8291,2.8291,2.8027,2.7689,1.6136,1.7136,1.7997,1.7997,1.8185,1.8317,1.8317,1.8317,1.8317,1.8317,1.8266,1.8177,1.7918,1.8146,1.8304,1.8304,1.8349,1.8244,1.7989,1.7996,1.7891,1.7635,1.7582,1.7582,1.7582,1.7582,1.7582,1.7582,1.7582,1.7635,1.7687,1.7911,1.8624,1.9842,2.1422,2.2735,2.384,2.5177,2.5693,2.5693,2.5693,2.5693,2.5693,2.5693,2.5693,2.5693,2.5693,2.5338,2.4748,2.4268,2.4395,2.4674,2.4614,2.4675,2.445,2.3015,2.2572,2.2402,2.1338,2.1052,2.1002,2.0723,2.0443,2.027,0.0,0.0,0.0,2.0213,2.027,2.0551,2.1502,2.1665,2.1998,2.2999,2.4386,2.5058,2.4117,2.6063,2.7682,2.7906,2.8184,2.8291,2.8291,2.8291,2.8291,2.8291,2.8291,2.8291,2.8291,2.8291,2.8291,2.8398,2.8514,2.8514,2.8398,2.8514,2.8514,2.8291,2.8291,2.8291,2.8291,2.8291,2.8344,2.8344,2.8291,2.8344,2.8344,2.8291,2.8291,2.8291,2.8291,2.8291,2.8281,2.8203,2.79,2.748,1.8046,1.8106,1.7988,1.7988,1.7816,1.7682,1.7682,1.7682,1.7682,1.7682,1.8485,1.9063,1.9027,2.0151,2.0877,2.0877,2.1108,2.0684,1.9472,1.9369,1.8864,1.7635,1.7582,1.7582,1.7582,1.7582,1.7582,1.7582,1.7582,1.7747,1.7964,1.7964,1.884,2.0423,2.1582,2.2844,2.4137,2.5226,2.5693,2.5693,2.5693,2.5693,2.5693,2.5693,2.5693,2.5693,2.5693,2.5664,2.5624,2.595,2.6314,2.6573,2.592,2.5964,2.6018,2.4782,2.4394,2.4339,2.395,2.3838,2.3503,2.224,2.1851,2.1566,2.0558,0.0,2.027,2.027,0.0,2.0328,2.05,0.0,0.0,2.0666,2.1957,2.2854,2.2741,2.4061,2.5507,2.6572,2.7628,2.8291,2.8291,2.8291,2.8291,2.8291,2.8291,2.8291,2.8291,2.8291,2.8408,2.8631,2.8451,2.8461,2.8674,2.8461,2.8344,2.8291,2.8291,2.8291,2.8291,2.8291,2.8408,2.8621,2.8408,2.8451,2.8621,2.8408,2.8291,2.8291,2.8291,2.8291,2.8252,2.7881,2.7461,2.7031,1.7916,1.7862,1.7776,1.7776,1.7669,1.7582,1.7582,1.7582,1.7838,1.8461,1.9072,1.9687,2.0357,2.1065,2.1515,2.1515,2.1659,2.1405,2.0664,1.9989,1.9272,1.8558,1.7943,1.7582,1.7582,1.7582,1.7687,1.7852,1.7852,1.7957,1.8272,1.9049,2.0166,2.1489,2.2685,2.3899,2.5069,2.5528,2.5693,2.5693,2.5693,2.5693,2.5693,2.5693,2.5693,2.5693,2.5693,2.5693,2.5752,2.624,2.667,2.6987,2.6936,2.7241,2.7295,2.6127,2.5735,2.5571,2.4727,2.4552,2.4394,2.3791,2.3511,2.3071,2.1843,2.1452,2.1174,2.0443,0.0,0.0,0.0,0.0,0.0,0.0,2.1566,2.224,2.1559,2.3335,2.4893,2.5397,2.6518,2.752,2.8237,2.8291,2.8291,2.8291,2.8291,2.8291,2.8291,2.8291,2.8344,2.8461,2.8344,2.8344,2.8461,2.8344,2.8291,2.8291,2.8291,2.8291,2.8291,2.8291,2.8344,2.8461,2.8354,2.8344,2.8461,2.8354,2.8291,2.8291,2.8291,2.8291,2.8271,2.8096,2.7764,2.7363,1.7582,1.7582,1.7582,1.7582,1.7582,1.7687,1.7996,1.8048,1.8461,1.9642,2.0195,2.0861,2.1735,2.2324,2.2667,2.2667,2.2767,2.2576,2.1988,2.1159,2.0495,1.9937,1.9117,1.8603,1.8244,1.8244,1.8206,1.8122,1.8122,1.8279,1.8586,1.9864,2.1132,2.224,2.3534,2.4707,2.5693,2.5693,2.5693,2.5693,2.5693,2.5693,2.5693,2.5693,2.5693,2.5693,2.5693,2.5693,2.5732,2.6103,2.6562,2.707,2.7393,2.7851,2.813,2.7241,2.6961,2.6799,2.5891,2.5672,2.5617,2.5287,2.5067,2.4569,2.3407,2.2958,2.2564,2.1665,2.1502,0.0,0.0,0.0,2.0952,2.0622,0.0,2.1858,2.0952,2.2515,2.3847,2.4181,2.558,2.6961,2.8184,2.8291,2.8291,2.8291,2.8291,2.8291,2.8291,2.8291,2.8291,2.8291,2.8291,2.8291,2.8291,2.8291,2.8291,2.8291,2.8344,2.8408,2.8408,2.8408,2.8451,2.8504,2.8344,2.8344,2.8408,2.8344,2.8291,2.8291,2.8291,2.8291,2.8281,2.8164,2.793,2.7699,1.7582,1.7582,1.7582,1.7582,1.7582,1.7943,1.8968,1.9176,1.9642,2.103,2.2131,2.2885,2.3185,2.4412,2.5177,2.5177,2.543,2.502,2.3692,2.3583,2.2976,2.1702,2.16,2.1041,1.993,1.993,1.9428,1.837,1.837,1.8534,1.8921,1.9983,2.1234,2.2534,2.3642,2.4707,2.5693,2.5693,2.5693,2.5693,2.5693,2.5693,2.5693,2.5693,2.5693,2.5693,2.5693,2.5693,2.5693,2.5703,2.6269,2.7012,2.7031,2.7617,2.8291,2.8237,2.8237,2.8237,2.8184,2.8174,2.7897,2.6744,2.6418,2.6127,2.4893,2.4616,2.4616,2.4552,2.4561,2.4228,2.3143,2.2918,0.0,0.0,0.0,0.0,0.0,2.1268,2.1767,2.2926,2.5084,2.6961,2.8184,2.8291,2.8291,2.8291,2.8291,2.8291,2.8291,2.8291,2.8291,2.8291,2.8291,2.8291,2.8291,2.8291,2.8291,2.8291,2.8568,2.8684,2.8684,2.8684,2.8834,2.9026,2.8504,2.8461,2.8684,2.8408,2.8291,2.8291,2.8291,2.8291,2.8242,2.7832,2.7728,2.766,1.8506,1.8662,1.8454,1.774,1.8199,1.9072,2.0408,2.0613,2.1073,2.2433,2.3085,2.3741,2.452,2.5177,2.5538,2.5538,2.5645,2.543,2.4824,2.4097,2.3434,2.2776,2.2055,2.1541,2.1143,2.1143,2.1049,2.0861,2.0861,2.1022,2.1285,2.2391,2.3135,2.3592,2.4658,2.5382,2.5693,2.5693,2.5693,2.5693,2.5693,2.5693,2.5693,2.5693,2.5693,2.5693,2.5693,2.5693,2.5693,2.5693,2.6123,2.665,2.6934,2.7412,2.7939,2.8213,2.8291,2.8291,2.8291,2.8291,2.8184,2.7789,2.7682,2.7349,2.6182,2.5908,2.568,2.4837,2.4727,2.4561,2.4181,2.3528,0.0,0.0,0.0,0.0,0.0,2.1211,2.193,2.3902,2.4846,2.6118,2.8121,2.8291,2.8291,2.8291,2.8291,2.8291,2.8291,2.8291,2.8291,2.8291,2.8291,2.8291,2.8291,2.8291,2.8408,2.8568,2.8461,2.8611,2.8983,2.8781,2.8834,2.9079,2.8717,2.8621,2.8684,2.8398,2.8291,2.8291,2.8291,2.8291,2.8271,2.8135,2.8086,2.811,1.9694,1.9797,1.9591,1.8871,1.9435,2.0408,2.1684,2.1937,2.2492,2.385,2.4156,2.4559,2.5333,2.5586,2.5693,2.5693,2.5693,2.5635,2.543,2.4815,2.4353,2.4156,2.3484,2.2918,2.2567,2.2558,2.2466,2.224,2.224,2.2333,2.2534,2.3592,2.4088,2.4137,2.5226,2.5693,2.5693,2.5693,2.5693,2.5693,2.5693,2.5693,2.5684,2.583,2.5781,2.5693,2.5693,2.5693,2.5693,2.5693,2.6025,2.6465,2.6885,2.7314,2.7796,2.8164,2.8291,2.8291,2.8291,2.8291,2.8291,2.8291,2.8291,2.8121,2.7295,2.7133,2.6907,2.6118,2.6,2.5836,2.5397,2.4744,0.0,0.0,0.0,0.0,0.0,2.1702,2.2207,2.5012,2.4948,2.5672,2.8067,2.8291,2.8291,2.8291,2.8291,0.0,0.0,2.8291,2.8291,2.8291,2.8291,2.8291,2.8291,2.8398,2.8514,2.8684,2.8717,2.892,2.929,2.9089,2.9036,2.9079,2.8834,2.8631,2.8514,2.8344,2.8291,2.8291,2.8291,2.8291,2.8291,2.8291,2.8344,2.8514,2.0987,2.1038,2.1089,2.1089,2.1234,2.1785,2.2844,2.3244,2.385,2.5137,2.5333,2.544,2.5684,2.5693,2.5693,2.5693,2.5693,2.5693,2.5693,2.5693,2.5693,2.5693,2.5693,2.5226,2.4196,2.4196,2.3692,2.2643,2.2643,2.2643,2.2685,2.3692,2.4196,2.4245,2.5226,2.5693,2.5693,2.5693,2.5693,2.5693,2.5693,2.5684,2.5732,2.6004,2.5965,2.5742,2.5732,2.5742,2.5742,2.5693,2.6016,2.6435,2.6875,2.7305,2.7777,2.8164,2.8291,2.8291,2.8291,2.8291,2.8291,2.8291,2.8291,2.8291,2.8291,2.8291,2.8291,2.8291,2.8291,2.796,2.6799,2.6527,0.0,0.0,0.0,0.0,0.0,2.2805,2.2652,2.6082,2.5507,2.5726,2.8067,2.8291,2.8291,2.8291,0.0,0.0,0.0,2.8291,2.8291,2.8291,2.8291,2.8291,2.8291,2.8568,2.8737,2.8737,2.93,2.9606,2.9606,2.9606,2.9448,2.9132,2.8887,2.8568,2.8344,2.8344,2.8291,2.8291,2.8344,2.8344,2.8344,2.8291,2.8514,2.8834,2.2232,2.3203,2.3868,2.3868,2.3253,2.3194,2.447,2.4716,2.4971,2.5538,2.5586,2.5635,2.5684,2.5693,2.5693,2.5693,2.5693,2.5693,2.5693,2.5693,2.5693,2.5693,2.5693,2.5586,2.5274,2.5274,2.5177,2.4873,2.4873,2.4873,2.4873,2.5177,2.5274,2.5323,2.5586,2.5693,2.5693,2.5693,2.5693,2.5693,2.5693,2.583,2.6004,2.6052,2.6197,2.6255,2.6062,2.6004,2.5965,2.5781,2.5762,2.5986,2.6777,2.709,2.7324,2.8076,2.8291,2.8291,2.8291,2.8291,2.8291,2.8291,2.8291,2.8291,2.8291,2.8291,2.8291,2.8291,2.8291,2.8184,2.7906,2.7079,2.6418,0.0,0.0,0.0,0.0,2.4172,2.4458,2.63,2.6245,2.6626,2.8121,2.8291,2.8291,2.8291,2.8291,0.0,2.8291,2.8291,2.8291,2.8291,2.8291,2.8291,2.8291,2.8568,2.8781,2.8983,2.9132,2.9448,2.9879,2.9711,2.9659,2.9722,2.9511,2.9195,2.8867,2.8867,2.8664,2.8344,2.8771,2.8867,2.8867,2.8674,2.893,2.9406,2.3502,2.4421,2.5079,2.5079,2.4667,2.4559,2.5186,2.5391,2.5538,2.5684,2.5693,2.5693,2.5693,2.5693,2.5693,2.5693,2.5693,2.5693,2.5693,2.5693,2.5693,2.5693,2.5693,2.5693,2.5693,2.5693,2.5693,2.5693,2.5693,2.5693,2.5693,2.5693,2.5693,2.5693,2.5693,2.5693,2.5693,2.5693,2.5693,2.5693,2.5693,2.5868,0.0,2.6245,2.6448,2.6651,2.6496,2.6342,2.6245,2.5965,2.5965,2.6172,2.6799,2.7063,2.7332,2.809,2.8291,2.8291,2.8291,2.8291,2.8291,2.8291,2.8291,2.8291,2.8291,2.8291,2.8291,2.8291,2.8291,2.8291,2.8291,2.7736,2.7295,0.0,0.0,0.0,2.6227,2.5397,2.5333,2.707,2.6799,2.6961,2.8184,2.8291,2.8291,2.8291,2.8291,2.8291,2.8291,2.8291,2.8291,2.8291,2.8291,2.8291,2.8291,2.8568,2.8834,2.9079,2.9237,2.9564,2.9994,2.9827,2.9774,2.9827,2.9669,2.9396,2.9079,2.9079,2.892,2.8654,2.8973,2.9185,2.929,2.9142,2.93,2.9606,2.4627,2.503,2.5333,2.5333,2.5538,2.5635,2.5391,2.5538,2.5693,2.5693,2.5693,2.5693,2.5693,2.5693,2.5693,2.5693,2.5693,2.5693,2.5693,2.5693,2.5693,2.5693,2.5693,2.5693,2.5693,2.5693,2.5693,2.5693,2.5693,2.5693,2.5693,2.5693,2.5693,0.0,0.0,0.0,0.0,2.5732,2.5781,2.5781,2.5781,2.5965,2.6245,2.6448,2.6699,2.6948,2.6948,2.6794,2.6496,2.6245,2.6304,2.655,2.6921,2.7207,2.7558,2.818,2.8359,2.8398,2.8344,2.8344,2.8344,2.8291,2.8291,2.8291,2.8291,2.8291,2.8291,2.8291,2.8291,2.8291,2.8291,2.8291,2.8291,0.0,0.0,2.7079,2.8121,2.6499,2.5945,2.8067,2.7349,0.0,2.8184,2.8291,2.8291,2.8291,2.8291,2.8291,2.8291,2.8291,2.8291,2.8291,2.8291,2.8291,2.8291,2.8621,2.8877,2.9079,2.9501,2.9879,3.0193,3.0193,3.0183,3.0057,3.0057,2.9806,2.9386,2.9386,2.9333,2.9185,2.9185,2.9343,2.9659,2.9659,2.9659,2.9669,2.544,2.5586,2.5635,2.5635,2.5693,2.5684,2.5635,2.5693,2.5693,2.5693,2.5693,2.5693,2.5693,2.5693,2.5693,2.5693,2.5693,2.5693,2.5693,2.5693,2.5693,2.5693,2.5693,2.5693,2.5693,2.5693,2.5693,2.5693,2.5693,2.5693,2.5693,2.5693,2.5693,0.0,0.0,0.0,2.6052,2.6052,2.6159,2.6352,2.6352,2.6506,2.6747,2.6794,2.6986,2.7214,2.7214,2.7081,2.6805,2.6496,2.6448,2.6587,2.6952,2.7362,2.7813,2.8344,2.8693,2.892,2.8674,2.8631,2.8568,2.8344,2.8291,2.8291,2.8291,2.8291,2.8291,2.8291,2.8291,2.8291,2.8291,2.8291,2.8291,2.8291,2.813,2.8067,2.8291,2.796,2.7843,2.8237,2.8121,2.8077,2.8291,2.8291,2.8291,2.8291,2.8291,2.8291,2.8291,2.8291,2.8291,2.8291,2.8291,2.8291,2.8291,2.8771,2.9026,2.9132,2.9669,3.0443,3.133,3.133,3.179,3.2549,3.2549,3.1891,3.0877,3.1073,3.063,2.9837,2.9606,2.9659,2.9942,2.9942,2.9942,2.9942,2.5645,2.5693,2.5693,2.5693,2.5693,2.5693,2.5693,2.5693,2.5693,2.5693,2.5693,2.5693,2.5693,2.5693,2.5693,2.5693,2.5693,2.5693,2.5693,2.5693,2.5693,2.5693,2.5693,2.5693,2.5693,2.5693,2.5693,2.5693,2.5693,2.5693,2.5693,2.5693,2.5693,2.5693,0.0,2.5955,0.0,2.6245,2.64,2.6496,2.6496,2.6651,2.69,2.69,2.7081,2.7309,2.7309,2.7214,2.7081,2.6794,2.6794,2.6962,2.7058,2.7512,2.8056,2.8409,2.879,2.9079,2.893,2.893,2.8824,2.8558,2.8514,2.8461,2.8344,2.8291,2.8291,2.8291,2.8291,2.8291,2.8291,2.8291,2.8291,2.8291,2.8291,2.8291,2.8291,2.8291,2.8291,2.8291,2.8291,2.8291,2.8291,2.8291,2.8291,2.8291,2.8291,2.8291,2.8291,2.8291,2.8291,2.8291,2.8291,2.8291,2.8291,2.8664,2.9227,2.9922,3.0411,3.1238,3.2437,3.2437,3.27,3.3201,3.3201,3.2538,3.1381,3.094,3.0495,2.9994,2.9879,2.9889,2.9994,2.9994,2.9994,2.9994,2.5635,2.5693,2.5693,2.5693,2.5693,2.5693,2.5693,2.5693,2.5693,2.5693,2.5693,2.5693,2.5693,2.5693,2.5693,2.5693,2.5693,2.5693,2.5693,2.5693,2.5693,2.5693,2.5693,2.5693,2.5693,2.5693,2.5693,2.5693,2.5693,2.5693,2.5693,2.5693,2.5732,2.5781,0.0,2.6149,2.6294,2.6496,2.664,2.6688,2.6688,2.6794,2.6996,2.6996,2.7129,2.7309,2.7309,2.7309,2.7262,2.7081,2.7129,2.7276,2.7191,2.7679,2.8299,2.8441,2.8876,2.929,2.9237,2.9185,2.9132,2.8887,2.8781,2.8727,2.8504,2.8451,2.8451,2.8408,2.8344,2.8291,2.8291,2.8291,2.8291,2.8291,2.8291,2.8291,2.8291,2.8291,2.8291,2.8291,2.8291,2.8291,2.8291,2.8291,2.8291,2.8291,2.8291,2.8291,2.8291,2.8291,2.8291,2.8291,2.8291,2.8291,2.8291,2.8867,2.967,3.071,3.1308,3.2297,3.3549,3.3549,3.3648,3.3895,3.3895,3.3289,3.2185,3.0888,3.0339,3.0339,3.0099,2.9994,2.9994,2.9994,2.9994,2.9994,2.5693,2.5693,2.5693,2.5693,2.5693,2.5693,2.5693,2.5693,2.5693,2.5693,2.5693,2.5693,2.5693,2.5693,2.5693,2.5693,2.5693,2.5693,2.5693,2.5693,2.5693,2.5693,2.5693,2.5693,2.5693,2.5693,2.5693,2.5693,2.5693,2.5693,2.5693,2.5693,2.582,2.6052,2.61,2.6342,2.6853,2.6853,2.6986,2.7214,2.7214,2.7262,2.7262,2.7262,2.7262,2.7309,2.7309,2.7309,2.7309,2.7262,2.7262,2.732,2.7314,2.7865,2.8578,2.8569,2.9198,2.9879,2.9617,2.9554,2.9448,2.9132,2.9079,2.9079,2.9026,2.9026,2.8983,2.8727,2.8461,2.8291,2.8291,2.8291,2.8291,2.8291,2.8291,2.8291,2.8291,2.8291,2.8291,2.8291,2.8291,2.8291,2.8291,2.8291,2.8291,2.8291,2.8291,2.8291,2.8291,2.8291,2.8291,2.8291,2.8291,2.8291,2.8291,2.9755,3.0566,3.071,3.2275,3.3598,3.4629,3.4629,3.5174,3.6108,3.6108,3.5463,3.4325,3.2275,3.1432,3.133,3.0391,2.9994,2.9994,2.9994,2.9994,2.9994,2.5693,2.5693,2.5693,2.5693,2.5693,2.5693,2.5693,2.5693,2.5693,2.5693,2.5693,2.5693,2.5693,2.5693,2.5693,2.5693,2.5693,2.5693,2.5693,2.5693,2.5693,2.5693,2.5693,2.5693,2.5693,2.5693,2.5693,2.5693,2.5693,2.5693,2.5693,2.5868,2.61,2.6352,2.6496,2.6699,2.69,2.7081,2.7214,2.7309,2.7309,2.7309,2.7309,2.7309,2.7309,2.7309,2.7309,2.7309,2.7309,2.7309,2.7309,2.7351,2.7572,2.81,2.8669,2.8949,2.9487,2.9994,2.9889,2.9827,2.9774,2.9448,2.9396,2.9343,2.9132,2.9079,2.9079,2.8983,2.8727,2.8514,2.8514,2.8408,2.8291,2.8291,2.8291,2.8291,2.8291,2.8291,2.8291,2.8291,2.8291,2.8291,2.8291,2.8291,2.8291,2.8291,2.8291,2.8291,2.8291,2.8291,2.8291,2.8291,2.8291,2.8398,2.8514,2.9323,3.0484,3.1988,3.2778,3.4091,3.5763,3.5763,3.6013,3.6358,3.5715,3.5223,3.4678,3.3189,3.2185,3.1575,3.1135,3.0588,2.9994,2.9994,2.9994,2.9994,2.5693,2.5693,2.5693,2.5693,2.5693,2.5693,2.5693,2.5965,2.6052,2.5732,2.5965,2.6004,2.5732,2.5693,2.5693,2.5693,2.5693,2.5693,2.5693,2.5693,2.5693,2.5693,2.5693,2.5693,2.5693,2.5693,2.5693,2.5693,2.5693,2.5732,2.583,2.611,2.6352,2.6651,2.6805,2.6948,2.7034,2.7214,2.7309,2.7309,2.7309,2.7309,2.7309,2.7309,2.7309,2.7309,2.7309,2.7309,2.7309,2.7309,2.7489,2.7799,2.8252,2.8715,2.9179,2.9653,3.0126,3.0391,3.0099,2.9994,2.9942,2.9774,2.9722,2.9669,2.9396,2.9343,2.9343,2.9237,2.9036,2.8834,2.8834,2.8664,2.8558,2.8558,2.8558,2.8558,2.8558,2.8451,2.8408,2.8408,2.8354,2.8344,2.8408,2.8408,2.8451,2.8504,2.8558,2.8504,2.8408,2.8408,2.8451,2.8548,2.8847,2.9112,2.928,3.0193,3.1553,3.3266,3.3883,3.4921,3.6405,3.6405,3.6405,3.6358,3.5619,3.5271,3.5174,3.3796,3.275,3.2033,3.1392,3.0692,2.9994,2.9994,3.0193,3.0495,2.5693,2.5693,2.5693,2.5693,2.5693,2.5693,2.5693,2.6552,2.6829,2.582,2.6552,2.6781,2.583,2.5693,2.5693,2.5693,2.5693,2.5693,2.5693,2.5693,2.5693,2.5693,2.5693,2.5693,2.5693,2.5693,2.5693,2.5693,2.5693,2.583,2.61,2.6352,2.6651,2.69,2.69,2.7034,2.7309,2.7309,2.7309,2.7309,2.7309,2.7309,2.7309,2.7309,2.7309,2.7309,2.7309,2.7309,2.7309,2.7309,2.7904,2.8765,2.9328,2.9799,3.0269,3.0751,3.1192,3.133,3.0287,2.9994,2.9994,2.9994,2.9994,2.9994,2.9994,2.9994,2.9931,2.9669,2.9343,2.9079,2.9079,2.9079,2.9079,2.9079,2.9079,2.9079,2.9079,2.8887,2.8684,2.8684,2.8461,2.8408,2.8684,2.8684,2.8834,2.9079,2.9079,2.8973,2.8727,2.8684,2.8834,2.9079,3.012,3.0659,3.0659,3.3105,3.4337,3.4385,3.5715,3.6358,3.6405,3.6405,3.6405,3.6405,3.6405,3.6358,3.6216,3.4091,3.3201,3.2951,3.0847,2.9994,2.9994,2.9994,3.0692,3.1575,2.5693,2.5693,2.5693,2.5693,2.5693,2.5917,2.66,2.701,2.7332,2.7709,2.8028,2.8168,2.7945,2.6744,2.6062,2.6217,2.6265,2.6265,2.6265,2.6062,2.5965,2.5965,2.5965,2.5868,2.5693,2.6072,2.6159,2.5965,2.6159,2.6362,2.6651,2.6747,2.6938,2.7177,2.7177,2.7214,2.7309,2.7309,2.7309,2.7309,2.7309,2.7309,2.7309,2.7309,2.7309,2.7309,2.7309,2.7309,2.7404,2.8034,2.8445,2.9088,3.1344,3.1678,3.1414,3.2203,3.2564,3.26,3.2246,3.2196,3.2196,3.2196,3.2196,3.2196,3.2196,3.2196,3.2145,3.2095,3.1819,3.1604,3.1604,3.144,3.1286,3.1286,3.0669,3.0473,3.1184,2.9932,2.9227,2.9974,2.9964,2.966,2.9036,2.9618,2.9828,2.9122,2.9079,2.9079,2.8983,2.8983,2.9323,3.0162,3.0514,3.1173,3.214,3.2905,3.3773,3.4678,3.5126,3.5667,3.6405,3.6405,3.6405,3.6405,3.6405,3.6405,3.6358,3.5667,3.4933,3.4141,3.275,3.2196,3.2095,3.1341,3.179,3.2689,2.5693,2.5693,2.583,2.6197,2.6284,2.66,2.7605,2.8075,2.8437,2.8773,2.9143,2.9372,2.9315,2.7898,2.6935,2.703,2.6726,2.6448,2.6352,2.6197,2.61,2.61,2.61,2.6062,2.6024,2.6314,2.64,2.6245,2.6496,2.6747,2.69,2.6986,2.7129,2.7309,2.7309,2.7309,2.7309,2.7309,2.7309,2.7309,2.7309,2.7309,2.7309,2.7309,2.7309,2.7309,2.7309,2.7536,2.7904,2.8491,2.9333,3.0445,3.2635,3.3239,3.3244,3.3648,3.3796,3.3697,3.33,3.3201,3.3201,3.3201,3.3201,3.3201,3.3201,3.3201,3.3201,3.3201,3.3089,3.2978,3.2978,3.2767,3.2655,3.2655,3.2101,3.1847,3.2555,3.14,3.0742,3.1429,3.1378,3.1071,3.0535,3.1092,3.1235,3.0701,3.066,3.066,3.066,2.9796,2.9995,3.1593,3.1644,3.2252,3.3514,3.3958,3.4557,3.5415,3.5415,3.5763,3.6405,3.6405,3.6405,3.6405,3.6405,3.6405,3.6358,3.5523,3.503,3.4629,3.3189,3.2851,3.3101,3.2437,3.2889,3.3796,2.5693,2.5693,2.6014,2.701,2.7189,2.7558,2.8634,2.9612,2.9977,2.928,3.0022,3.0441,3.0045,2.9096,2.8402,2.8204,2.7173,2.6448,2.6197,2.6149,2.6149,2.6149,2.6149,2.6245,2.6496,2.6544,2.6544,2.6544,2.6794,2.6948,2.6948,2.7167,2.7309,2.7309,2.7309,2.7309,2.7309,2.7309,2.7309,2.7309,2.7309,2.7309,2.7309,2.7309,2.7309,2.7309,2.7309,2.7904,2.8724,2.8771,3.04,3.2512,3.3204,3.4376,3.541,3.5016,3.4933,3.4678,3.3697,3.34,3.34,3.34,3.34,3.34,3.34,3.34,3.34,3.34,3.34,3.34,3.34,3.34,3.34,3.34,3.335,3.335,3.34,3.3078,3.2867,3.2917,3.2644,3.2593,3.2805,3.2917,3.3017,3.3201,3.3201,3.325,3.33,3.1124,3.0929,3.325,3.33,3.3845,3.4872,3.5906,3.6405,3.6405,3.6405,3.6405,3.6405,3.6405,3.6405,3.6405,3.6405,3.6405,3.6263,3.4239,3.3993,3.4727,3.2627,3.2488,3.34,3.335,3.3993,3.4933,2.5693,2.5693,2.6014,2.701,2.7189,2.7793,2.9567,3.0022,3.0453,3.1193,3.1484,3.1737,3.1977,3.1158,3.0609,3.0699,2.8527,2.6976,2.6747,2.6699,2.6699,2.6699,2.6699,2.6651,2.6496,2.688,2.7119,2.7119,2.7167,2.7214,2.7214,2.7262,2.7309,2.7309,2.7309,2.7309,2.7309,2.7309,2.7309,2.7309,2.7309,2.7309,2.7309,2.7309,2.7309,2.7309,2.7309,2.7904,2.8817,2.9578,3.0993,3.2647,3.3971,3.4907,3.5562,3.5899,3.6013,3.5966,3.5715,3.5619,3.5619,3.5619,3.5619,3.5619,3.5619,3.5619,3.5619,3.5619,3.5619,3.5619,3.5619,3.5619,3.5619,3.5619,3.4981,3.4727,3.5523,3.4178,3.3388,3.4227,3.4264,3.392,3.3189,3.3834,3.403,3.325,3.3201,3.3549,3.4385,3.3089,3.2989,3.4385,3.4434,3.4933,3.6013,3.6263,3.6405,3.6405,3.6405,3.6405,3.6405,3.6405,3.6405,3.6405,3.6405,3.6405,3.6358,3.5858,3.5763,3.5918,3.4569,3.4727,3.5523,3.4727,3.5126,3.6013,2.637,2.6744,2.7389,2.8402,2.8588,2.9096,3.0633,3.0958,3.1238,3.1893,3.2125,3.23,3.2562,3.1813,3.1303,3.1258,2.9669,2.8527,2.8247,2.7799,2.7526,2.7526,2.7119,2.689,2.688,2.7167,2.7309,2.7309,2.7309,2.7309,2.7309,2.7309,2.7309,2.7309,2.7309,2.7309,2.7309,2.7309,2.7309,2.7309,2.7309,2.7309,2.7309,2.7309,2.7309,2.7309,2.7309,2.8222,2.952,3.0297,3.1857,3.3638,3.4732,3.5433,3.5981,3.6317,3.6405,3.6405,3.6405,3.6405,3.6405,3.6405,3.6405,3.6405,3.6405,3.6405,3.6405,3.6405,3.6405,3.6405,3.6405,3.6405,3.6405,3.6405,3.5918,3.5715,3.631,3.5415,3.4872,3.5463,3.5523,3.5319,3.4727,3.5174,3.5271,3.4727,3.4678,3.4933,3.5511,3.4981,3.4921,3.5523,3.5078,3.5319,3.6405,3.6405,3.6405,3.6405,3.6405,3.6405,3.6405,3.6405,3.6405,3.6405,3.6405,3.6405,3.6358,3.587,3.5966,3.631,3.5223,3.5475,3.631,3.5763,3.5918,3.6405,2.7426,2.8121,2.9004,3.0022,3.0215,3.0543,3.1572,3.1849,3.1994,3.1994,3.2213,3.2344,3.24,3.1869,3.1436,3.1169,3.0845,3.0384,2.9863,2.905,2.8598,2.8598,2.7668,2.7262,2.7489,2.7357,2.7309,2.7309,2.7309,2.7309,2.7309,2.7309,2.7309,2.7309,2.7309,2.7309,2.7309,2.7309,2.7309,2.7309,2.7309,2.7309,2.7309,2.7309,2.7309,2.7309,2.7309,2.8538,3.0284,3.0836,3.2663,3.4768,3.532,3.5918,3.6405,3.6405,3.6405,3.6405,3.6405,3.6405,3.6405,3.6405,3.6405,3.6405,3.6405,3.6405,3.6405,3.6405,3.6405,3.6405,3.6405,3.6405,3.6405,3.6405,3.6405,3.6405,3.6405,3.6405,3.6405,3.6405,3.6405,3.6405,3.6405,3.6405,3.6405,3.6405,3.6405,3.6405,3.6405,3.6405,3.6405,3.6405,3.5523,3.5475,3.6405,3.6405,3.6405,3.6405,3.6405,3.6405,3.6405,3.6405,3.6405,3.6405,3.6405,3.6405,3.631,3.5427,3.5571,3.631,3.5415,3.5619,3.6405,3.6405,3.6405,3.6405,2.8448,2.8588,2.9004,3.0022,3.0215,3.0543,3.1572,3.1705,3.1805,3.1981,3.2038,3.2169,3.24,3.2463,3.2494,3.2438,3.2568,3.1833,2.9943,2.9875,2.9886,2.9886,2.8945,2.8456,2.8491,2.7715,2.7309,2.7309,2.7309,2.7309,2.7309,2.7309,2.7309,2.7309,2.7309,2.7309,2.7309,2.7309,2.7309,2.7309,2.7309,2.7309,2.7309,2.7309,2.7309,2.7309,2.7309,2.8538,3.0284,3.0836,3.2663,3.4768,3.532,3.5918,3.6405,3.6405,3.6405,3.6405,3.6405,3.6405,3.6405,3.6405,3.6405,3.6405,3.6405,3.6405,3.6405,3.6405,3.6405,3.6405,3.6405,3.6405,3.6405,3.6405,3.6405,3.6405,3.6405,3.6405,3.6405,3.6405,3.6405,3.6405,3.6405,3.6405,3.6405,3.6405,3.6405,3.6405,3.6405,3.6405,3.6405,3.6405,3.6263,3.6216,3.6405,3.6405,3.6405,3.6405,3.6405,3.6405,3.6405,3.6405,3.6405,3.6405,3.6405,3.6405,3.6405,3.6203,3.6263,3.6358,3.6216,3.6263,3.6405,3.6405,3.6405,3.6405,2.951,2.9932,3.0453,3.0913,3.1003,3.1149,3.1617,3.1805,3.1849,3.1849,3.1937,3.2038,3.2169,3.2388,3.2593,3.2667,3.2939,3.2655,3.1645,3.1214,3.0946,3.0946,3.0034,2.9257,2.8724,2.8269,2.7809,2.7309,2.7309,2.7309,2.7309,2.7309,2.7309,2.7309,2.7309,2.7309,2.7309,2.7309,2.7309,2.7309,2.7309,2.7309,2.7309,2.7309,2.7309,2.7309,2.7309,2.8538,3.033,3.1159,3.2903,3.4864,3.5717,3.6157,3.6405,3.6405,3.6405,3.6405,3.6405,3.6405,3.6405,3.6405,3.6405,3.6405,3.6405,3.6405,3.6405,3.6405,3.6405,3.6405,3.6405,3.6405,3.6405,3.6405,3.6405,3.6405,3.6405,3.6405,3.6405,3.6405,3.6405,3.6405,3.6405,3.6405,3.6405,3.6405,3.6405,3.6405,3.6405,3.6405,3.6405,3.6405,3.6405,3.6405,3.6405,3.6405,3.6405,3.6405,3.6405,3.6405,3.6405,3.6405,3.6405,3.6405,3.6405,3.6405,3.6405,3.6405,3.6405,3.6405,3.6405,3.6405,3.6405,3.6405,3.6405,3.6405,3.0543,3.1193,3.1705,3.1705,3.1705,3.1705,3.1705,3.1849,3.1893,3.1705,3.1849,3.1937,3.1981,3.2257,3.2475,3.268,3.2939,3.3124,3.3124,3.2394,3.1845,3.1625,3.0486,2.9395,2.8409,2.8351,2.8034,2.7309,2.7309,2.7309,2.7309,2.7309,2.7309,2.7309,2.7309,2.7309,2.7309,2.7309,2.7309,2.7309,2.7309,2.7309,2.7309,2.7309,2.7309,2.7309,2.7309,2.8474,3.0205,3.1422,3.3039,3.4744,3.6009,3.6405,3.6405,3.6405,3.6405,3.6405,3.6405,3.6405,3.6405,3.6405,3.6405,3.6405,3.6405,3.6405,3.6405,3.6405,3.6405,3.6405,3.6405,3.6405,3.6405,3.6405,3.6405,3.6405,3.6405,3.6405,3.6405,3.6405,3.6405,3.6405,3.6405,3.6405,3.6405,3.6405,3.6405,3.6405,3.6405,3.6405,3.6405,3.6405,3.6405,3.6405,3.6405,3.6405,3.6405,3.6405,3.6405,3.6405,3.6405,3.6405,3.6405,3.6405,3.6405,3.6405,3.6405,3.6405,3.6405,3.6405,3.6405,3.6405,3.6405,3.6405,3.6405,3.6405,3.1572,3.1661,3.1705,3.1705,3.1705,3.1705,3.1705,3.1705,3.1705,3.1705,3.1705,3.1805,3.1981,3.2257,3.2475,3.268,3.2939,3.3124,3.3124,3.3025,3.2581,3.1625,2.9818,2.8362,2.7441,2.7404,2.7357,2.7309,2.7309,2.7309,2.7309,2.7309,2.7309,2.7309,2.7309,2.7309,2.7309,2.7309,2.7309,2.7309,2.7309,2.7309,2.7309,2.7309,2.7309,2.7309,2.7309,2.8227,2.9705,3.1253,3.2806,3.4326,3.5874,3.6405,3.6405,3.6405,3.6405,3.6405,3.6405,3.6405,3.6405,3.6405,3.6405,3.6405,3.6405,3.6405,3.6405,3.6405,3.6405,3.6405,3.6405,3.6405,3.6405,3.6405,3.6405,3.6405,3.6405,3.6405,3.6405,3.6405,3.6405,3.6405,3.6405,3.6405,3.6405,3.6405,3.6405,3.6405,3.6405,3.6405,3.6405,3.6405,3.6405,3.6405,3.6405,3.6405,3.6405,3.6405,3.6405,3.6405,3.6405,3.6405,3.6405,3.6405,3.6405,3.6405,3.6405,3.6405,3.6405,3.6405,3.6405,3.6405,3.6405,3.6405,3.6405,3.6405,3.1705,3.1705,3.1705,3.1705,3.1705,3.1705,3.1705,3.1705,3.1705,3.1705,3.1805,3.1981,3.2213,3.2463,3.268,3.2939,3.3025,3.3124,3.3124,3.3124,3.2667,3.1625,3.0351,2.9176,2.8175,2.8175,2.7904,2.7309,2.7309,2.7309,2.7309,2.7309,2.7309,2.7309,2.7309,2.7309,2.7309,2.7309,2.7309,2.7309,2.7309,2.7631,2.8081,2.7536,2.7668,2.8113,2.7802,2.8396,2.9708,3.1581,3.3005,3.428,3.5886,3.6405,3.6405,3.6405,3.6405,3.6405,3.6405,3.6405,3.6405,3.6405,3.6405,3.6405,3.6405,3.6405,3.6405,3.6405,3.6405,3.6405,3.6405,3.6405,3.6405,3.6405,3.6405,3.6405,3.6405,3.6405,3.6405,3.6405,3.6405,3.6405,3.6405,3.6405,3.6405,3.6405,3.6405,3.6405,3.6405,3.6405,3.6405,3.6405,3.6405,3.6405,3.6405,3.6405,3.6405,3.6405,3.6405,3.6405,3.6405,3.6405,3.6405,3.6405,3.6405,3.6405,3.6405,3.6405,3.6405,3.6405,3.6405,3.6405,3.6405,3.6405,3.6405,3.6405,3.1705,3.1705,3.1705,3.1705,3.1705,3.1705,3.1705,3.1705,3.1705,3.1805,3.1893,3.2125,3.2475,3.2636,3.2667,3.2624,3.2939,3.2982,3.2667,3.2624,3.2176,3.1214,3.0215,2.9268,2.8269,2.8269,2.7951,2.7309,2.7309,2.7309,2.7309,2.7309,2.7309,2.7309,2.7309,2.7309,2.7309,2.7631,2.7715,2.7762,2.8081,2.8585,2.9084,2.8128,2.8224,2.8809,2.8139,2.854,2.971,3.1765,3.3081,3.4066,3.5841,3.6405,3.6405,3.6405,3.6405,3.6405,3.6405,3.6405,3.6405,3.6405,3.6405,3.6405,3.6405,3.6405,3.6405,3.6405,3.6405,3.6405,3.6405,3.6405,3.6405,3.6405,3.6405,3.6405,3.6405,3.6405,3.6405,3.6405,3.6405,3.6405,3.6405,3.6405,3.6405,3.6405,3.6405,3.6405,3.6405,3.6405,3.6405,3.6405,3.6405,3.6405,3.6405,3.6405,3.6405,3.6405,3.6405,3.6405,3.6405,3.6405,3.6405,3.6405,3.6405,3.6405,3.6405,3.6405,3.6405,3.6405,3.6405,3.6405,3.6405,3.6405,3.6405,3.6405,3.1705,3.1705,3.1705,3.1705,3.1705,3.1705,3.1705,3.1705,3.1749,3.1994,3.1994,3.2157,3.2624,3.2711,3.2394,3.1669,3.2525,3.2667,3.1669,3.1581,3.1169,3.0215,2.9222,2.8269,2.7309,2.7309,2.7309,2.7309,2.7309,2.7309,2.7309,2.7309,2.7309,2.7309,2.7309,2.7309,2.7357,2.8315,2.8678,2.8771,2.9806,3.017,3.0079,2.9084,2.8983,2.9265,2.8265,2.8524,2.9647,3.1757,3.2825,3.3549,3.5715,3.6405,3.6405,3.6405,3.6405,3.6405,3.6405,3.6405,3.6405,3.6405,3.6405,3.6405,3.6405,3.6405,3.6405,3.6405,3.6405,3.6405,3.6405,3.6405,3.6405,3.6405,3.6405,3.6405,3.6405,3.6405,3.6405,3.6405,3.6405,3.6405,3.6405,3.6405,3.6405,3.6405,3.6405,3.6405,3.6405,3.6405,3.6405,3.6405,3.6405,3.6405,3.6405,3.6405,3.6405,3.6405,3.6405,3.6405,3.6405,3.6405,3.6405,3.6405,3.6405,3.6405,3.6405,3.6405,3.6405,3.6405,3.6405,3.6405,3.6405,3.6405,3.6405,3.6405,3.1789,3.1705,3.1705,3.1705,3.1705,3.1705,3.1705,3.1705,3.1749,3.1994,3.2169,3.2388,3.268,3.2853,3.2896,3.2667,3.2939,3.2667,3.1669,3.0991,3.017,2.9176,2.8852,2.8585,2.8315,2.7631,2.7309,2.7309,2.7309,2.7309,2.7309,2.7309,2.7309,2.7309,2.7309,2.7309,2.7309,2.7584,2.8081,2.8724,2.9037,2.9578,3.0079,2.9084,2.8983,2.9308,2.8631,2.8794,2.97,3.2162,3.3074,3.3549,3.5715,3.6405,3.6405,3.6405,3.6405,3.6405,3.6405,3.6405,3.6405,3.6405,3.6405,3.6405,3.6405,3.6405,3.6405,3.6405,3.6405,3.6405,3.6405,3.6405,3.6405,3.6405,3.6405,3.6405,3.6405,3.6405,3.6405,3.6405,3.6405,3.6405,3.6405,3.6405,3.6405,3.6405,3.6405,3.6405,3.6405,3.6405,3.6405,3.6405,3.6405,3.6405,3.6405,3.6405,3.6405,3.6405,3.6405,3.6405,3.6405,3.6405,3.6405,3.6405,3.6405,3.6405,3.6405,3.6405,3.6405,3.6405,3.6405,3.6405,3.6405,3.6405,3.6405,3.6405,3.2415,3.2142,3.1997,3.1997,3.1849,3.1705,3.1705,3.1705,3.1805,3.2125,3.2313,3.2519,3.281,3.2982,3.2939,3.2537,3.2494,3.2264,3.1625,3.108,3.0306,2.936,2.8899,2.8538,2.8128,2.7584,2.7309,2.7309,2.7309,2.7309,2.7309,2.7309,2.7309,2.7309,2.7309,2.7309,2.7299,2.7726,2.8175,2.8724,2.913,2.9736,3.0365,2.9824,2.9744,2.99,2.96,2.9522,2.9972,3.2398,3.3747,3.4678,3.6013,3.6405,3.6405,3.6405,3.6405,3.6405,3.6405,3.6405,3.6405,3.6405,3.6405,3.6405,3.6405,3.6405,3.6405,3.6405,3.6405,3.6405,3.6405,3.6405,3.6405,3.6405,3.6405,3.6405,3.6405,3.6405,3.6405,3.6405,3.6405,3.6405,3.6405,3.6405,3.6405,3.6405,3.6405,3.6405,3.6405,3.6405,3.6405,3.6405,3.6405,3.6405,3.6405,3.6405,3.6405,3.6405,3.6405,3.6405,3.6405,3.6405,3.6405,3.6405,3.6405,3.6405,3.6405,3.6405,3.6405,3.6405,3.6405,3.6405,3.6405,3.6405,3.6405,3.6405,3.3296,3.2899,3.2575,3.2575,3.2142,3.1837,3.1789,3.1789,3.1898,3.2313,3.2344,3.2562,3.3025,3.3081,3.2711,3.1801,3.1669,3.1581,3.1581,3.1536,3.1036,3.0125,2.9176,2.8269,2.7309,2.7309,2.7309,2.7309,2.7309,2.7309,2.7309,2.7309,2.7309,2.7309,2.7309,2.7309,2.7357,2.8222,2.8678,2.891,2.9897,3.0549,3.0951,3.1148,3.1106,3.0965,3.0904,3.0625,3.0599,3.265,3.4678,3.6405,3.6405,3.6405,3.6405,3.6405,3.6405,3.6405,3.6405,3.6405,3.6405,3.6405,3.6405,3.6405,3.6405,3.6405,3.6405,3.6405,3.6405,3.6405,3.6405,3.6405,3.6405,3.6405,3.6405,3.6405,3.6405,3.6405,3.6405,3.6405,3.6405,3.6405,3.6405,3.6405,3.6405,3.6405,3.6405,3.6405,3.6405,3.6405,3.6405,3.6405,3.6405,3.6405,3.6405,3.6405,3.6405,3.6405,3.6405,3.6405,3.6405,3.6405,3.6405,3.6405,3.6405,3.6405,3.6405,3.6405,3.6405,3.6405,3.6405,3.6405,3.6405,3.6405,3.6405,3.6405,3.3368,3.32,3.3116,3.3116,3.302,3.2803,3.2382,3.2322,3.2256,3.2086,3.2081,3.2257,3.2723,3.281,3.2766,3.2766,3.2033,3.1581,3.1581,3.0902,3.0079,2.9084,2.8817,2.8269,2.7309,2.7309,2.7309,2.7309,2.7309,2.7309,2.7309,2.7309,2.7309,2.7309,2.7309,2.7309,2.7309,2.7536,2.8491,2.9932,3.056,3.1319,3.2089,3.2621,3.2511,3.2041,3.1202,3.1612,3.27,3.3993,3.5319,3.6405,3.6405,3.6405,3.6405,3.6405,3.6405,3.6405,3.6405,3.6405,3.6405,3.6405,3.6405,3.6405,3.6405,3.6405,3.6405,3.6405,3.6405,3.6405,3.6405,3.6405,3.6405,3.6405,3.6405,3.6405,3.6405,3.6405,3.6405,3.6405,3.6405,3.6405,3.6405,3.6405,3.6405,3.6405,3.6405,3.6405,3.6405,3.6405,3.6405,3.6405,3.6405,3.6405,3.6405,3.6405,3.6405,3.6405,3.6405,3.6405,3.6405,3.6405,3.6405,3.6405,3.6405,3.6405,3.6405,3.6405,3.6405,3.6405,3.6405,3.6405,3.6405,3.6405,3.6405,3.6405,3.4078,3.3825,3.3645,3.3645,3.3452,3.32,3.2911,3.2875,3.2774,3.2443,3.237,3.245,3.2543,3.255,3.2636,3.2896,3.2537,3.212,3.1625,3.0711,2.9761,2.8724,2.8269,2.7809,2.7309,2.7309,2.7309,2.7309,2.7309,2.7309,2.7309,2.7309,2.7309,2.7309,2.7309,2.7309,2.7309,2.7309,2.7984,2.9121,2.942,3.0068,3.103,3.1819,3.1803,3.1315,3.1254,3.2062,3.335,3.4434,3.5523,3.6405,3.6405,3.6405,3.6405,3.6405,3.6405,3.6405,3.6405,3.6405,3.6405,3.6405,3.6405,3.6405,3.6405,3.6405,3.6405,3.6405,3.6405,3.6405,3.6405,3.6405,3.6405,3.6405,3.6405,3.6405,3.6405,3.6405,3.6405,3.6405,3.6405,3.6405,3.6405,3.6405,3.6405,3.6405,3.6405,3.6405,3.6405,3.6405,3.6405,3.6405,3.6405,3.6405,3.6405,3.6405,3.6543,3.6795,3.6531,3.6543,3.6807,3.6807,3.6945,3.7149,3.7149,3.7149,3.7149,3.7149,3.7149,3.7149,3.7149,3.6985,3.6807,3.6807,3.6631,3.6405,3.4775,3.4426,3.4126,3.4126,3.3825,3.3525,3.3428,3.3416,3.327,3.2956,3.2883,3.2767,3.2509,3.2449,3.2562,3.2766,3.2797,3.2568,3.1901,3.0991,2.9988,2.8991,2.8222,2.762,2.7309,2.7309,2.7309,2.7309,2.7309,2.7309,2.7309,2.7309,2.7309,2.7309,2.7309,2.7351,2.7423,2.7423,2.7865,2.8564,2.8453,2.9094,3.0194,3.1002,3.1084,3.0888,3.1637,3.2437,3.34,3.4629,3.5523,3.6156,3.6358,3.6405,3.6405,3.6405,3.6405,3.6405,3.6405,3.6405,3.6405,3.6405,3.6405,3.6405,3.6405,3.6405,3.6405,3.6405,3.6405,3.6405,3.6405,3.6405,3.6405,3.6405,3.6405,3.6405,3.6405,3.6405,3.6405,3.6405,3.6405,3.6405,3.6405,3.6405,3.6405,3.6405,3.6405,3.6405,3.6405,3.6405,3.6405,3.6405,3.6405,3.6455,3.6556,3.6556,3.6832,3.7312,3.6908,3.6933,3.7324,3.7324,3.7575,3.8002,3.8002,3.8002,3.8002,3.8002,3.8002,3.8002,3.8002,3.7726,3.7324,3.7324,3.7036,3.6681,3.4775,3.4727,3.4667,3.4667,3.4619,3.4463,3.3958,3.3886,3.3753,3.3294,3.3222,3.3109,3.2779,3.2702,3.2766,3.3025,3.2264,3.212,3.2853,3.1945,3.0991,3.0034,2.9897,2.9037,2.7357,2.7309,2.7309,2.7309,2.7309,2.7309,2.7309,2.7309,2.7309,2.7309,2.7309,2.7469,2.7831,2.7831,2.9139,3.114,3.0679,3.166,3.3312,3.3024,3.3429,3.403,3.3239,3.3101,3.3499,3.5523,3.5667,3.5174,3.6108,3.6405,3.6405,3.6405,3.6405,3.6405,3.6405,3.6405,3.6405,3.6405,3.6405,3.6405,3.6405,3.6405,3.6405,3.6405,3.6405,3.6405,3.6405,3.6405,3.6405,3.6405,3.6405,3.6405,3.6405,3.6405,3.6405,3.6405,3.6405,3.6405,3.6405,3.6405,3.6405,3.6405,3.6405,3.6405,3.6405,3.6405,3.6405,3.6405,3.6405,3.6631,3.7073,3.7073,3.7349,3.7889,3.7814,3.7826,3.7889,3.7889,3.7939,3.8002,3.8002,3.8002,3.8002,3.8002,3.8002,3.8002,3.8002,3.7965,3.7889,3.7889,3.7852,3.7789,3.4775,3.4775,3.4775,3.4775,3.4775,3.4703,3.4462,3.4438,3.4246,3.3777,3.3705,3.3513,3.3121,3.3149,3.3318,3.3598,3.3034,3.2894,3.3489,3.1825,3.0621,3.0215,2.9165,2.8175,2.7309,2.7309,2.7309,2.7309,2.7309,2.7309,2.7309,2.7309,2.7444,2.7634,2.7634,2.8202,2.9148,2.8543,2.9769,3.2025,3.0578,3.1068,3.2571,3.1713,3.1699,3.2145,3.2235,3.2286,3.2538,3.408,3.4678,3.4872,3.5367,3.5918,3.6405,3.6405,3.6405,3.6405,3.6405,3.6405,3.6405,3.6405,3.6405,3.6405,3.6405,3.6405,3.6405,3.6405,3.6405,3.6405,3.6405,3.6405,3.6405,3.6405,3.6405,3.6405,3.6405,3.6405,3.6405,3.6405,3.6405,3.6405,3.6405,3.6405,3.6405,3.6405,3.6405,3.6405,3.6405,3.6405,3.6405,3.6405,3.6707,3.6935,3.7186,3.7487,3.7927,3.8492,3.8492,3.8492,3.8492,3.8492,3.8655,3.8956,3.8956,3.8956,3.8956,3.8956,3.8956,3.8956,3.8956,3.8768,3.8442,3.8128,3.8002,3.8002]}]]